<?xml version="1.0" encoding="UTF-8" standalone="no" ?>
<gpx xmlns="http://www.topografix.com/GPX/1/1" xmlns:xsi="http://www.w3.org/2001/XMLSchema-instance" xsi:schemaLocation="http://www.topografix.com/GPX/1/1 http://www.topografix.com/GPX/1/1/gpx.xsd" version="1.1" creator="VisuGPX - https://www.visugpx.com">
  <metadata>
    <name>mrt chambon-dol</name>
    <desc><![CDATA[depart de chambon,route barbeyrat,gue thaury,dol,retour]]></desc>
  </metadata>
  <trk>
    <name><![CDATA[mrt chambon-dol_1]]></name>
    <trkseg>
      <trkpt lat="46.18845" lon="2.42564">
        <ele>331</ele>
        <time>2016-04-05T12:54:25Z</time>
      </trkpt>
      <trkpt lat="46.1884" lon="2.42602">
        <ele>331</ele>
        <time>2016-04-05T12:54:42Z</time>
      </trkpt>
      <trkpt lat="46.18839" lon="2.42608">
        <ele>331</ele>
        <time>2016-04-05T12:54:45Z</time>
      </trkpt>
      <trkpt lat="46.18838" lon="2.42614">
        <ele>331</ele>
        <time>2016-04-05T12:54:48Z</time>
      </trkpt>
      <trkpt lat="46.18835" lon="2.42618">
        <ele>331</ele>
        <time>2016-04-05T12:54:51Z</time>
      </trkpt>
      <trkpt lat="46.18832" lon="2.42624">
        <ele>331</ele>
        <time>2016-04-05T12:54:54Z</time>
      </trkpt>
      <trkpt lat="46.1883" lon="2.42629">
        <ele>330</ele>
        <time>2016-04-05T12:54:57Z</time>
      </trkpt>
      <trkpt lat="46.18829" lon="2.42635">
        <ele>330</ele>
        <time>2016-04-05T12:55:00Z</time>
      </trkpt>
      <trkpt lat="46.18828" lon="2.42641">
        <ele>329</ele>
        <time>2016-04-05T12:55:03Z</time>
      </trkpt>
      <trkpt lat="46.18827" lon="2.42646">
        <ele>329</ele>
        <time>2016-04-05T12:55:06Z</time>
      </trkpt>
      <trkpt lat="46.18826" lon="2.42652">
        <ele>329</ele>
        <time>2016-04-05T12:55:09Z</time>
      </trkpt>
      <trkpt lat="46.18825" lon="2.42659">
        <ele>328</ele>
        <time>2016-04-05T12:55:12Z</time>
      </trkpt>
      <trkpt lat="46.18824" lon="2.42665">
        <ele>328</ele>
        <time>2016-04-05T12:55:15Z</time>
      </trkpt>
      <trkpt lat="46.18824" lon="2.4267">
        <ele>327</ele>
        <time>2016-04-05T12:55:18Z</time>
      </trkpt>
      <trkpt lat="46.18823" lon="2.42676">
        <ele>326</ele>
        <time>2016-04-05T12:55:21Z</time>
      </trkpt>
      <trkpt lat="46.18823" lon="2.42681">
        <ele>325</ele>
        <time>2016-04-05T12:55:24Z</time>
      </trkpt>
      <trkpt lat="46.18822" lon="2.42688">
        <ele>324</ele>
        <time>2016-04-05T12:55:27Z</time>
      </trkpt>
      <trkpt lat="46.18822" lon="2.42694">
        <ele>324</ele>
        <time>2016-04-05T12:55:30Z</time>
      </trkpt>
      <trkpt lat="46.18822" lon="2.42701">
        <ele>324</ele>
        <time>2016-04-05T12:55:33Z</time>
      </trkpt>
      <trkpt lat="46.18822" lon="2.42707">
        <ele>324</ele>
        <time>2016-04-05T12:55:36Z</time>
      </trkpt>
      <trkpt lat="46.18822" lon="2.42714">
        <ele>324</ele>
        <time>2016-04-05T12:55:39Z</time>
      </trkpt>
      <trkpt lat="46.18821" lon="2.42721">
        <ele>324</ele>
        <time>2016-04-05T12:55:42Z</time>
      </trkpt>
      <trkpt lat="46.1882" lon="2.42727">
        <ele>324</ele>
        <time>2016-04-05T12:55:45Z</time>
      </trkpt>
      <trkpt lat="46.1882" lon="2.42733">
        <ele>324</ele>
        <time>2016-04-05T12:55:48Z</time>
      </trkpt>
      <trkpt lat="46.18819" lon="2.42739">
        <ele>324</ele>
        <time>2016-04-05T12:55:51Z</time>
      </trkpt>
      <trkpt lat="46.18818" lon="2.42745">
        <ele>324</ele>
        <time>2016-04-05T12:55:54Z</time>
      </trkpt>
      <trkpt lat="46.18818" lon="2.42751">
        <ele>324</ele>
        <time>2016-04-05T12:55:57Z</time>
      </trkpt>
      <trkpt lat="46.18817" lon="2.42757">
        <ele>324</ele>
        <time>2016-04-05T12:56:00Z</time>
      </trkpt>
      <trkpt lat="46.18816" lon="2.42762">
        <ele>324</ele>
        <time>2016-04-05T12:56:03Z</time>
      </trkpt>
      <trkpt lat="46.18815" lon="2.42767">
        <ele>324</ele>
        <time>2016-04-05T12:56:06Z</time>
      </trkpt>
      <trkpt lat="46.18812" lon="2.42772">
        <ele>324</ele>
        <time>2016-04-05T12:56:09Z</time>
      </trkpt>
      <trkpt lat="46.1881" lon="2.42776">
        <ele>324</ele>
        <time>2016-04-05T12:56:12Z</time>
      </trkpt>
      <trkpt lat="46.18809" lon="2.42782">
        <ele>324</ele>
        <time>2016-04-05T12:56:15Z</time>
      </trkpt>
      <trkpt lat="46.18807" lon="2.42787">
        <ele>324</ele>
        <time>2016-04-05T12:56:18Z</time>
      </trkpt>
      <trkpt lat="46.18804" lon="2.42792">
        <ele>324</ele>
        <time>2016-04-05T12:56:21Z</time>
      </trkpt>
      <trkpt lat="46.18802" lon="2.42797">
        <ele>324</ele>
        <time>2016-04-05T12:56:24Z</time>
      </trkpt>
      <trkpt lat="46.188" lon="2.42802">
        <ele>324</ele>
        <time>2016-04-05T12:56:27Z</time>
      </trkpt>
      <trkpt lat="46.18796" lon="2.42808">
        <ele>324</ele>
        <time>2016-04-05T12:56:31Z</time>
      </trkpt>
      <trkpt lat="46.18793" lon="2.42813">
        <ele>324</ele>
        <time>2016-04-05T12:56:34Z</time>
      </trkpt>
      <trkpt lat="46.1879" lon="2.42816">
        <ele>324</ele>
        <time>2016-04-05T12:56:37Z</time>
      </trkpt>
      <trkpt lat="46.18787" lon="2.42821">
        <ele>324</ele>
        <time>2016-04-05T12:56:40Z</time>
      </trkpt>
      <trkpt lat="46.18783" lon="2.42825">
        <ele>324</ele>
        <time>2016-04-05T12:56:43Z</time>
      </trkpt>
      <trkpt lat="46.18781" lon="2.42829">
        <ele>324</ele>
        <time>2016-04-05T12:56:46Z</time>
      </trkpt>
      <trkpt lat="46.18776" lon="2.42833">
        <ele>324</ele>
        <time>2016-04-05T12:56:50Z</time>
      </trkpt>
      <trkpt lat="46.18773" lon="2.42836">
        <ele>324</ele>
        <time>2016-04-05T12:56:53Z</time>
      </trkpt>
      <trkpt lat="46.1877" lon="2.42839">
        <ele>325</ele>
        <time>2016-04-05T12:56:56Z</time>
      </trkpt>
      <trkpt lat="46.18766" lon="2.42843">
        <ele>325</ele>
        <time>2016-04-05T12:56:59Z</time>
      </trkpt>
      <trkpt lat="46.18762" lon="2.42846">
        <ele>325</ele>
        <time>2016-04-05T12:57:02Z</time>
      </trkpt>
      <trkpt lat="46.18758" lon="2.42849">
        <ele>325</ele>
        <time>2016-04-05T12:57:05Z</time>
      </trkpt>
      <trkpt lat="46.18754" lon="2.42853">
        <ele>325</ele>
        <time>2016-04-05T12:57:08Z</time>
      </trkpt>
      <trkpt lat="46.18751" lon="2.42858">
        <ele>325</ele>
        <time>2016-04-05T12:57:11Z</time>
      </trkpt>
      <trkpt lat="46.18747" lon="2.42861">
        <ele>325</ele>
        <time>2016-04-05T12:57:14Z</time>
      </trkpt>
      <trkpt lat="46.18742" lon="2.42863">
        <ele>325</ele>
        <time>2016-04-05T12:57:17Z</time>
      </trkpt>
      <trkpt lat="46.18739" lon="2.42866">
        <ele>325</ele>
        <time>2016-04-05T12:57:20Z</time>
      </trkpt>
      <trkpt lat="46.18735" lon="2.42869">
        <ele>325</ele>
        <time>2016-04-05T12:57:23Z</time>
      </trkpt>
      <trkpt lat="46.18731" lon="2.42872">
        <ele>325</ele>
        <time>2016-04-05T12:57:26Z</time>
      </trkpt>
      <trkpt lat="46.18727" lon="2.42875">
        <ele>325</ele>
        <time>2016-04-05T12:57:29Z</time>
      </trkpt>
      <trkpt lat="46.18722" lon="2.42877">
        <ele>325</ele>
        <time>2016-04-05T12:57:32Z</time>
      </trkpt>
      <trkpt lat="46.18718" lon="2.42876">
        <ele>325</ele>
        <time>2016-04-05T12:57:35Z</time>
      </trkpt>
      <trkpt lat="46.18714" lon="2.42871">
        <ele>325</ele>
        <time>2016-04-05T12:57:39Z</time>
      </trkpt>
      <trkpt lat="46.18711" lon="2.42866">
        <ele>325</ele>
        <time>2016-04-05T12:57:42Z</time>
      </trkpt>
      <trkpt lat="46.18709" lon="2.42862">
        <ele>325</ele>
        <time>2016-04-05T12:57:45Z</time>
      </trkpt>
      <trkpt lat="46.18706" lon="2.42857">
        <ele>325</ele>
        <time>2016-04-05T12:57:48Z</time>
      </trkpt>
      <trkpt lat="46.18704" lon="2.42852">
        <ele>325</ele>
        <time>2016-04-05T12:57:51Z</time>
      </trkpt>
      <trkpt lat="46.18701" lon="2.42848">
        <ele>325</ele>
        <time>2016-04-05T12:57:54Z</time>
      </trkpt>
      <trkpt lat="46.18699" lon="2.42844">
        <ele>325</ele>
        <time>2016-04-05T12:57:57Z</time>
      </trkpt>
      <trkpt lat="46.18696" lon="2.42839">
        <ele>324</ele>
        <time>2016-04-05T12:58:01Z</time>
      </trkpt>
      <trkpt lat="46.18692" lon="2.42834">
        <ele>322</ele>
        <time>2016-04-05T12:58:05Z</time>
      </trkpt>
      <trkpt lat="46.1869" lon="2.42828">
        <ele>321</ele>
        <time>2016-04-05T12:58:08Z</time>
      </trkpt>
      <trkpt lat="46.18688" lon="2.42822">
        <ele>321</ele>
        <time>2016-04-05T12:58:11Z</time>
      </trkpt>
      <trkpt lat="46.18685" lon="2.42816">
        <ele>321</ele>
        <time>2016-04-05T12:58:14Z</time>
      </trkpt>
      <trkpt lat="46.18683" lon="2.4281">
        <ele>321</ele>
        <time>2016-04-05T12:58:17Z</time>
      </trkpt>
      <trkpt lat="46.1868" lon="2.42805">
        <ele>321</ele>
        <time>2016-04-05T12:58:20Z</time>
      </trkpt>
      <trkpt lat="46.18678" lon="2.42798">
        <ele>321</ele>
        <time>2016-04-05T12:58:23Z</time>
      </trkpt>
      <trkpt lat="46.18675" lon="2.42793">
        <ele>321</ele>
        <time>2016-04-05T12:58:26Z</time>
      </trkpt>
      <trkpt lat="46.18673" lon="2.42788">
        <ele>321</ele>
        <time>2016-04-05T12:58:29Z</time>
      </trkpt>
      <trkpt lat="46.1867" lon="2.42782">
        <ele>321</ele>
        <time>2016-04-05T12:58:32Z</time>
      </trkpt>
      <trkpt lat="46.18668" lon="2.42777">
        <ele>321</ele>
        <time>2016-04-05T12:58:35Z</time>
      </trkpt>
      <trkpt lat="46.18665" lon="2.42772">
        <ele>321</ele>
        <time>2016-04-05T12:58:38Z</time>
      </trkpt>
      <trkpt lat="46.18663" lon="2.42766">
        <ele>321</ele>
        <time>2016-04-05T12:58:41Z</time>
      </trkpt>
      <trkpt lat="46.1866" lon="2.42761">
        <ele>321</ele>
        <time>2016-04-05T12:58:44Z</time>
      </trkpt>
      <trkpt lat="46.18658" lon="2.42756">
        <ele>321</ele>
        <time>2016-04-05T12:58:47Z</time>
      </trkpt>
      <trkpt lat="46.18655" lon="2.42749">
        <ele>321</ele>
        <time>2016-04-05T12:58:50Z</time>
      </trkpt>
      <trkpt lat="46.18653" lon="2.42744">
        <ele>321</ele>
        <time>2016-04-05T12:58:53Z</time>
      </trkpt>
      <trkpt lat="46.1865" lon="2.42738">
        <ele>321</ele>
        <time>2016-04-05T12:58:56Z</time>
      </trkpt>
      <trkpt lat="46.18647" lon="2.42733">
        <ele>321</ele>
        <time>2016-04-05T12:58:59Z</time>
      </trkpt>
      <trkpt lat="46.18645" lon="2.42728">
        <ele>321</ele>
        <time>2016-04-05T12:59:02Z</time>
      </trkpt>
      <trkpt lat="46.18643" lon="2.42723">
        <ele>321</ele>
        <time>2016-04-05T12:59:05Z</time>
      </trkpt>
      <trkpt lat="46.18641" lon="2.42718">
        <ele>321</ele>
        <time>2016-04-05T12:59:08Z</time>
      </trkpt>
      <trkpt lat="46.18637" lon="2.42713">
        <ele>321</ele>
        <time>2016-04-05T12:59:12Z</time>
      </trkpt>
      <trkpt lat="46.18634" lon="2.42707">
        <ele>321</ele>
        <time>2016-04-05T12:59:16Z</time>
      </trkpt>
      <trkpt lat="46.1863" lon="2.42702">
        <ele>321</ele>
        <time>2016-04-05T12:59:20Z</time>
      </trkpt>
      <trkpt lat="46.18626" lon="2.42698">
        <ele>321</ele>
        <time>2016-04-05T12:59:23Z</time>
      </trkpt>
      <trkpt lat="46.18623" lon="2.42695">
        <ele>321</ele>
        <time>2016-04-05T12:59:26Z</time>
      </trkpt>
      <trkpt lat="46.18619" lon="2.42691">
        <ele>321</ele>
        <time>2016-04-05T12:59:29Z</time>
      </trkpt>
      <trkpt lat="46.18615" lon="2.42688">
        <ele>321</ele>
        <time>2016-04-05T12:59:32Z</time>
      </trkpt>
      <trkpt lat="46.18612" lon="2.42686">
        <ele>321</ele>
        <time>2016-04-05T12:59:35Z</time>
      </trkpt>
      <trkpt lat="46.18608" lon="2.42683">
        <ele>321</ele>
        <time>2016-04-05T12:59:38Z</time>
      </trkpt>
      <trkpt lat="46.18605" lon="2.4268">
        <ele>321</ele>
        <time>2016-04-05T12:59:41Z</time>
      </trkpt>
      <trkpt lat="46.18601" lon="2.42677">
        <ele>321</ele>
        <time>2016-04-05T12:59:44Z</time>
      </trkpt>
      <trkpt lat="46.18597" lon="2.42674">
        <ele>321</ele>
        <time>2016-04-05T12:59:47Z</time>
      </trkpt>
      <trkpt lat="46.18594" lon="2.42671">
        <ele>321</ele>
        <time>2016-04-05T12:59:50Z</time>
      </trkpt>
      <trkpt lat="46.1859" lon="2.42669">
        <ele>321</ele>
        <time>2016-04-05T12:59:53Z</time>
      </trkpt>
      <trkpt lat="46.18587" lon="2.42665">
        <ele>321</ele>
        <time>2016-04-05T12:59:56Z</time>
      </trkpt>
      <trkpt lat="46.18583" lon="2.42662">
        <ele>321</ele>
        <time>2016-04-05T12:59:59Z</time>
      </trkpt>
      <trkpt lat="46.1858" lon="2.42659">
        <ele>321</ele>
        <time>2016-04-05T13:00:02Z</time>
      </trkpt>
      <trkpt lat="46.18576" lon="2.42654">
        <ele>322</ele>
        <time>2016-04-05T13:00:06Z</time>
      </trkpt>
      <trkpt lat="46.18573" lon="2.42651">
        <ele>322</ele>
        <time>2016-04-05T13:00:09Z</time>
      </trkpt>
      <trkpt lat="46.18569" lon="2.42645">
        <ele>322</ele>
        <time>2016-04-05T13:00:13Z</time>
      </trkpt>
      <trkpt lat="46.18567" lon="2.42641">
        <ele>322</ele>
        <time>2016-04-05T13:00:16Z</time>
      </trkpt>
      <trkpt lat="46.18564" lon="2.42636">
        <ele>322</ele>
        <time>2016-04-05T13:00:19Z</time>
      </trkpt>
      <trkpt lat="46.18562" lon="2.42631">
        <ele>323</ele>
        <time>2016-04-05T13:00:22Z</time>
      </trkpt>
      <trkpt lat="46.1856" lon="2.42625">
        <ele>323</ele>
        <time>2016-04-05T13:00:25Z</time>
      </trkpt>
      <trkpt lat="46.18558" lon="2.4262">
        <ele>323</ele>
        <time>2016-04-05T13:00:28Z</time>
      </trkpt>
      <trkpt lat="46.18557" lon="2.42614">
        <ele>324</ele>
        <time>2016-04-05T13:00:31Z</time>
      </trkpt>
      <trkpt lat="46.18555" lon="2.42608">
        <ele>324</ele>
        <time>2016-04-05T13:00:34Z</time>
      </trkpt>
      <trkpt lat="46.18554" lon="2.42602">
        <ele>324</ele>
        <time>2016-04-05T13:00:37Z</time>
      </trkpt>
      <trkpt lat="46.18553" lon="2.42597">
        <ele>325</ele>
        <time>2016-04-05T13:00:40Z</time>
      </trkpt>
      <trkpt lat="46.18552" lon="2.42591">
        <ele>325</ele>
        <time>2016-04-05T13:00:43Z</time>
      </trkpt>
      <trkpt lat="46.18552" lon="2.42585">
        <ele>325</ele>
        <time>2016-04-05T13:00:46Z</time>
      </trkpt>
      <trkpt lat="46.18551" lon="2.4258">
        <ele>325</ele>
        <time>2016-04-05T13:00:49Z</time>
      </trkpt>
      <trkpt lat="46.18551" lon="2.42574">
        <ele>325</ele>
        <time>2016-04-05T13:00:52Z</time>
      </trkpt>
      <trkpt lat="46.18549" lon="2.42568">
        <ele>325</ele>
        <time>2016-04-05T13:00:55Z</time>
      </trkpt>
      <trkpt lat="46.18548" lon="2.42563">
        <ele>325</ele>
        <time>2016-04-05T13:00:58Z</time>
      </trkpt>
      <trkpt lat="46.18548" lon="2.42557">
        <ele>325</ele>
        <time>2016-04-05T13:01:01Z</time>
      </trkpt>
      <trkpt lat="46.18547" lon="2.4255">
        <ele>325</ele>
        <time>2016-04-05T13:01:04Z</time>
      </trkpt>
      <trkpt lat="46.18547" lon="2.42545">
        <ele>326</ele>
        <time>2016-04-05T13:01:07Z</time>
      </trkpt>
      <trkpt lat="46.18546" lon="2.42539">
        <ele>326</ele>
        <time>2016-04-05T13:01:10Z</time>
      </trkpt>
      <trkpt lat="46.18545" lon="2.42533">
        <ele>326</ele>
        <time>2016-04-05T13:01:13Z</time>
      </trkpt>
      <trkpt lat="46.18544" lon="2.42527">
        <ele>326</ele>
        <time>2016-04-05T13:01:16Z</time>
      </trkpt>
      <trkpt lat="46.18544" lon="2.4252">
        <ele>326</ele>
        <time>2016-04-05T13:01:19Z</time>
      </trkpt>
      <trkpt lat="46.18544" lon="2.42513">
        <ele>326</ele>
        <time>2016-04-05T13:01:22Z</time>
      </trkpt>
      <trkpt lat="46.18544" lon="2.42507">
        <ele>326</ele>
        <time>2016-04-05T13:01:25Z</time>
      </trkpt>
      <trkpt lat="46.18544" lon="2.42501">
        <ele>326</ele>
        <time>2016-04-05T13:01:28Z</time>
      </trkpt>
      <trkpt lat="46.18544" lon="2.42496">
        <ele>326</ele>
        <time>2016-04-05T13:01:31Z</time>
      </trkpt>
      <trkpt lat="46.18544" lon="2.4249">
        <ele>326</ele>
        <time>2016-04-05T13:01:34Z</time>
      </trkpt>
      <trkpt lat="46.18544" lon="2.42484">
        <ele>326</ele>
        <time>2016-04-05T13:01:37Z</time>
      </trkpt>
      <trkpt lat="46.18544" lon="2.42478">
        <ele>326</ele>
        <time>2016-04-05T13:01:40Z</time>
      </trkpt>
      <trkpt lat="46.18544" lon="2.42471">
        <ele>326</ele>
        <time>2016-04-05T13:01:43Z</time>
      </trkpt>
      <trkpt lat="46.18544" lon="2.42465">
        <ele>326</ele>
        <time>2016-04-05T13:01:46Z</time>
      </trkpt>
      <trkpt lat="46.18544" lon="2.42459">
        <ele>326</ele>
        <time>2016-04-05T13:01:49Z</time>
      </trkpt>
      <trkpt lat="46.18545" lon="2.42454">
        <ele>326</ele>
        <time>2016-04-05T13:01:52Z</time>
      </trkpt>
      <trkpt lat="46.18545" lon="2.42448">
        <ele>326</ele>
        <time>2016-04-05T13:01:55Z</time>
      </trkpt>
      <trkpt lat="46.18545" lon="2.42442">
        <ele>326</ele>
        <time>2016-04-05T13:01:58Z</time>
      </trkpt>
      <trkpt lat="46.18546" lon="2.42437">
        <ele>326</ele>
        <time>2016-04-05T13:02:01Z</time>
      </trkpt>
      <trkpt lat="46.18546" lon="2.42431">
        <ele>326</ele>
        <time>2016-04-05T13:02:04Z</time>
      </trkpt>
      <trkpt lat="46.18546" lon="2.42425">
        <ele>326</ele>
        <time>2016-04-05T13:02:07Z</time>
      </trkpt>
      <trkpt lat="46.18546" lon="2.42419">
        <ele>326</ele>
        <time>2016-04-05T13:02:10Z</time>
      </trkpt>
      <trkpt lat="46.18547" lon="2.42413">
        <ele>326</ele>
        <time>2016-04-05T13:02:13Z</time>
      </trkpt>
      <trkpt lat="46.18547" lon="2.42408">
        <ele>326</ele>
        <time>2016-04-05T13:02:16Z</time>
      </trkpt>
      <trkpt lat="46.18547" lon="2.42403">
        <ele>326</ele>
        <time>2016-04-05T13:02:19Z</time>
      </trkpt>
      <trkpt lat="46.18547" lon="2.42397">
        <ele>326</ele>
        <time>2016-04-05T13:02:22Z</time>
      </trkpt>
      <trkpt lat="46.18547" lon="2.42391">
        <ele>326</ele>
        <time>2016-04-05T13:02:25Z</time>
      </trkpt>
      <trkpt lat="46.18548" lon="2.42385">
        <ele>326</ele>
        <time>2016-04-05T13:02:28Z</time>
      </trkpt>
      <trkpt lat="46.18549" lon="2.42379">
        <ele>326</ele>
        <time>2016-04-05T13:02:31Z</time>
      </trkpt>
      <trkpt lat="46.18549" lon="2.42374">
        <ele>326</ele>
        <time>2016-04-05T13:02:34Z</time>
      </trkpt>
      <trkpt lat="46.18549" lon="2.42368">
        <ele>326</ele>
        <time>2016-04-05T13:02:37Z</time>
      </trkpt>
      <trkpt lat="46.1855" lon="2.42362">
        <ele>326</ele>
        <time>2016-04-05T13:02:40Z</time>
      </trkpt>
      <trkpt lat="46.1855" lon="2.42356">
        <ele>326</ele>
        <time>2016-04-05T13:02:43Z</time>
      </trkpt>
      <trkpt lat="46.18551" lon="2.42351">
        <ele>327</ele>
        <time>2016-04-05T13:02:46Z</time>
      </trkpt>
      <trkpt lat="46.18551" lon="2.42345">
        <ele>327</ele>
        <time>2016-04-05T13:02:49Z</time>
      </trkpt>
      <trkpt lat="46.18551" lon="2.42339">
        <ele>327</ele>
        <time>2016-04-05T13:02:52Z</time>
      </trkpt>
      <trkpt lat="46.18552" lon="2.42333">
        <ele>328</ele>
        <time>2016-04-05T13:02:55Z</time>
      </trkpt>
      <trkpt lat="46.18552" lon="2.42327">
        <ele>329</ele>
        <time>2016-04-05T13:02:58Z</time>
      </trkpt>
      <trkpt lat="46.18552" lon="2.42321">
        <ele>329</ele>
        <time>2016-04-05T13:03:01Z</time>
      </trkpt>
      <trkpt lat="46.18552" lon="2.42315">
        <ele>329</ele>
        <time>2016-04-05T13:03:04Z</time>
      </trkpt>
      <trkpt lat="46.18552" lon="2.42309">
        <ele>329</ele>
        <time>2016-04-05T13:03:07Z</time>
      </trkpt>
      <trkpt lat="46.18552" lon="2.42303">
        <ele>329</ele>
        <time>2016-04-05T13:03:10Z</time>
      </trkpt>
      <trkpt lat="46.18552" lon="2.42297">
        <ele>329</ele>
        <time>2016-04-05T13:03:13Z</time>
      </trkpt>
      <trkpt lat="46.18552" lon="2.42291">
        <ele>330</ele>
        <time>2016-04-05T13:03:16Z</time>
      </trkpt>
      <trkpt lat="46.18552" lon="2.42285">
        <ele>330</ele>
        <time>2016-04-05T13:03:19Z</time>
      </trkpt>
      <trkpt lat="46.18552" lon="2.42279">
        <ele>330</ele>
        <time>2016-04-05T13:03:22Z</time>
      </trkpt>
      <trkpt lat="46.18553" lon="2.42273">
        <ele>330</ele>
        <time>2016-04-05T13:03:25Z</time>
      </trkpt>
      <trkpt lat="46.18553" lon="2.42267">
        <ele>330</ele>
        <time>2016-04-05T13:03:28Z</time>
      </trkpt>
      <trkpt lat="46.18552" lon="2.42261">
        <ele>330</ele>
        <time>2016-04-05T13:03:31Z</time>
      </trkpt>
      <trkpt lat="46.18553" lon="2.42255">
        <ele>330</ele>
        <time>2016-04-05T13:03:34Z</time>
      </trkpt>
      <trkpt lat="46.18552" lon="2.42249">
        <ele>330</ele>
        <time>2016-04-05T13:03:37Z</time>
      </trkpt>
      <trkpt lat="46.18553" lon="2.42243">
        <ele>330</ele>
        <time>2016-04-05T13:03:40Z</time>
      </trkpt>
      <trkpt lat="46.18553" lon="2.42237">
        <ele>330</ele>
        <time>2016-04-05T13:03:43Z</time>
      </trkpt>
      <trkpt lat="46.18554" lon="2.42231">
        <ele>330</ele>
        <time>2016-04-05T13:03:46Z</time>
      </trkpt>
      <trkpt lat="46.18554" lon="2.42225">
        <ele>330</ele>
        <time>2016-04-05T13:03:49Z</time>
      </trkpt>
      <trkpt lat="46.18554" lon="2.42218">
        <ele>330</ele>
        <time>2016-04-05T13:03:52Z</time>
      </trkpt>
      <trkpt lat="46.18554" lon="2.42212">
        <ele>330</ele>
        <time>2016-04-05T13:03:55Z</time>
      </trkpt>
      <trkpt lat="46.18555" lon="2.42206">
        <ele>330</ele>
        <time>2016-04-05T13:03:58Z</time>
      </trkpt>
      <trkpt lat="46.18555" lon="2.42199">
        <ele>330</ele>
        <time>2016-04-05T13:04:01Z</time>
      </trkpt>
      <trkpt lat="46.18555" lon="2.42193">
        <ele>330</ele>
        <time>2016-04-05T13:04:04Z</time>
      </trkpt>
      <trkpt lat="46.18555" lon="2.42187">
        <ele>330</ele>
        <time>2016-04-05T13:04:07Z</time>
      </trkpt>
      <trkpt lat="46.18556" lon="2.42181">
        <ele>330</ele>
        <time>2016-04-05T13:04:10Z</time>
      </trkpt>
      <trkpt lat="46.18556" lon="2.42175">
        <ele>330</ele>
        <time>2016-04-05T13:04:13Z</time>
      </trkpt>
      <trkpt lat="46.18557" lon="2.42168">
        <ele>330</ele>
        <time>2016-04-05T13:04:16Z</time>
      </trkpt>
      <trkpt lat="46.18557" lon="2.42162">
        <ele>330</ele>
        <time>2016-04-05T13:04:19Z</time>
      </trkpt>
      <trkpt lat="46.18557" lon="2.42157">
        <ele>330</ele>
        <time>2016-04-05T13:04:22Z</time>
      </trkpt>
      <trkpt lat="46.18557" lon="2.42151">
        <ele>330</ele>
        <time>2016-04-05T13:04:25Z</time>
      </trkpt>
      <trkpt lat="46.18558" lon="2.42144">
        <ele>330</ele>
        <time>2016-04-05T13:04:28Z</time>
      </trkpt>
      <trkpt lat="46.18559" lon="2.42138">
        <ele>330</ele>
        <time>2016-04-05T13:04:31Z</time>
      </trkpt>
      <trkpt lat="46.18559" lon="2.42132">
        <ele>330</ele>
        <time>2016-04-05T13:04:34Z</time>
      </trkpt>
      <trkpt lat="46.1856" lon="2.42126">
        <ele>330</ele>
        <time>2016-04-05T13:04:37Z</time>
      </trkpt>
      <trkpt lat="46.1856" lon="2.42119">
        <ele>330</ele>
        <time>2016-04-05T13:04:40Z</time>
      </trkpt>
      <trkpt lat="46.18561" lon="2.42113">
        <ele>330</ele>
        <time>2016-04-05T13:04:43Z</time>
      </trkpt>
      <trkpt lat="46.18562" lon="2.42107">
        <ele>330</ele>
        <time>2016-04-05T13:04:46Z</time>
      </trkpt>
      <trkpt lat="46.18562" lon="2.42101">
        <ele>330</ele>
        <time>2016-04-05T13:04:49Z</time>
      </trkpt>
      <trkpt lat="46.18563" lon="2.42094">
        <ele>330</ele>
        <time>2016-04-05T13:04:52Z</time>
      </trkpt>
      <trkpt lat="46.18564" lon="2.42088">
        <ele>330</ele>
        <time>2016-04-05T13:04:56Z</time>
      </trkpt>
      <trkpt lat="46.18565" lon="2.4208">
        <ele>330</ele>
        <time>2016-04-05T13:04:59Z</time>
      </trkpt>
      <trkpt lat="46.18565" lon="2.42074">
        <ele>330</ele>
        <time>2016-04-05T13:05:02Z</time>
      </trkpt>
      <trkpt lat="46.18565" lon="2.42068">
        <ele>330</ele>
        <time>2016-04-05T13:05:05Z</time>
      </trkpt>
      <trkpt lat="46.18567" lon="2.42061">
        <ele>330</ele>
        <time>2016-04-05T13:05:08Z</time>
      </trkpt>
      <trkpt lat="46.18567" lon="2.42056">
        <ele>330</ele>
        <time>2016-04-05T13:05:11Z</time>
      </trkpt>
      <trkpt lat="46.18567" lon="2.4205">
        <ele>330</ele>
        <time>2016-04-05T13:05:14Z</time>
      </trkpt>
      <trkpt lat="46.18568" lon="2.42043">
        <ele>330</ele>
        <time>2016-04-05T13:05:17Z</time>
      </trkpt>
      <trkpt lat="46.18568" lon="2.42038">
        <ele>330</ele>
        <time>2016-04-05T13:05:20Z</time>
      </trkpt>
      <trkpt lat="46.18568" lon="2.42032">
        <ele>330</ele>
        <time>2016-04-05T13:05:23Z</time>
      </trkpt>
      <trkpt lat="46.18569" lon="2.42025">
        <ele>330</ele>
        <time>2016-04-05T13:05:26Z</time>
      </trkpt>
      <trkpt lat="46.1857" lon="2.42019">
        <ele>330</ele>
        <time>2016-04-05T13:05:29Z</time>
      </trkpt>
      <trkpt lat="46.18571" lon="2.42013">
        <ele>330</ele>
        <time>2016-04-05T13:05:32Z</time>
      </trkpt>
      <trkpt lat="46.18571" lon="2.42007">
        <ele>330</ele>
        <time>2016-04-05T13:05:35Z</time>
      </trkpt>
      <trkpt lat="46.18572" lon="2.42001">
        <ele>330</ele>
        <time>2016-04-05T13:05:38Z</time>
      </trkpt>
      <trkpt lat="46.18573" lon="2.41995">
        <ele>330</ele>
        <time>2016-04-05T13:05:41Z</time>
      </trkpt>
      <trkpt lat="46.18574" lon="2.41989">
        <ele>330</ele>
        <time>2016-04-05T13:05:44Z</time>
      </trkpt>
      <trkpt lat="46.18576" lon="2.41983">
        <ele>330</ele>
        <time>2016-04-05T13:05:47Z</time>
      </trkpt>
      <trkpt lat="46.18577" lon="2.41977">
        <ele>330</ele>
        <time>2016-04-05T13:05:50Z</time>
      </trkpt>
      <trkpt lat="46.18579" lon="2.41971">
        <ele>330</ele>
        <time>2016-04-05T13:05:53Z</time>
      </trkpt>
      <trkpt lat="46.1858" lon="2.41965">
        <ele>330</ele>
        <time>2016-04-05T13:05:56Z</time>
      </trkpt>
      <trkpt lat="46.18581" lon="2.4196">
        <ele>330</ele>
        <time>2016-04-05T13:05:59Z</time>
      </trkpt>
      <trkpt lat="46.18582" lon="2.41955">
        <ele>330</ele>
        <time>2016-04-05T13:06:02Z</time>
      </trkpt>
      <trkpt lat="46.18583" lon="2.41949">
        <ele>330</ele>
        <time>2016-04-05T13:06:05Z</time>
      </trkpt>
      <trkpt lat="46.18585" lon="2.41943">
        <ele>330</ele>
        <time>2016-04-05T13:06:08Z</time>
      </trkpt>
      <trkpt lat="46.18587" lon="2.41937">
        <ele>330</ele>
        <time>2016-04-05T13:06:11Z</time>
      </trkpt>
      <trkpt lat="46.18591" lon="2.41931">
        <ele>330</ele>
        <time>2016-04-05T13:06:15Z</time>
      </trkpt>
      <trkpt lat="46.18593" lon="2.41926">
        <ele>330</ele>
        <time>2016-04-05T13:06:18Z</time>
      </trkpt>
      <trkpt lat="46.18595" lon="2.4192">
        <ele>330</ele>
        <time>2016-04-05T13:06:21Z</time>
      </trkpt>
      <trkpt lat="46.18596" lon="2.41914">
        <ele>330</ele>
        <time>2016-04-05T13:06:24Z</time>
      </trkpt>
      <trkpt lat="46.18597" lon="2.41909">
        <ele>330</ele>
        <time>2016-04-05T13:06:27Z</time>
      </trkpt>
      <trkpt lat="46.18599" lon="2.41902">
        <ele>330</ele>
        <time>2016-04-05T13:06:30Z</time>
      </trkpt>
      <trkpt lat="46.186" lon="2.41896">
        <ele>330</ele>
        <time>2016-04-05T13:06:33Z</time>
      </trkpt>
      <trkpt lat="46.18602" lon="2.4189">
        <ele>330</ele>
        <time>2016-04-05T13:06:36Z</time>
      </trkpt>
      <trkpt lat="46.18604" lon="2.41884">
        <ele>330</ele>
        <time>2016-04-05T13:06:39Z</time>
      </trkpt>
      <trkpt lat="46.18604" lon="2.41878">
        <ele>330</ele>
        <time>2016-04-05T13:06:42Z</time>
      </trkpt>
      <trkpt lat="46.18605" lon="2.41872">
        <ele>330</ele>
        <time>2016-04-05T13:06:45Z</time>
      </trkpt>
      <trkpt lat="46.18606" lon="2.41865">
        <ele>330</ele>
        <time>2016-04-05T13:06:48Z</time>
      </trkpt>
      <trkpt lat="46.18606" lon="2.41858">
        <ele>330</ele>
        <time>2016-04-05T13:06:51Z</time>
      </trkpt>
      <trkpt lat="46.18607" lon="2.41851">
        <ele>330</ele>
        <time>2016-04-05T13:06:54Z</time>
      </trkpt>
      <trkpt lat="46.18607" lon="2.41845">
        <ele>330</ele>
        <time>2016-04-05T13:06:57Z</time>
      </trkpt>
      <trkpt lat="46.18607" lon="2.41838">
        <ele>330</ele>
        <time>2016-04-05T13:07:00Z</time>
      </trkpt>
      <trkpt lat="46.18607" lon="2.41832">
        <ele>330</ele>
        <time>2016-04-05T13:07:03Z</time>
      </trkpt>
      <trkpt lat="46.18607" lon="2.41825">
        <ele>330</ele>
        <time>2016-04-05T13:07:06Z</time>
      </trkpt>
      <trkpt lat="46.18607" lon="2.41819">
        <ele>330</ele>
        <time>2016-04-05T13:07:09Z</time>
      </trkpt>
      <trkpt lat="46.18607" lon="2.41813">
        <ele>330</ele>
        <time>2016-04-05T13:07:12Z</time>
      </trkpt>
      <trkpt lat="46.18607" lon="2.41807">
        <ele>330</ele>
        <time>2016-04-05T13:07:15Z</time>
      </trkpt>
      <trkpt lat="46.18607" lon="2.41801">
        <ele>330</ele>
        <time>2016-04-05T13:07:18Z</time>
      </trkpt>
      <trkpt lat="46.18607" lon="2.41795">
        <ele>330</ele>
        <time>2016-04-05T13:07:21Z</time>
      </trkpt>
      <trkpt lat="46.18607" lon="2.41788">
        <ele>330</ele>
        <time>2016-04-05T13:07:24Z</time>
      </trkpt>
      <trkpt lat="46.18607" lon="2.41781">
        <ele>330</ele>
        <time>2016-04-05T13:07:27Z</time>
      </trkpt>
      <trkpt lat="46.18607" lon="2.41775">
        <ele>330</ele>
        <time>2016-04-05T13:07:30Z</time>
      </trkpt>
      <trkpt lat="46.18607" lon="2.41769">
        <ele>330</ele>
        <time>2016-04-05T13:07:33Z</time>
      </trkpt>
      <trkpt lat="46.18607" lon="2.41763">
        <ele>330</ele>
        <time>2016-04-05T13:07:36Z</time>
      </trkpt>
      <trkpt lat="46.18607" lon="2.41756">
        <ele>330</ele>
        <time>2016-04-05T13:07:39Z</time>
      </trkpt>
      <trkpt lat="46.18606" lon="2.4175">
        <ele>330</ele>
        <time>2016-04-05T13:07:42Z</time>
      </trkpt>
      <trkpt lat="46.18606" lon="2.41743">
        <ele>330</ele>
        <time>2016-04-05T13:07:45Z</time>
      </trkpt>
      <trkpt lat="46.18606" lon="2.41737">
        <ele>330</ele>
        <time>2016-04-05T13:07:48Z</time>
      </trkpt>
      <trkpt lat="46.18606" lon="2.4173">
        <ele>330</ele>
        <time>2016-04-05T13:07:51Z</time>
      </trkpt>
      <trkpt lat="46.18606" lon="2.41725">
        <ele>330</ele>
        <time>2016-04-05T13:07:54Z</time>
      </trkpt>
      <trkpt lat="46.18606" lon="2.4172">
        <ele>330</ele>
        <time>2016-04-05T13:07:57Z</time>
      </trkpt>
      <trkpt lat="46.18605" lon="2.41715">
        <ele>330</ele>
        <time>2016-04-05T13:08:00Z</time>
      </trkpt>
      <trkpt lat="46.18605" lon="2.41709">
        <ele>330</ele>
        <time>2016-04-05T13:08:03Z</time>
      </trkpt>
      <trkpt lat="46.18605" lon="2.41703">
        <ele>330</ele>
        <time>2016-04-05T13:08:06Z</time>
      </trkpt>
      <trkpt lat="46.18605" lon="2.41695">
        <ele>330</ele>
        <time>2016-04-05T13:08:09Z</time>
      </trkpt>
      <trkpt lat="46.18605" lon="2.41689">
        <ele>330</ele>
        <time>2016-04-05T13:08:12Z</time>
      </trkpt>
      <trkpt lat="46.18605" lon="2.41683">
        <ele>330</ele>
        <time>2016-04-05T13:08:15Z</time>
      </trkpt>
      <trkpt lat="46.18605" lon="2.41677">
        <ele>330</ele>
        <time>2016-04-05T13:08:18Z</time>
      </trkpt>
      <trkpt lat="46.18605" lon="2.41672">
        <ele>329</ele>
        <time>2016-04-05T13:08:21Z</time>
      </trkpt>
      <trkpt lat="46.18605" lon="2.41665">
        <ele>329</ele>
        <time>2016-04-05T13:08:24Z</time>
      </trkpt>
      <trkpt lat="46.18604" lon="2.41658">
        <ele>329</ele>
        <time>2016-04-05T13:08:27Z</time>
      </trkpt>
      <trkpt lat="46.18604" lon="2.41653">
        <ele>329</ele>
        <time>2016-04-05T13:08:30Z</time>
      </trkpt>
      <trkpt lat="46.18604" lon="2.41646">
        <ele>329</ele>
        <time>2016-04-05T13:08:33Z</time>
      </trkpt>
      <trkpt lat="46.18604" lon="2.41639">
        <ele>329</ele>
        <time>2016-04-05T13:08:36Z</time>
      </trkpt>
      <trkpt lat="46.18604" lon="2.41633">
        <ele>329</ele>
        <time>2016-04-05T13:08:39Z</time>
      </trkpt>
      <trkpt lat="46.18603" lon="2.41627">
        <ele>329</ele>
        <time>2016-04-05T13:08:42Z</time>
      </trkpt>
      <trkpt lat="46.18603" lon="2.41621">
        <ele>329</ele>
        <time>2016-04-05T13:08:45Z</time>
      </trkpt>
      <trkpt lat="46.18603" lon="2.41614">
        <ele>329</ele>
        <time>2016-04-05T13:08:48Z</time>
      </trkpt>
      <trkpt lat="46.18604" lon="2.41607">
        <ele>329</ele>
        <time>2016-04-05T13:08:51Z</time>
      </trkpt>
      <trkpt lat="46.18604" lon="2.41601">
        <ele>329</ele>
        <time>2016-04-05T13:08:54Z</time>
      </trkpt>
      <trkpt lat="46.18602" lon="2.41595">
        <ele>329</ele>
        <time>2016-04-05T13:08:57Z</time>
      </trkpt>
      <trkpt lat="46.18602" lon="2.4159">
        <ele>329</ele>
        <time>2016-04-05T13:09:00Z</time>
      </trkpt>
      <trkpt lat="46.18602" lon="2.41583">
        <ele>329</ele>
        <time>2016-04-05T13:09:03Z</time>
      </trkpt>
      <trkpt lat="46.18602" lon="2.41577">
        <ele>329</ele>
        <time>2016-04-05T13:09:06Z</time>
      </trkpt>
      <trkpt lat="46.18602" lon="2.41571">
        <ele>329</ele>
        <time>2016-04-05T13:09:09Z</time>
      </trkpt>
      <trkpt lat="46.18601" lon="2.41565">
        <ele>329</ele>
        <time>2016-04-05T13:09:12Z</time>
      </trkpt>
      <trkpt lat="46.18601" lon="2.41558">
        <ele>329</ele>
        <time>2016-04-05T13:09:15Z</time>
      </trkpt>
      <trkpt lat="46.18601" lon="2.41551">
        <ele>329</ele>
        <time>2016-04-05T13:09:18Z</time>
      </trkpt>
      <trkpt lat="46.18602" lon="2.41545">
        <ele>329</ele>
        <time>2016-04-05T13:09:21Z</time>
      </trkpt>
      <trkpt lat="46.18602" lon="2.41538">
        <ele>329</ele>
        <time>2016-04-05T13:09:24Z</time>
      </trkpt>
      <trkpt lat="46.18603" lon="2.41532">
        <ele>329</ele>
        <time>2016-04-05T13:09:27Z</time>
      </trkpt>
      <trkpt lat="46.18604" lon="2.41525">
        <ele>329</ele>
        <time>2016-04-05T13:09:30Z</time>
      </trkpt>
      <trkpt lat="46.18605" lon="2.41519">
        <ele>329</ele>
        <time>2016-04-05T13:09:33Z</time>
      </trkpt>
      <trkpt lat="46.18605" lon="2.41513">
        <ele>329</ele>
        <time>2016-04-05T13:09:36Z</time>
      </trkpt>
      <trkpt lat="46.18606" lon="2.41507">
        <ele>329</ele>
        <time>2016-04-05T13:09:39Z</time>
      </trkpt>
      <trkpt lat="46.18606" lon="2.41501">
        <ele>329</ele>
        <time>2016-04-05T13:09:42Z</time>
      </trkpt>
      <trkpt lat="46.18607" lon="2.41494">
        <ele>329</ele>
        <time>2016-04-05T13:09:45Z</time>
      </trkpt>
      <trkpt lat="46.18607" lon="2.41488">
        <ele>329</ele>
        <time>2016-04-05T13:09:48Z</time>
      </trkpt>
      <trkpt lat="46.18608" lon="2.41482">
        <ele>329</ele>
        <time>2016-04-05T13:09:51Z</time>
      </trkpt>
      <trkpt lat="46.18608" lon="2.41475">
        <ele>329</ele>
        <time>2016-04-05T13:09:54Z</time>
      </trkpt>
      <trkpt lat="46.18609" lon="2.41469">
        <ele>329</ele>
        <time>2016-04-05T13:09:57Z</time>
      </trkpt>
      <trkpt lat="46.1861" lon="2.41463">
        <ele>329</ele>
        <time>2016-04-05T13:10:00Z</time>
      </trkpt>
      <trkpt lat="46.18609" lon="2.41457">
        <ele>329</ele>
        <time>2016-04-05T13:10:03Z</time>
      </trkpt>
      <trkpt lat="46.1861" lon="2.41451">
        <ele>329</ele>
        <time>2016-04-05T13:10:06Z</time>
      </trkpt>
      <trkpt lat="46.1861" lon="2.41445">
        <ele>329</ele>
        <time>2016-04-05T13:10:09Z</time>
      </trkpt>
      <trkpt lat="46.1861" lon="2.4144">
        <ele>329</ele>
        <time>2016-04-05T13:10:12Z</time>
      </trkpt>
      <trkpt lat="46.1861" lon="2.41434">
        <ele>329</ele>
        <time>2016-04-05T13:10:15Z</time>
      </trkpt>
      <trkpt lat="46.1861" lon="2.41428">
        <ele>329</ele>
        <time>2016-04-05T13:10:18Z</time>
      </trkpt>
      <trkpt lat="46.18609" lon="2.41422">
        <ele>329</ele>
        <time>2016-04-05T13:10:21Z</time>
      </trkpt>
      <trkpt lat="46.18609" lon="2.41416">
        <ele>329</ele>
        <time>2016-04-05T13:10:24Z</time>
      </trkpt>
      <trkpt lat="46.18608" lon="2.4141">
        <ele>329</ele>
        <time>2016-04-05T13:10:27Z</time>
      </trkpt>
      <trkpt lat="46.18607" lon="2.41404">
        <ele>329</ele>
        <time>2016-04-05T13:10:30Z</time>
      </trkpt>
      <trkpt lat="46.18607" lon="2.41399">
        <ele>329</ele>
        <time>2016-04-05T13:10:33Z</time>
      </trkpt>
      <trkpt lat="46.18606" lon="2.41393">
        <ele>329</ele>
        <time>2016-04-05T13:10:36Z</time>
      </trkpt>
      <trkpt lat="46.18605" lon="2.41387">
        <ele>329</ele>
        <time>2016-04-05T13:10:39Z</time>
      </trkpt>
      <trkpt lat="46.18604" lon="2.41382">
        <ele>329</ele>
        <time>2016-04-05T13:10:42Z</time>
      </trkpt>
      <trkpt lat="46.18602" lon="2.41376">
        <ele>329</ele>
        <time>2016-04-05T13:10:45Z</time>
      </trkpt>
      <trkpt lat="46.18601" lon="2.41371">
        <ele>329</ele>
        <time>2016-04-05T13:10:48Z</time>
      </trkpt>
      <trkpt lat="46.186" lon="2.41365">
        <ele>329</ele>
        <time>2016-04-05T13:10:51Z</time>
      </trkpt>
      <trkpt lat="46.18599" lon="2.41359">
        <ele>329</ele>
        <time>2016-04-05T13:10:54Z</time>
      </trkpt>
      <trkpt lat="46.18597" lon="2.41353">
        <ele>329</ele>
        <time>2016-04-05T13:10:57Z</time>
      </trkpt>
      <trkpt lat="46.18595" lon="2.41348">
        <ele>329</ele>
        <time>2016-04-05T13:11:00Z</time>
      </trkpt>
      <trkpt lat="46.18593" lon="2.41343">
        <ele>329</ele>
        <time>2016-04-05T13:11:03Z</time>
      </trkpt>
      <trkpt lat="46.18591" lon="2.41337">
        <ele>329</ele>
        <time>2016-04-05T13:11:06Z</time>
      </trkpt>
      <trkpt lat="46.18589" lon="2.41332">
        <ele>329</ele>
        <time>2016-04-05T13:11:09Z</time>
      </trkpt>
      <trkpt lat="46.18587" lon="2.41327">
        <ele>329</ele>
        <time>2016-04-05T13:11:12Z</time>
      </trkpt>
      <trkpt lat="46.18584" lon="2.41321">
        <ele>329</ele>
        <time>2016-04-05T13:11:16Z</time>
      </trkpt>
      <trkpt lat="46.18581" lon="2.41316">
        <ele>329</ele>
        <time>2016-04-05T13:11:19Z</time>
      </trkpt>
      <trkpt lat="46.1858" lon="2.41312">
        <ele>329</ele>
        <time>2016-04-05T13:11:22Z</time>
      </trkpt>
      <trkpt lat="46.18577" lon="2.41307">
        <ele>329</ele>
        <time>2016-04-05T13:11:26Z</time>
      </trkpt>
      <trkpt lat="46.18574" lon="2.41301">
        <ele>329</ele>
        <time>2016-04-05T13:11:30Z</time>
      </trkpt>
      <trkpt lat="46.18572" lon="2.41296">
        <ele>329</ele>
        <time>2016-04-05T13:11:33Z</time>
      </trkpt>
      <trkpt lat="46.18569" lon="2.4129">
        <ele>329</ele>
        <time>2016-04-05T13:11:37Z</time>
      </trkpt>
      <trkpt lat="46.18567" lon="2.41285">
        <ele>329</ele>
        <time>2016-04-05T13:11:40Z</time>
      </trkpt>
      <trkpt lat="46.18564" lon="2.41281">
        <ele>329</ele>
        <time>2016-04-05T13:11:43Z</time>
      </trkpt>
      <trkpt lat="46.18562" lon="2.41276">
        <ele>329</ele>
        <time>2016-04-05T13:11:46Z</time>
      </trkpt>
      <trkpt lat="46.1856" lon="2.4127">
        <ele>329</ele>
        <time>2016-04-05T13:11:49Z</time>
      </trkpt>
      <trkpt lat="46.18557" lon="2.41265">
        <ele>329</ele>
        <time>2016-04-05T13:11:52Z</time>
      </trkpt>
      <trkpt lat="46.18555" lon="2.4126">
        <ele>329</ele>
        <time>2016-04-05T13:11:55Z</time>
      </trkpt>
      <trkpt lat="46.18552" lon="2.41254">
        <ele>329</ele>
        <time>2016-04-05T13:11:59Z</time>
      </trkpt>
      <trkpt lat="46.18549" lon="2.4125">
        <ele>329</ele>
        <time>2016-04-05T13:12:02Z</time>
      </trkpt>
      <trkpt lat="46.18546" lon="2.41245">
        <ele>329</ele>
        <time>2016-04-05T13:12:05Z</time>
      </trkpt>
      <trkpt lat="46.18544" lon="2.4124">
        <ele>329</ele>
        <time>2016-04-05T13:12:08Z</time>
      </trkpt>
      <trkpt lat="46.18541" lon="2.41235">
        <ele>329</ele>
        <time>2016-04-05T13:12:11Z</time>
      </trkpt>
      <trkpt lat="46.18539" lon="2.4123">
        <ele>329</ele>
        <time>2016-04-05T13:12:14Z</time>
      </trkpt>
      <trkpt lat="46.18536" lon="2.41225">
        <ele>329</ele>
        <time>2016-04-05T13:12:17Z</time>
      </trkpt>
      <trkpt lat="46.18533" lon="2.41221">
        <ele>329</ele>
        <time>2016-04-05T13:12:20Z</time>
      </trkpt>
      <trkpt lat="46.18531" lon="2.41216">
        <ele>329</ele>
        <time>2016-04-05T13:12:23Z</time>
      </trkpt>
      <trkpt lat="46.18528" lon="2.41211">
        <ele>329</ele>
        <time>2016-04-05T13:12:26Z</time>
      </trkpt>
      <trkpt lat="46.18525" lon="2.41207">
        <ele>329</ele>
        <time>2016-04-05T13:12:29Z</time>
      </trkpt>
      <trkpt lat="46.18523" lon="2.41202">
        <ele>329</ele>
        <time>2016-04-05T13:12:32Z</time>
      </trkpt>
      <trkpt lat="46.1852" lon="2.41198">
        <ele>329</ele>
        <time>2016-04-05T13:12:35Z</time>
      </trkpt>
      <trkpt lat="46.18518" lon="2.41193">
        <ele>329</ele>
        <time>2016-04-05T13:12:38Z</time>
      </trkpt>
      <trkpt lat="46.18515" lon="2.41188">
        <ele>329</ele>
        <time>2016-04-05T13:12:41Z</time>
      </trkpt>
      <trkpt lat="46.18512" lon="2.41183">
        <ele>329</ele>
        <time>2016-04-05T13:12:44Z</time>
      </trkpt>
      <trkpt lat="46.1851" lon="2.41178">
        <ele>329</ele>
        <time>2016-04-05T13:12:47Z</time>
      </trkpt>
      <trkpt lat="46.18507" lon="2.41174">
        <ele>329</ele>
        <time>2016-04-05T13:12:50Z</time>
      </trkpt>
      <trkpt lat="46.18504" lon="2.4117">
        <ele>329</ele>
        <time>2016-04-05T13:12:53Z</time>
      </trkpt>
      <trkpt lat="46.18501" lon="2.41165">
        <ele>329</ele>
        <time>2016-04-05T13:12:56Z</time>
      </trkpt>
      <trkpt lat="46.18499" lon="2.41161">
        <ele>329</ele>
        <time>2016-04-05T13:12:59Z</time>
      </trkpt>
      <trkpt lat="46.18496" lon="2.41156">
        <ele>329</ele>
        <time>2016-04-05T13:13:02Z</time>
      </trkpt>
      <trkpt lat="46.18494" lon="2.41152">
        <ele>329</ele>
        <time>2016-04-05T13:13:05Z</time>
      </trkpt>
      <trkpt lat="46.18491" lon="2.41147">
        <ele>329</ele>
        <time>2016-04-05T13:13:08Z</time>
      </trkpt>
      <trkpt lat="46.18489" lon="2.41142">
        <ele>329</ele>
        <time>2016-04-05T13:13:11Z</time>
      </trkpt>
      <trkpt lat="46.18485" lon="2.41137">
        <ele>329</ele>
        <time>2016-04-05T13:13:15Z</time>
      </trkpt>
      <trkpt lat="46.18483" lon="2.41132">
        <ele>329</ele>
        <time>2016-04-05T13:13:18Z</time>
      </trkpt>
      <trkpt lat="46.1848" lon="2.41128">
        <ele>329</ele>
        <time>2016-04-05T13:13:21Z</time>
      </trkpt>
      <trkpt lat="46.18478" lon="2.41124">
        <ele>329</ele>
        <time>2016-04-05T13:13:24Z</time>
      </trkpt>
      <trkpt lat="46.18475" lon="2.41118">
        <ele>329</ele>
        <time>2016-04-05T13:13:27Z</time>
      </trkpt>
      <trkpt lat="46.18473" lon="2.41114">
        <ele>329</ele>
        <time>2016-04-05T13:13:30Z</time>
      </trkpt>
      <trkpt lat="46.1847" lon="2.41109">
        <ele>329</ele>
        <time>2016-04-05T13:13:33Z</time>
      </trkpt>
      <trkpt lat="46.18468" lon="2.41104">
        <ele>329</ele>
        <time>2016-04-05T13:13:36Z</time>
      </trkpt>
      <trkpt lat="46.18465" lon="2.41099">
        <ele>330</ele>
        <time>2016-04-05T13:13:40Z</time>
      </trkpt>
      <trkpt lat="46.18461" lon="2.41094">
        <ele>330</ele>
        <time>2016-04-05T13:13:44Z</time>
      </trkpt>
      <trkpt lat="46.18458" lon="2.4109">
        <ele>330</ele>
        <time>2016-04-05T13:13:47Z</time>
      </trkpt>
      <trkpt lat="46.18455" lon="2.41085">
        <ele>330</ele>
        <time>2016-04-05T13:13:51Z</time>
      </trkpt>
      <trkpt lat="46.18452" lon="2.4108">
        <ele>330</ele>
        <time>2016-04-05T13:13:54Z</time>
      </trkpt>
      <trkpt lat="46.18449" lon="2.41075">
        <ele>332</ele>
        <time>2016-04-05T13:13:57Z</time>
      </trkpt>
      <trkpt lat="46.18447" lon="2.41071">
        <ele>332</ele>
        <time>2016-04-05T13:14:00Z</time>
      </trkpt>
      <trkpt lat="46.18444" lon="2.41067">
        <ele>333</ele>
        <time>2016-04-05T13:14:03Z</time>
      </trkpt>
      <trkpt lat="46.1844" lon="2.41063">
        <ele>333</ele>
        <time>2016-04-05T13:14:06Z</time>
      </trkpt>
      <trkpt lat="46.18437" lon="2.4106">
        <ele>333</ele>
        <time>2016-04-05T13:14:09Z</time>
      </trkpt>
      <trkpt lat="46.18434" lon="2.41057">
        <ele>333</ele>
        <time>2016-04-05T13:14:12Z</time>
      </trkpt>
      <trkpt lat="46.1843" lon="2.41054">
        <ele>334</ele>
        <time>2016-04-05T13:14:15Z</time>
      </trkpt>
      <trkpt lat="46.18427" lon="2.41052">
        <ele>334</ele>
        <time>2016-04-05T13:14:18Z</time>
      </trkpt>
      <trkpt lat="46.18424" lon="2.4105">
        <ele>334</ele>
        <time>2016-04-05T13:14:21Z</time>
      </trkpt>
      <trkpt lat="46.18419" lon="2.41045">
        <ele>334</ele>
        <time>2016-04-05T13:14:25Z</time>
      </trkpt>
      <trkpt lat="46.18416" lon="2.41042">
        <ele>334</ele>
        <time>2016-04-05T13:14:28Z</time>
      </trkpt>
      <trkpt lat="46.18412" lon="2.41039">
        <ele>334</ele>
        <time>2016-04-05T13:14:31Z</time>
      </trkpt>
      <trkpt lat="46.18409" lon="2.41035">
        <ele>334</ele>
        <time>2016-04-05T13:14:34Z</time>
      </trkpt>
      <trkpt lat="46.18407" lon="2.41029">
        <ele>335</ele>
        <time>2016-04-05T13:14:37Z</time>
      </trkpt>
      <trkpt lat="46.18404" lon="2.41024">
        <ele>336</ele>
        <time>2016-04-05T13:14:40Z</time>
      </trkpt>
      <trkpt lat="46.18401" lon="2.41019">
        <ele>336</ele>
        <time>2016-04-05T13:14:43Z</time>
      </trkpt>
      <trkpt lat="46.18399" lon="2.41014">
        <ele>336</ele>
        <time>2016-04-05T13:14:46Z</time>
      </trkpt>
      <trkpt lat="46.18397" lon="2.41009">
        <ele>337</ele>
        <time>2016-04-05T13:14:49Z</time>
      </trkpt>
      <trkpt lat="46.18394" lon="2.41004">
        <ele>337</ele>
        <time>2016-04-05T13:14:52Z</time>
      </trkpt>
      <trkpt lat="46.18392" lon="2.40999">
        <ele>337</ele>
        <time>2016-04-05T13:14:55Z</time>
      </trkpt>
      <trkpt lat="46.1839" lon="2.40993">
        <ele>337</ele>
        <time>2016-04-05T13:14:58Z</time>
      </trkpt>
      <trkpt lat="46.18387" lon="2.40988">
        <ele>337</ele>
        <time>2016-04-05T13:15:01Z</time>
      </trkpt>
      <trkpt lat="46.18385" lon="2.40983">
        <ele>337</ele>
        <time>2016-04-05T13:15:04Z</time>
      </trkpt>
      <trkpt lat="46.18383" lon="2.40977">
        <ele>337</ele>
        <time>2016-04-05T13:15:07Z</time>
      </trkpt>
      <trkpt lat="46.1838" lon="2.40972">
        <ele>337</ele>
        <time>2016-04-05T13:15:10Z</time>
      </trkpt>
      <trkpt lat="46.18377" lon="2.40967">
        <ele>337</ele>
        <time>2016-04-05T13:15:13Z</time>
      </trkpt>
      <trkpt lat="46.18374" lon="2.40962">
        <ele>337</ele>
        <time>2016-04-05T13:15:16Z</time>
      </trkpt>
      <trkpt lat="46.1837" lon="2.40957">
        <ele>337</ele>
        <time>2016-04-05T13:15:19Z</time>
      </trkpt>
      <trkpt lat="46.18368" lon="2.40951">
        <ele>337</ele>
        <time>2016-04-05T13:15:22Z</time>
      </trkpt>
      <trkpt lat="46.18365" lon="2.40946">
        <ele>337</ele>
        <time>2016-04-05T13:15:25Z</time>
      </trkpt>
      <trkpt lat="46.18363" lon="2.40941">
        <ele>337</ele>
        <time>2016-04-05T13:15:28Z</time>
      </trkpt>
      <trkpt lat="46.18361" lon="2.40936">
        <ele>337</ele>
        <time>2016-04-05T13:15:31Z</time>
      </trkpt>
      <trkpt lat="46.18359" lon="2.4093">
        <ele>337</ele>
        <time>2016-04-05T13:15:34Z</time>
      </trkpt>
      <trkpt lat="46.18356" lon="2.40924">
        <ele>337</ele>
        <time>2016-04-05T13:15:37Z</time>
      </trkpt>
      <trkpt lat="46.18354" lon="2.40919">
        <ele>337</ele>
        <time>2016-04-05T13:15:40Z</time>
      </trkpt>
      <trkpt lat="46.18352" lon="2.40914">
        <ele>337</ele>
        <time>2016-04-05T13:15:43Z</time>
      </trkpt>
      <trkpt lat="46.1835" lon="2.40908">
        <ele>337</ele>
        <time>2016-04-05T13:15:46Z</time>
      </trkpt>
      <trkpt lat="46.18348" lon="2.40903">
        <ele>337</ele>
        <time>2016-04-05T13:15:49Z</time>
      </trkpt>
      <trkpt lat="46.18346" lon="2.40898">
        <ele>337</ele>
        <time>2016-04-05T13:15:52Z</time>
      </trkpt>
      <trkpt lat="46.18344" lon="2.40893">
        <ele>337</ele>
        <time>2016-04-05T13:15:55Z</time>
      </trkpt>
      <trkpt lat="46.18343" lon="2.40888">
        <ele>337</ele>
        <time>2016-04-05T13:15:58Z</time>
      </trkpt>
      <trkpt lat="46.18341" lon="2.40883">
        <ele>337</ele>
        <time>2016-04-05T13:16:01Z</time>
      </trkpt>
      <trkpt lat="46.18339" lon="2.40878">
        <ele>337</ele>
        <time>2016-04-05T13:16:04Z</time>
      </trkpt>
      <trkpt lat="46.18337" lon="2.40872">
        <ele>337</ele>
        <time>2016-04-05T13:16:07Z</time>
      </trkpt>
      <trkpt lat="46.18336" lon="2.40866">
        <ele>336</ele>
        <time>2016-04-05T13:16:10Z</time>
      </trkpt>
      <trkpt lat="46.18334" lon="2.40862">
        <ele>334</ele>
        <time>2016-04-05T13:16:13Z</time>
      </trkpt>
      <trkpt lat="46.18333" lon="2.40856">
        <ele>332</ele>
        <time>2016-04-05T13:16:16Z</time>
      </trkpt>
      <trkpt lat="46.18331" lon="2.4085">
        <ele>331</ele>
        <time>2016-04-05T13:16:19Z</time>
      </trkpt>
      <trkpt lat="46.18329" lon="2.40845">
        <ele>330</ele>
        <time>2016-04-05T13:16:22Z</time>
      </trkpt>
      <trkpt lat="46.18328" lon="2.4084">
        <ele>329</ele>
        <time>2016-04-05T13:16:25Z</time>
      </trkpt>
      <trkpt lat="46.18326" lon="2.40835">
        <ele>327</ele>
        <time>2016-04-05T13:16:28Z</time>
      </trkpt>
      <trkpt lat="46.18324" lon="2.4083">
        <ele>326</ele>
        <time>2016-04-05T13:16:31Z</time>
      </trkpt>
      <trkpt lat="46.18323" lon="2.40826">
        <ele>325</ele>
        <time>2016-04-05T13:16:34Z</time>
      </trkpt>
      <trkpt lat="46.18321" lon="2.4082">
        <ele>324</ele>
        <time>2016-04-05T13:16:37Z</time>
      </trkpt>
      <trkpt lat="46.18319" lon="2.40815">
        <ele>323</ele>
        <time>2016-04-05T13:16:40Z</time>
      </trkpt>
      <trkpt lat="46.18317" lon="2.4081">
        <ele>321</ele>
        <time>2016-04-05T13:16:43Z</time>
      </trkpt>
      <trkpt lat="46.18315" lon="2.40806">
        <ele>320</ele>
        <time>2016-04-05T13:16:46Z</time>
      </trkpt>
      <trkpt lat="46.18313" lon="2.40801">
        <ele>319</ele>
        <time>2016-04-05T13:16:49Z</time>
      </trkpt>
      <trkpt lat="46.1831" lon="2.40794">
        <ele>319</ele>
        <time>2016-04-05T13:16:52Z</time>
      </trkpt>
      <trkpt lat="46.18307" lon="2.40787">
        <ele>319</ele>
        <time>2016-04-05T13:16:55Z</time>
      </trkpt>
      <trkpt lat="46.18304" lon="2.40779">
        <ele>319</ele>
        <time>2016-04-05T13:16:58Z</time>
      </trkpt>
      <trkpt lat="46.18302" lon="2.40772">
        <ele>320</ele>
        <time>2016-04-05T13:17:01Z</time>
      </trkpt>
      <trkpt lat="46.18298" lon="2.40767">
        <ele>321</ele>
        <time>2016-04-05T13:17:04Z</time>
      </trkpt>
      <trkpt lat="46.18295" lon="2.40763">
        <ele>322</ele>
        <time>2016-04-05T13:17:07Z</time>
      </trkpt>
      <trkpt lat="46.18291" lon="2.40757">
        <ele>322</ele>
        <time>2016-04-05T13:17:10Z</time>
      </trkpt>
      <trkpt lat="46.18287" lon="2.40753">
        <ele>322</ele>
        <time>2016-04-05T13:17:13Z</time>
      </trkpt>
      <trkpt lat="46.18284" lon="2.4075">
        <ele>322</ele>
        <time>2016-04-05T13:17:16Z</time>
      </trkpt>
      <trkpt lat="46.18281" lon="2.40747">
        <ele>322</ele>
        <time>2016-04-05T13:17:19Z</time>
      </trkpt>
      <trkpt lat="46.18277" lon="2.40743">
        <ele>323</ele>
        <time>2016-04-05T13:17:23Z</time>
      </trkpt>
      <trkpt lat="46.18273" lon="2.40738">
        <ele>325</ele>
        <time>2016-04-05T13:17:26Z</time>
      </trkpt>
      <trkpt lat="46.18269" lon="2.40738">
        <ele>326</ele>
        <time>2016-04-05T13:17:29Z</time>
      </trkpt>
      <trkpt lat="46.18269" lon="2.40739">
        <ele>327</ele>
        <time>2016-04-05T13:17:34Z</time>
      </trkpt>
      <trkpt lat="46.18272" lon="2.40738">
        <ele>327</ele>
        <time>2016-04-05T13:17:37Z</time>
      </trkpt>
      <trkpt lat="46.18275" lon="2.40739">
        <ele>328</ele>
        <time>2016-04-05T13:17:40Z</time>
      </trkpt>
      <trkpt lat="46.18277" lon="2.40741">
        <ele>329</ele>
        <time>2016-04-05T13:17:45Z</time>
      </trkpt>
      <trkpt lat="46.18278" lon="2.40743">
        <ele>330</ele>
        <time>2016-04-05T13:17:52Z</time>
      </trkpt>
      <trkpt lat="46.18275" lon="2.40741">
        <ele>331</ele>
        <time>2016-04-05T13:17:55Z</time>
      </trkpt>
      <trkpt lat="46.18272" lon="2.40738">
        <ele>332</ele>
        <time>2016-04-05T13:17:58Z</time>
      </trkpt>
      <trkpt lat="46.18269" lon="2.40735">
        <ele>333</ele>
        <time>2016-04-05T13:18:01Z</time>
      </trkpt>
      <trkpt lat="46.18266" lon="2.40738">
        <ele>334</ele>
        <time>2016-04-05T13:18:05Z</time>
      </trkpt>
      <trkpt lat="46.18262" lon="2.4074">
        <ele>334</ele>
        <time>2016-04-05T13:18:08Z</time>
      </trkpt>
      <trkpt lat="46.18259" lon="2.40745">
        <ele>334</ele>
        <time>2016-04-05T13:18:12Z</time>
      </trkpt>
      <trkpt lat="46.18256" lon="2.40749">
        <ele>334</ele>
        <time>2016-04-05T13:18:16Z</time>
      </trkpt>
      <trkpt lat="46.18253" lon="2.40754">
        <ele>334</ele>
        <time>2016-04-05T13:18:19Z</time>
      </trkpt>
      <trkpt lat="46.1825" lon="2.40754">
        <ele>334</ele>
        <time>2016-04-05T13:18:24Z</time>
      </trkpt>
      <trkpt lat="46.18248" lon="2.40752">
        <ele>334</ele>
        <time>2016-04-05T13:18:27Z</time>
      </trkpt>
      <trkpt lat="46.18247" lon="2.4075">
        <ele>333</ele>
        <time>2016-04-05T13:18:30Z</time>
      </trkpt>
      <trkpt lat="46.18248" lon="2.40745">
        <ele>332</ele>
        <time>2016-04-05T13:18:33Z</time>
      </trkpt>
      <trkpt lat="46.18251" lon="2.4074">
        <ele>332</ele>
        <time>2016-04-05T13:18:36Z</time>
      </trkpt>
      <trkpt lat="46.18254" lon="2.40734">
        <ele>332</ele>
        <time>2016-04-05T13:18:40Z</time>
      </trkpt>
      <trkpt lat="46.18256" lon="2.4073">
        <ele>332</ele>
        <time>2016-04-05T13:18:43Z</time>
      </trkpt>
      <trkpt lat="46.18259" lon="2.40725">
        <ele>332</ele>
        <time>2016-04-05T13:18:47Z</time>
      </trkpt>
      <trkpt lat="46.18261" lon="2.40721">
        <ele>332</ele>
        <time>2016-04-05T13:18:54Z</time>
      </trkpt>
      <trkpt lat="46.18264" lon="2.40716">
        <ele>332</ele>
        <time>2016-04-05T13:18:58Z</time>
      </trkpt>
      <trkpt lat="46.18265" lon="2.4071">
        <ele>332</ele>
        <time>2016-04-05T13:19:01Z</time>
      </trkpt>
      <trkpt lat="46.18267" lon="2.40704">
        <ele>332</ele>
        <time>2016-04-05T13:19:04Z</time>
      </trkpt>
      <trkpt lat="46.18267" lon="2.40698">
        <ele>332</ele>
        <time>2016-04-05T13:19:07Z</time>
      </trkpt>
      <trkpt lat="46.18267" lon="2.40692">
        <ele>332</ele>
        <time>2016-04-05T13:19:10Z</time>
      </trkpt>
      <trkpt lat="46.18269" lon="2.40685">
        <ele>332</ele>
        <time>2016-04-05T13:19:13Z</time>
      </trkpt>
      <trkpt lat="46.18269" lon="2.40679">
        <ele>332</ele>
        <time>2016-04-05T13:19:16Z</time>
      </trkpt>
      <trkpt lat="46.18269" lon="2.40673">
        <ele>332</ele>
        <time>2016-04-05T13:19:19Z</time>
      </trkpt>
      <trkpt lat="46.18269" lon="2.40667">
        <ele>332</ele>
        <time>2016-04-05T13:19:22Z</time>
      </trkpt>
      <trkpt lat="46.18269" lon="2.40661">
        <ele>332</ele>
        <time>2016-04-05T13:19:25Z</time>
      </trkpt>
      <trkpt lat="46.18269" lon="2.40655">
        <ele>332</ele>
        <time>2016-04-05T13:19:28Z</time>
      </trkpt>
      <trkpt lat="46.18268" lon="2.40649">
        <ele>332</ele>
        <time>2016-04-05T13:19:31Z</time>
      </trkpt>
      <trkpt lat="46.18268" lon="2.40643">
        <ele>332</ele>
        <time>2016-04-05T13:19:34Z</time>
      </trkpt>
      <trkpt lat="46.18268" lon="2.40638">
        <ele>332</ele>
        <time>2016-04-05T13:19:37Z</time>
      </trkpt>
      <trkpt lat="46.18268" lon="2.40632">
        <ele>332</ele>
        <time>2016-04-05T13:19:40Z</time>
      </trkpt>
      <trkpt lat="46.18269" lon="2.40627">
        <ele>332</ele>
        <time>2016-04-05T13:19:43Z</time>
      </trkpt>
      <trkpt lat="46.18271" lon="2.40622">
        <ele>333</ele>
        <time>2016-04-05T13:19:47Z</time>
      </trkpt>
      <trkpt lat="46.18274" lon="2.40619">
        <ele>334</ele>
        <time>2016-04-05T13:19:50Z</time>
      </trkpt>
      <trkpt lat="46.18279" lon="2.40617">
        <ele>334</ele>
        <time>2016-04-05T13:19:53Z</time>
      </trkpt>
      <trkpt lat="46.18283" lon="2.40616">
        <ele>334</ele>
        <time>2016-04-05T13:19:56Z</time>
      </trkpt>
      <trkpt lat="46.18287" lon="2.40615">
        <ele>334</ele>
        <time>2016-04-05T13:19:59Z</time>
      </trkpt>
      <trkpt lat="46.18291" lon="2.40614">
        <ele>334</ele>
        <time>2016-04-05T13:20:02Z</time>
      </trkpt>
      <trkpt lat="46.18294" lon="2.40612">
        <ele>334</ele>
        <time>2016-04-05T13:20:05Z</time>
      </trkpt>
      <trkpt lat="46.18299" lon="2.40611">
        <ele>334</ele>
        <time>2016-04-05T13:20:08Z</time>
      </trkpt>
      <trkpt lat="46.18303" lon="2.40611">
        <ele>334</ele>
        <time>2016-04-05T13:20:11Z</time>
      </trkpt>
      <trkpt lat="46.18307" lon="2.4061">
        <ele>334</ele>
        <time>2016-04-05T13:20:14Z</time>
      </trkpt>
      <trkpt lat="46.18311" lon="2.4061">
        <ele>334</ele>
        <time>2016-04-05T13:20:17Z</time>
      </trkpt>
      <trkpt lat="46.18315" lon="2.4061">
        <ele>334</ele>
        <time>2016-04-05T13:20:20Z</time>
      </trkpt>
      <trkpt lat="46.18319" lon="2.40609">
        <ele>334</ele>
        <time>2016-04-05T13:20:23Z</time>
      </trkpt>
      <trkpt lat="46.18323" lon="2.40609">
        <ele>334</ele>
        <time>2016-04-05T13:20:26Z</time>
      </trkpt>
      <trkpt lat="46.18327" lon="2.40609">
        <ele>334</ele>
        <time>2016-04-05T13:20:29Z</time>
      </trkpt>
      <trkpt lat="46.18331" lon="2.4061">
        <ele>334</ele>
        <time>2016-04-05T13:20:32Z</time>
      </trkpt>
      <trkpt lat="46.18334" lon="2.40609">
        <ele>334</ele>
        <time>2016-04-05T13:20:35Z</time>
      </trkpt>
      <trkpt lat="46.18335" lon="2.40608">
        <ele>334</ele>
        <time>2016-04-05T13:20:39Z</time>
      </trkpt>
      <trkpt lat="46.18334" lon="2.40607">
        <ele>334</ele>
        <time>2016-04-05T13:20:43Z</time>
      </trkpt>
      <trkpt lat="46.18329" lon="2.40605">
        <ele>334</ele>
        <time>2016-04-05T13:20:46Z</time>
      </trkpt>
      <trkpt lat="46.18325" lon="2.40603">
        <ele>334</ele>
        <time>2016-04-05T13:20:49Z</time>
      </trkpt>
      <trkpt lat="46.18321" lon="2.40602">
        <ele>334</ele>
        <time>2016-04-05T13:20:52Z</time>
      </trkpt>
      <trkpt lat="46.18317" lon="2.40602">
        <ele>334</ele>
        <time>2016-04-05T13:20:55Z</time>
      </trkpt>
      <trkpt lat="46.18311" lon="2.40602">
        <ele>335</ele>
        <time>2016-04-05T13:20:59Z</time>
      </trkpt>
      <trkpt lat="46.18308" lon="2.40602">
        <ele>337</ele>
        <time>2016-04-05T13:21:02Z</time>
      </trkpt>
      <trkpt lat="46.18304" lon="2.40602">
        <ele>337</ele>
        <time>2016-04-05T13:21:05Z</time>
      </trkpt>
      <trkpt lat="46.183" lon="2.40602">
        <ele>338</ele>
        <time>2016-04-05T13:21:08Z</time>
      </trkpt>
      <trkpt lat="46.18295" lon="2.40602">
        <ele>338</ele>
        <time>2016-04-05T13:21:12Z</time>
      </trkpt>
      <trkpt lat="46.18291" lon="2.40601">
        <ele>338</ele>
        <time>2016-04-05T13:21:15Z</time>
      </trkpt>
      <trkpt lat="46.18287" lon="2.406">
        <ele>339</ele>
        <time>2016-04-05T13:21:18Z</time>
      </trkpt>
      <trkpt lat="46.18282" lon="2.406">
        <ele>339</ele>
        <time>2016-04-05T13:21:22Z</time>
      </trkpt>
      <trkpt lat="46.18279" lon="2.406">
        <ele>340</ele>
        <time>2016-04-05T13:21:25Z</time>
      </trkpt>
      <trkpt lat="46.18275" lon="2.40599">
        <ele>341</ele>
        <time>2016-04-05T13:21:28Z</time>
      </trkpt>
      <trkpt lat="46.18271" lon="2.40599">
        <ele>341</ele>
        <time>2016-04-05T13:21:31Z</time>
      </trkpt>
      <trkpt lat="46.18267" lon="2.40599">
        <ele>341</ele>
        <time>2016-04-05T13:21:34Z</time>
      </trkpt>
      <trkpt lat="46.18263" lon="2.40599">
        <ele>341</ele>
        <time>2016-04-05T13:21:37Z</time>
      </trkpt>
      <trkpt lat="46.18259" lon="2.40599">
        <ele>341</ele>
        <time>2016-04-05T13:21:40Z</time>
      </trkpt>
      <trkpt lat="46.18256" lon="2.40599">
        <ele>342</ele>
        <time>2016-04-05T13:21:43Z</time>
      </trkpt>
      <trkpt lat="46.18252" lon="2.40599">
        <ele>343</ele>
        <time>2016-04-05T13:21:46Z</time>
      </trkpt>
      <trkpt lat="46.18248" lon="2.40599">
        <ele>344</ele>
        <time>2016-04-05T13:21:49Z</time>
      </trkpt>
      <trkpt lat="46.18245" lon="2.40599">
        <ele>344</ele>
        <time>2016-04-05T13:21:52Z</time>
      </trkpt>
      <trkpt lat="46.1824" lon="2.406">
        <ele>344</ele>
        <time>2016-04-05T13:21:56Z</time>
      </trkpt>
      <trkpt lat="46.18236" lon="2.406">
        <ele>344</ele>
        <time>2016-04-05T13:21:59Z</time>
      </trkpt>
      <trkpt lat="46.18232" lon="2.40601">
        <ele>344</ele>
        <time>2016-04-05T13:22:02Z</time>
      </trkpt>
      <trkpt lat="46.18229" lon="2.40602">
        <ele>344</ele>
        <time>2016-04-05T13:22:05Z</time>
      </trkpt>
      <trkpt lat="46.18224" lon="2.40603">
        <ele>344</ele>
        <time>2016-04-05T13:22:08Z</time>
      </trkpt>
      <trkpt lat="46.1822" lon="2.40604">
        <ele>344</ele>
        <time>2016-04-05T13:22:11Z</time>
      </trkpt>
      <trkpt lat="46.18216" lon="2.40605">
        <ele>344</ele>
        <time>2016-04-05T13:22:14Z</time>
      </trkpt>
      <trkpt lat="46.18213" lon="2.40606">
        <ele>344</ele>
        <time>2016-04-05T13:22:17Z</time>
      </trkpt>
      <trkpt lat="46.18209" lon="2.40608">
        <ele>344</ele>
        <time>2016-04-05T13:22:20Z</time>
      </trkpt>
      <trkpt lat="46.18205" lon="2.40609">
        <ele>345</ele>
        <time>2016-04-05T13:22:23Z</time>
      </trkpt>
      <trkpt lat="46.18202" lon="2.40611">
        <ele>346</ele>
        <time>2016-04-05T13:22:26Z</time>
      </trkpt>
      <trkpt lat="46.18198" lon="2.40613">
        <ele>346</ele>
        <time>2016-04-05T13:22:29Z</time>
      </trkpt>
      <trkpt lat="46.18194" lon="2.40615">
        <ele>347</ele>
        <time>2016-04-05T13:22:33Z</time>
      </trkpt>
      <trkpt lat="46.1819" lon="2.40618">
        <ele>347</ele>
        <time>2016-04-05T13:22:37Z</time>
      </trkpt>
      <trkpt lat="46.18187" lon="2.4062">
        <ele>347</ele>
        <time>2016-04-05T13:22:41Z</time>
      </trkpt>
      <trkpt lat="46.18183" lon="2.40622">
        <ele>347</ele>
        <time>2016-04-05T13:22:44Z</time>
      </trkpt>
      <trkpt lat="46.18179" lon="2.40624">
        <ele>347</ele>
        <time>2016-04-05T13:22:47Z</time>
      </trkpt>
      <trkpt lat="46.18176" lon="2.40626">
        <ele>347</ele>
        <time>2016-04-05T13:22:50Z</time>
      </trkpt>
      <trkpt lat="46.18173" lon="2.40628">
        <ele>347</ele>
        <time>2016-04-05T13:22:53Z</time>
      </trkpt>
      <trkpt lat="46.18169" lon="2.4063">
        <ele>347</ele>
        <time>2016-04-05T13:22:56Z</time>
      </trkpt>
      <trkpt lat="46.18165" lon="2.40633">
        <ele>348</ele>
        <time>2016-04-05T13:23:00Z</time>
      </trkpt>
      <trkpt lat="46.18162" lon="2.40636">
        <ele>348</ele>
        <time>2016-04-05T13:23:03Z</time>
      </trkpt>
      <trkpt lat="46.18158" lon="2.40638">
        <ele>348</ele>
        <time>2016-04-05T13:23:06Z</time>
      </trkpt>
      <trkpt lat="46.18155" lon="2.40641">
        <ele>348</ele>
        <time>2016-04-05T13:23:09Z</time>
      </trkpt>
      <trkpt lat="46.18151" lon="2.40645">
        <ele>349</ele>
        <time>2016-04-05T13:23:13Z</time>
      </trkpt>
      <trkpt lat="46.18147" lon="2.40648">
        <ele>349</ele>
        <time>2016-04-05T13:23:17Z</time>
      </trkpt>
      <trkpt lat="46.18143" lon="2.40652">
        <ele>349</ele>
        <time>2016-04-05T13:23:21Z</time>
      </trkpt>
      <trkpt lat="46.1814" lon="2.40656">
        <ele>349</ele>
        <time>2016-04-05T13:23:25Z</time>
      </trkpt>
      <trkpt lat="46.18137" lon="2.40661">
        <ele>349</ele>
        <time>2016-04-05T13:23:29Z</time>
      </trkpt>
      <trkpt lat="46.18133" lon="2.40665">
        <ele>349</ele>
        <time>2016-04-05T13:23:33Z</time>
      </trkpt>
      <trkpt lat="46.18131" lon="2.40669">
        <ele>349</ele>
        <time>2016-04-05T13:23:36Z</time>
      </trkpt>
      <trkpt lat="46.18128" lon="2.40674">
        <ele>349</ele>
        <time>2016-04-05T13:23:40Z</time>
      </trkpt>
      <trkpt lat="46.18125" lon="2.4068">
        <ele>349</ele>
        <time>2016-04-05T13:23:44Z</time>
      </trkpt>
      <trkpt lat="46.18121" lon="2.40685">
        <ele>349</ele>
        <time>2016-04-05T13:23:48Z</time>
      </trkpt>
      <trkpt lat="46.18117" lon="2.40689">
        <ele>349</ele>
        <time>2016-04-05T13:23:52Z</time>
      </trkpt>
      <trkpt lat="46.18114" lon="2.40691">
        <ele>349</ele>
        <time>2016-04-05T13:23:55Z</time>
      </trkpt>
      <trkpt lat="46.18111" lon="2.40693">
        <ele>349</ele>
        <time>2016-04-05T13:23:58Z</time>
      </trkpt>
      <trkpt lat="46.18107" lon="2.40694">
        <ele>349</ele>
        <time>2016-04-05T13:24:01Z</time>
      </trkpt>
      <trkpt lat="46.18103" lon="2.40696">
        <ele>349</ele>
        <time>2016-04-05T13:24:04Z</time>
      </trkpt>
      <trkpt lat="46.181" lon="2.40694">
        <ele>351</ele>
        <time>2016-04-05T13:24:08Z</time>
      </trkpt>
      <trkpt lat="46.18097" lon="2.40692">
        <ele>351</ele>
        <time>2016-04-05T13:24:11Z</time>
      </trkpt>
      <trkpt lat="46.18094" lon="2.40687">
        <ele>351</ele>
        <time>2016-04-05T13:24:15Z</time>
      </trkpt>
      <trkpt lat="46.18092" lon="2.40682">
        <ele>351</ele>
        <time>2016-04-05T13:24:18Z</time>
      </trkpt>
      <trkpt lat="46.1809" lon="2.40676">
        <ele>352</ele>
        <time>2016-04-05T13:24:21Z</time>
      </trkpt>
      <trkpt lat="46.18088" lon="2.40671">
        <ele>352</ele>
        <time>2016-04-05T13:24:24Z</time>
      </trkpt>
      <trkpt lat="46.18086" lon="2.40666">
        <ele>353</ele>
        <time>2016-04-05T13:24:28Z</time>
      </trkpt>
      <trkpt lat="46.18084" lon="2.4066">
        <ele>353</ele>
        <time>2016-04-05T13:24:32Z</time>
      </trkpt>
      <trkpt lat="46.18083" lon="2.40655">
        <ele>353</ele>
        <time>2016-04-05T13:24:35Z</time>
      </trkpt>
      <trkpt lat="46.18082" lon="2.4065">
        <ele>353</ele>
        <time>2016-04-05T13:24:38Z</time>
      </trkpt>
      <trkpt lat="46.1808" lon="2.40645">
        <ele>353</ele>
        <time>2016-04-05T13:24:41Z</time>
      </trkpt>
      <trkpt lat="46.18079" lon="2.40639">
        <ele>353</ele>
        <time>2016-04-05T13:24:44Z</time>
      </trkpt>
      <trkpt lat="46.18077" lon="2.40634">
        <ele>353</ele>
        <time>2016-04-05T13:24:47Z</time>
      </trkpt>
      <trkpt lat="46.18076" lon="2.40629">
        <ele>354</ele>
        <time>2016-04-05T13:24:50Z</time>
      </trkpt>
      <trkpt lat="46.18074" lon="2.40624">
        <ele>355</ele>
        <time>2016-04-05T13:24:53Z</time>
      </trkpt>
      <trkpt lat="46.18073" lon="2.40619">
        <ele>355</ele>
        <time>2016-04-05T13:24:56Z</time>
      </trkpt>
      <trkpt lat="46.18072" lon="2.40613">
        <ele>356</ele>
        <time>2016-04-05T13:24:59Z</time>
      </trkpt>
      <trkpt lat="46.1807" lon="2.40608">
        <ele>356</ele>
        <time>2016-04-05T13:25:02Z</time>
      </trkpt>
      <trkpt lat="46.18068" lon="2.40602">
        <ele>357</ele>
        <time>2016-04-05T13:25:06Z</time>
      </trkpt>
      <trkpt lat="46.18067" lon="2.40598">
        <ele>358</ele>
        <time>2016-04-05T13:25:09Z</time>
      </trkpt>
      <trkpt lat="46.18065" lon="2.40592">
        <ele>358</ele>
        <time>2016-04-05T13:25:13Z</time>
      </trkpt>
      <trkpt lat="46.18063" lon="2.40588">
        <ele>358</ele>
        <time>2016-04-05T13:25:16Z</time>
      </trkpt>
      <trkpt lat="46.18061" lon="2.40584">
        <ele>358</ele>
        <time>2016-04-05T13:25:19Z</time>
      </trkpt>
      <trkpt lat="46.18059" lon="2.40578">
        <ele>359</ele>
        <time>2016-04-05T13:25:23Z</time>
      </trkpt>
      <trkpt lat="46.18056" lon="2.40574">
        <ele>359</ele>
        <time>2016-04-05T13:25:26Z</time>
      </trkpt>
      <trkpt lat="46.18053" lon="2.40569">
        <ele>360</ele>
        <time>2016-04-05T13:25:30Z</time>
      </trkpt>
      <trkpt lat="46.18049" lon="2.40564">
        <ele>361</ele>
        <time>2016-04-05T13:25:34Z</time>
      </trkpt>
      <trkpt lat="46.18046" lon="2.40561">
        <ele>361</ele>
        <time>2016-04-05T13:25:37Z</time>
      </trkpt>
      <trkpt lat="46.18042" lon="2.40557">
        <ele>361</ele>
        <time>2016-04-05T13:25:41Z</time>
      </trkpt>
      <trkpt lat="46.18037" lon="2.40554">
        <ele>361</ele>
        <time>2016-04-05T13:25:45Z</time>
      </trkpt>
      <trkpt lat="46.18034" lon="2.40552">
        <ele>362</ele>
        <time>2016-04-05T13:25:48Z</time>
      </trkpt>
      <trkpt lat="46.1803" lon="2.4055">
        <ele>362</ele>
        <time>2016-04-05T13:25:51Z</time>
      </trkpt>
      <trkpt lat="46.18026" lon="2.40548">
        <ele>362</ele>
        <time>2016-04-05T13:25:55Z</time>
      </trkpt>
      <trkpt lat="46.18022" lon="2.40547">
        <ele>362</ele>
        <time>2016-04-05T13:25:58Z</time>
      </trkpt>
      <trkpt lat="46.18018" lon="2.40545">
        <ele>362</ele>
        <time>2016-04-05T13:26:01Z</time>
      </trkpt>
      <trkpt lat="46.18015" lon="2.40544">
        <ele>363</ele>
        <time>2016-04-05T13:26:04Z</time>
      </trkpt>
      <trkpt lat="46.1801" lon="2.40543">
        <ele>363</ele>
        <time>2016-04-05T13:26:08Z</time>
      </trkpt>
      <trkpt lat="46.18007" lon="2.40542">
        <ele>363</ele>
        <time>2016-04-05T13:26:11Z</time>
      </trkpt>
      <trkpt lat="46.18003" lon="2.40541">
        <ele>363</ele>
        <time>2016-04-05T13:26:14Z</time>
      </trkpt>
      <trkpt lat="46.18" lon="2.40539">
        <ele>364</ele>
        <time>2016-04-05T13:26:17Z</time>
      </trkpt>
      <trkpt lat="46.17996" lon="2.40538">
        <ele>364</ele>
        <time>2016-04-05T13:26:20Z</time>
      </trkpt>
      <trkpt lat="46.17992" lon="2.40536">
        <ele>364</ele>
        <time>2016-04-05T13:26:23Z</time>
      </trkpt>
      <trkpt lat="46.17989" lon="2.40535">
        <ele>365</ele>
        <time>2016-04-05T13:26:26Z</time>
      </trkpt>
      <trkpt lat="46.17985" lon="2.40533">
        <ele>365</ele>
        <time>2016-04-05T13:26:29Z</time>
      </trkpt>
      <trkpt lat="46.17982" lon="2.4053">
        <ele>365</ele>
        <time>2016-04-05T13:26:32Z</time>
      </trkpt>
      <trkpt lat="46.17979" lon="2.40527">
        <ele>365</ele>
        <time>2016-04-05T13:26:35Z</time>
      </trkpt>
      <trkpt lat="46.17975" lon="2.40524">
        <ele>366</ele>
        <time>2016-04-05T13:26:38Z</time>
      </trkpt>
      <trkpt lat="46.17971" lon="2.40519">
        <ele>366</ele>
        <time>2016-04-05T13:26:42Z</time>
      </trkpt>
      <trkpt lat="46.17967" lon="2.40513">
        <ele>367</ele>
        <time>2016-04-05T13:26:46Z</time>
      </trkpt>
      <trkpt lat="46.17963" lon="2.40508">
        <ele>367</ele>
        <time>2016-04-05T13:26:50Z</time>
      </trkpt>
      <trkpt lat="46.17959" lon="2.40503">
        <ele>367</ele>
        <time>2016-04-05T13:26:54Z</time>
      </trkpt>
      <trkpt lat="46.17955" lon="2.40498">
        <ele>367</ele>
        <time>2016-04-05T13:26:58Z</time>
      </trkpt>
      <trkpt lat="46.17952" lon="2.40494">
        <ele>367</ele>
        <time>2016-04-05T13:27:01Z</time>
      </trkpt>
      <trkpt lat="46.17949" lon="2.40491">
        <ele>367</ele>
        <time>2016-04-05T13:27:04Z</time>
      </trkpt>
      <trkpt lat="46.17945" lon="2.40489">
        <ele>367</ele>
        <time>2016-04-05T13:27:07Z</time>
      </trkpt>
      <trkpt lat="46.17941" lon="2.40487">
        <ele>367</ele>
        <time>2016-04-05T13:27:10Z</time>
      </trkpt>
      <trkpt lat="46.17937" lon="2.40485">
        <ele>367</ele>
        <time>2016-04-05T13:27:13Z</time>
      </trkpt>
      <trkpt lat="46.17934" lon="2.40483">
        <ele>368</ele>
        <time>2016-04-05T13:27:16Z</time>
      </trkpt>
      <trkpt lat="46.1793" lon="2.40483">
        <ele>368</ele>
        <time>2016-04-05T13:27:19Z</time>
      </trkpt>
      <trkpt lat="46.17926" lon="2.40483">
        <ele>369</ele>
        <time>2016-04-05T13:27:22Z</time>
      </trkpt>
      <trkpt lat="46.17922" lon="2.40482">
        <ele>369</ele>
        <time>2016-04-05T13:27:25Z</time>
      </trkpt>
      <trkpt lat="46.17918" lon="2.40481">
        <ele>370</ele>
        <time>2016-04-05T13:27:28Z</time>
      </trkpt>
      <trkpt lat="46.17914" lon="2.40482">
        <ele>371</ele>
        <time>2016-04-05T13:27:31Z</time>
      </trkpt>
      <trkpt lat="46.1791" lon="2.40482">
        <ele>372</ele>
        <time>2016-04-05T13:27:34Z</time>
      </trkpt>
      <trkpt lat="46.17906" lon="2.40482">
        <ele>372</ele>
        <time>2016-04-05T13:27:37Z</time>
      </trkpt>
      <trkpt lat="46.17902" lon="2.40482">
        <ele>372</ele>
        <time>2016-04-05T13:27:40Z</time>
      </trkpt>
      <trkpt lat="46.17899" lon="2.40482">
        <ele>372</ele>
        <time>2016-04-05T13:27:43Z</time>
      </trkpt>
      <trkpt lat="46.17894" lon="2.40483">
        <ele>373</ele>
        <time>2016-04-05T13:27:47Z</time>
      </trkpt>
      <trkpt lat="46.17891" lon="2.40483">
        <ele>373</ele>
        <time>2016-04-05T13:27:50Z</time>
      </trkpt>
      <trkpt lat="46.17887" lon="2.40483">
        <ele>374</ele>
        <time>2016-04-05T13:27:53Z</time>
      </trkpt>
      <trkpt lat="46.17883" lon="2.40482">
        <ele>374</ele>
        <time>2016-04-05T13:27:56Z</time>
      </trkpt>
      <trkpt lat="46.17879" lon="2.40481">
        <ele>374</ele>
        <time>2016-04-05T13:27:59Z</time>
      </trkpt>
      <trkpt lat="46.17875" lon="2.40479">
        <ele>375</ele>
        <time>2016-04-05T13:28:02Z</time>
      </trkpt>
      <trkpt lat="46.17871" lon="2.40479">
        <ele>375</ele>
        <time>2016-04-05T13:28:05Z</time>
      </trkpt>
      <trkpt lat="46.17867" lon="2.40478">
        <ele>376</ele>
        <time>2016-04-05T13:28:08Z</time>
      </trkpt>
      <trkpt lat="46.17863" lon="2.40476">
        <ele>376</ele>
        <time>2016-04-05T13:28:11Z</time>
      </trkpt>
      <trkpt lat="46.17859" lon="2.40474">
        <ele>376</ele>
        <time>2016-04-05T13:28:14Z</time>
      </trkpt>
      <trkpt lat="46.17855" lon="2.40473">
        <ele>377</ele>
        <time>2016-04-05T13:28:17Z</time>
      </trkpt>
      <trkpt lat="46.17852" lon="2.40472">
        <ele>377</ele>
        <time>2016-04-05T13:28:20Z</time>
      </trkpt>
      <trkpt lat="46.17848" lon="2.4047">
        <ele>377</ele>
        <time>2016-04-05T13:28:23Z</time>
      </trkpt>
      <trkpt lat="46.17845" lon="2.40469">
        <ele>378</ele>
        <time>2016-04-05T13:28:26Z</time>
      </trkpt>
      <trkpt lat="46.17841" lon="2.40467">
        <ele>378</ele>
        <time>2016-04-05T13:28:29Z</time>
      </trkpt>
      <trkpt lat="46.17838" lon="2.40465">
        <ele>378</ele>
        <time>2016-04-05T13:28:32Z</time>
      </trkpt>
      <trkpt lat="46.17835" lon="2.40463">
        <ele>378</ele>
        <time>2016-04-05T13:28:35Z</time>
      </trkpt>
      <trkpt lat="46.17831" lon="2.4046">
        <ele>378</ele>
        <time>2016-04-05T13:28:38Z</time>
      </trkpt>
      <trkpt lat="46.17828" lon="2.40458">
        <ele>378</ele>
        <time>2016-04-05T13:28:41Z</time>
      </trkpt>
      <trkpt lat="46.17823" lon="2.40454">
        <ele>378</ele>
        <time>2016-04-05T13:28:45Z</time>
      </trkpt>
      <trkpt lat="46.1782" lon="2.4045">
        <ele>378</ele>
        <time>2016-04-05T13:28:49Z</time>
      </trkpt>
      <trkpt lat="46.17817" lon="2.40446">
        <ele>378</ele>
        <time>2016-04-05T13:28:52Z</time>
      </trkpt>
      <trkpt lat="46.17813" lon="2.4044">
        <ele>378</ele>
        <time>2016-04-05T13:28:56Z</time>
      </trkpt>
      <trkpt lat="46.17811" lon="2.40436">
        <ele>379</ele>
        <time>2016-04-05T13:28:59Z</time>
      </trkpt>
      <trkpt lat="46.17809" lon="2.40431">
        <ele>379</ele>
        <time>2016-04-05T13:29:02Z</time>
      </trkpt>
      <trkpt lat="46.17807" lon="2.40426">
        <ele>379</ele>
        <time>2016-04-05T13:29:05Z</time>
      </trkpt>
      <trkpt lat="46.17805" lon="2.40421">
        <ele>379</ele>
        <time>2016-04-05T13:29:09Z</time>
      </trkpt>
      <trkpt lat="46.17803" lon="2.40416">
        <ele>379</ele>
        <time>2016-04-05T13:29:12Z</time>
      </trkpt>
      <trkpt lat="46.17802" lon="2.40411">
        <ele>379</ele>
        <time>2016-04-05T13:29:15Z</time>
      </trkpt>
      <trkpt lat="46.17801" lon="2.40407">
        <ele>379</ele>
        <time>2016-04-05T13:29:18Z</time>
      </trkpt>
      <trkpt lat="46.17801" lon="2.40402">
        <ele>379</ele>
        <time>2016-04-05T13:29:21Z</time>
      </trkpt>
      <trkpt lat="46.178" lon="2.40397">
        <ele>379</ele>
        <time>2016-04-05T13:29:24Z</time>
      </trkpt>
      <trkpt lat="46.17799" lon="2.40392">
        <ele>379</ele>
        <time>2016-04-05T13:29:27Z</time>
      </trkpt>
      <trkpt lat="46.17797" lon="2.40387">
        <ele>379</ele>
        <time>2016-04-05T13:29:30Z</time>
      </trkpt>
      <trkpt lat="46.17796" lon="2.40382">
        <ele>379</ele>
        <time>2016-04-05T13:29:33Z</time>
      </trkpt>
      <trkpt lat="46.17794" lon="2.40377">
        <ele>379</ele>
        <time>2016-04-05T13:29:36Z</time>
      </trkpt>
      <trkpt lat="46.17793" lon="2.40373">
        <ele>379</ele>
        <time>2016-04-05T13:29:39Z</time>
      </trkpt>
      <trkpt lat="46.17791" lon="2.40368">
        <ele>379</ele>
        <time>2016-04-05T13:29:42Z</time>
      </trkpt>
      <trkpt lat="46.1779" lon="2.40363">
        <ele>379</ele>
        <time>2016-04-05T13:29:45Z</time>
      </trkpt>
      <trkpt lat="46.17788" lon="2.40358">
        <ele>379</ele>
        <time>2016-04-05T13:29:48Z</time>
      </trkpt>
      <trkpt lat="46.17786" lon="2.40352">
        <ele>379</ele>
        <time>2016-04-05T13:29:51Z</time>
      </trkpt>
      <trkpt lat="46.17784" lon="2.40347">
        <ele>379</ele>
        <time>2016-04-05T13:29:54Z</time>
      </trkpt>
      <trkpt lat="46.17782" lon="2.40342">
        <ele>379</ele>
        <time>2016-04-05T13:29:57Z</time>
      </trkpt>
      <trkpt lat="46.17779" lon="2.40337">
        <ele>379</ele>
        <time>2016-04-05T13:30:00Z</time>
      </trkpt>
      <trkpt lat="46.17777" lon="2.40333">
        <ele>379</ele>
        <time>2016-04-05T13:30:03Z</time>
      </trkpt>
      <trkpt lat="46.17775" lon="2.40328">
        <ele>379</ele>
        <time>2016-04-05T13:30:06Z</time>
      </trkpt>
      <trkpt lat="46.17772" lon="2.40323">
        <ele>379</ele>
        <time>2016-04-05T13:30:09Z</time>
      </trkpt>
      <trkpt lat="46.17769" lon="2.40317">
        <ele>379</ele>
        <time>2016-04-05T13:30:12Z</time>
      </trkpt>
      <trkpt lat="46.17767" lon="2.40311">
        <ele>380</ele>
        <time>2016-04-05T13:30:15Z</time>
      </trkpt>
      <trkpt lat="46.17764" lon="2.40305">
        <ele>381</ele>
        <time>2016-04-05T13:30:18Z</time>
      </trkpt>
      <trkpt lat="46.1776" lon="2.403">
        <ele>382</ele>
        <time>2016-04-05T13:30:21Z</time>
      </trkpt>
      <trkpt lat="46.17757" lon="2.40296">
        <ele>383</ele>
        <time>2016-04-05T13:30:24Z</time>
      </trkpt>
      <trkpt lat="46.17754" lon="2.40292">
        <ele>384</ele>
        <time>2016-04-05T13:30:27Z</time>
      </trkpt>
      <trkpt lat="46.17751" lon="2.40288">
        <ele>385</ele>
        <time>2016-04-05T13:30:30Z</time>
      </trkpt>
      <trkpt lat="46.17748" lon="2.40284">
        <ele>385</ele>
        <time>2016-04-05T13:30:33Z</time>
      </trkpt>
      <trkpt lat="46.17744" lon="2.4028">
        <ele>386</ele>
        <time>2016-04-05T13:30:36Z</time>
      </trkpt>
      <trkpt lat="46.17741" lon="2.40276">
        <ele>386</ele>
        <time>2016-04-05T13:30:39Z</time>
      </trkpt>
      <trkpt lat="46.17738" lon="2.40273">
        <ele>386</ele>
        <time>2016-04-05T13:30:42Z</time>
      </trkpt>
      <trkpt lat="46.17734" lon="2.40269">
        <ele>387</ele>
        <time>2016-04-05T13:30:45Z</time>
      </trkpt>
      <trkpt lat="46.17731" lon="2.40266">
        <ele>387</ele>
        <time>2016-04-05T13:30:48Z</time>
      </trkpt>
      <trkpt lat="46.17728" lon="2.40262">
        <ele>387</ele>
        <time>2016-04-05T13:30:51Z</time>
      </trkpt>
      <trkpt lat="46.17724" lon="2.40259">
        <ele>388</ele>
        <time>2016-04-05T13:30:54Z</time>
      </trkpt>
      <trkpt lat="46.1772" lon="2.40255">
        <ele>388</ele>
        <time>2016-04-05T13:30:57Z</time>
      </trkpt>
      <trkpt lat="46.17715" lon="2.40251">
        <ele>388</ele>
        <time>2016-04-05T13:31:01Z</time>
      </trkpt>
      <trkpt lat="46.17712" lon="2.40248">
        <ele>389</ele>
        <time>2016-04-05T13:31:04Z</time>
      </trkpt>
      <trkpt lat="46.17707" lon="2.40245">
        <ele>389</ele>
        <time>2016-04-05T13:31:07Z</time>
      </trkpt>
      <trkpt lat="46.17704" lon="2.40243">
        <ele>389</ele>
        <time>2016-04-05T13:31:10Z</time>
      </trkpt>
      <trkpt lat="46.177" lon="2.4024">
        <ele>389</ele>
        <time>2016-04-05T13:31:13Z</time>
      </trkpt>
      <trkpt lat="46.17696" lon="2.40237">
        <ele>389</ele>
        <time>2016-04-05T13:31:16Z</time>
      </trkpt>
      <trkpt lat="46.17692" lon="2.40235">
        <ele>390</ele>
        <time>2016-04-05T13:31:19Z</time>
      </trkpt>
      <trkpt lat="46.17688" lon="2.40233">
        <ele>390</ele>
        <time>2016-04-05T13:31:22Z</time>
      </trkpt>
      <trkpt lat="46.17683" lon="2.4023">
        <ele>390</ele>
        <time>2016-04-05T13:31:25Z</time>
      </trkpt>
      <trkpt lat="46.17679" lon="2.40229">
        <ele>390</ele>
        <time>2016-04-05T13:31:28Z</time>
      </trkpt>
      <trkpt lat="46.17675" lon="2.40227">
        <ele>390</ele>
        <time>2016-04-05T13:31:31Z</time>
      </trkpt>
      <trkpt lat="46.1767" lon="2.40225">
        <ele>390</ele>
        <time>2016-04-05T13:31:34Z</time>
      </trkpt>
      <trkpt lat="46.17666" lon="2.40223">
        <ele>390</ele>
        <time>2016-04-05T13:31:37Z</time>
      </trkpt>
      <trkpt lat="46.17662" lon="2.40222">
        <ele>390</ele>
        <time>2016-04-05T13:31:40Z</time>
      </trkpt>
      <trkpt lat="46.17658" lon="2.4022">
        <ele>390</ele>
        <time>2016-04-05T13:31:43Z</time>
      </trkpt>
      <trkpt lat="46.17653" lon="2.40219">
        <ele>390</ele>
        <time>2016-04-05T13:31:46Z</time>
      </trkpt>
      <trkpt lat="46.17649" lon="2.40217">
        <ele>390</ele>
        <time>2016-04-05T13:31:49Z</time>
      </trkpt>
      <trkpt lat="46.17644" lon="2.40216">
        <ele>391</ele>
        <time>2016-04-05T13:31:52Z</time>
      </trkpt>
      <trkpt lat="46.1764" lon="2.40215">
        <ele>391</ele>
        <time>2016-04-05T13:31:55Z</time>
      </trkpt>
      <trkpt lat="46.17636" lon="2.40214">
        <ele>391</ele>
        <time>2016-04-05T13:31:58Z</time>
      </trkpt>
      <trkpt lat="46.17632" lon="2.40213">
        <ele>391</ele>
        <time>2016-04-05T13:32:01Z</time>
      </trkpt>
      <trkpt lat="46.17627" lon="2.40212">
        <ele>391</ele>
        <time>2016-04-05T13:32:04Z</time>
      </trkpt>
      <trkpt lat="46.17623" lon="2.40212">
        <ele>392</ele>
        <time>2016-04-05T13:32:07Z</time>
      </trkpt>
      <trkpt lat="46.17619" lon="2.40211">
        <ele>392</ele>
        <time>2016-04-05T13:32:10Z</time>
      </trkpt>
      <trkpt lat="46.17615" lon="2.40211">
        <ele>392</ele>
        <time>2016-04-05T13:32:13Z</time>
      </trkpt>
      <trkpt lat="46.17611" lon="2.4021">
        <ele>392</ele>
        <time>2016-04-05T13:32:16Z</time>
      </trkpt>
      <trkpt lat="46.17606" lon="2.4021">
        <ele>392</ele>
        <time>2016-04-05T13:32:19Z</time>
      </trkpt>
      <trkpt lat="46.17602" lon="2.4021">
        <ele>392</ele>
        <time>2016-04-05T13:32:22Z</time>
      </trkpt>
      <trkpt lat="46.17598" lon="2.40209">
        <ele>393</ele>
        <time>2016-04-05T13:32:25Z</time>
      </trkpt>
      <trkpt lat="46.17594" lon="2.40209">
        <ele>393</ele>
        <time>2016-04-05T13:32:28Z</time>
      </trkpt>
      <trkpt lat="46.1759" lon="2.40208">
        <ele>393</ele>
        <time>2016-04-05T13:32:31Z</time>
      </trkpt>
      <trkpt lat="46.17586" lon="2.40208">
        <ele>393</ele>
        <time>2016-04-05T13:32:34Z</time>
      </trkpt>
      <trkpt lat="46.17582" lon="2.40208">
        <ele>393</ele>
        <time>2016-04-05T13:32:37Z</time>
      </trkpt>
      <trkpt lat="46.17578" lon="2.40208">
        <ele>394</ele>
        <time>2016-04-05T13:32:40Z</time>
      </trkpt>
      <trkpt lat="46.17574" lon="2.40207">
        <ele>394</ele>
        <time>2016-04-05T13:32:43Z</time>
      </trkpt>
      <trkpt lat="46.1757" lon="2.40207">
        <ele>394</ele>
        <time>2016-04-05T13:32:46Z</time>
      </trkpt>
      <trkpt lat="46.17566" lon="2.40207">
        <ele>394</ele>
        <time>2016-04-05T13:32:49Z</time>
      </trkpt>
      <trkpt lat="46.17562" lon="2.40207">
        <ele>394</ele>
        <time>2016-04-05T13:32:52Z</time>
      </trkpt>
      <trkpt lat="46.17558" lon="2.40207">
        <ele>395</ele>
        <time>2016-04-05T13:32:55Z</time>
      </trkpt>
      <trkpt lat="46.17554" lon="2.40208">
        <ele>395</ele>
        <time>2016-04-05T13:32:58Z</time>
      </trkpt>
      <trkpt lat="46.1755" lon="2.40208">
        <ele>395</ele>
        <time>2016-04-05T13:33:01Z</time>
      </trkpt>
      <trkpt lat="46.17546" lon="2.40208">
        <ele>395</ele>
        <time>2016-04-05T13:33:04Z</time>
      </trkpt>
      <trkpt lat="46.17542" lon="2.40209">
        <ele>395</ele>
        <time>2016-04-05T13:33:07Z</time>
      </trkpt>
      <trkpt lat="46.17538" lon="2.40209">
        <ele>395</ele>
        <time>2016-04-05T13:33:10Z</time>
      </trkpt>
      <trkpt lat="46.17534" lon="2.40209">
        <ele>395</ele>
        <time>2016-04-05T13:33:13Z</time>
      </trkpt>
      <trkpt lat="46.1753" lon="2.4021">
        <ele>396</ele>
        <time>2016-04-05T13:33:16Z</time>
      </trkpt>
      <trkpt lat="46.17527" lon="2.4021">
        <ele>396</ele>
        <time>2016-04-05T13:33:19Z</time>
      </trkpt>
      <trkpt lat="46.17522" lon="2.4021">
        <ele>396</ele>
        <time>2016-04-05T13:33:22Z</time>
      </trkpt>
      <trkpt lat="46.17518" lon="2.40211">
        <ele>396</ele>
        <time>2016-04-05T13:33:25Z</time>
      </trkpt>
      <trkpt lat="46.17514" lon="2.40211">
        <ele>396</ele>
        <time>2016-04-05T13:33:28Z</time>
      </trkpt>
      <trkpt lat="46.1751" lon="2.40212">
        <ele>396</ele>
        <time>2016-04-05T13:33:31Z</time>
      </trkpt>
      <trkpt lat="46.17506" lon="2.40212">
        <ele>396</ele>
        <time>2016-04-05T13:33:34Z</time>
      </trkpt>
      <trkpt lat="46.17501" lon="2.40213">
        <ele>397</ele>
        <time>2016-04-05T13:33:37Z</time>
      </trkpt>
      <trkpt lat="46.17497" lon="2.40213">
        <ele>397</ele>
        <time>2016-04-05T13:33:40Z</time>
      </trkpt>
      <trkpt lat="46.17493" lon="2.40213">
        <ele>397</ele>
        <time>2016-04-05T13:33:43Z</time>
      </trkpt>
      <trkpt lat="46.17488" lon="2.40213">
        <ele>397</ele>
        <time>2016-04-05T13:33:46Z</time>
      </trkpt>
      <trkpt lat="46.17485" lon="2.40214">
        <ele>397</ele>
        <time>2016-04-05T13:33:49Z</time>
      </trkpt>
      <trkpt lat="46.1748" lon="2.40214">
        <ele>397</ele>
        <time>2016-04-05T13:33:52Z</time>
      </trkpt>
      <trkpt lat="46.17476" lon="2.40214">
        <ele>397</ele>
        <time>2016-04-05T13:33:55Z</time>
      </trkpt>
      <trkpt lat="46.17473" lon="2.40215">
        <ele>397</ele>
        <time>2016-04-05T13:33:58Z</time>
      </trkpt>
      <trkpt lat="46.17469" lon="2.40215">
        <ele>397</ele>
        <time>2016-04-05T13:34:01Z</time>
      </trkpt>
      <trkpt lat="46.17464" lon="2.40215">
        <ele>398</ele>
        <time>2016-04-05T13:34:04Z</time>
      </trkpt>
      <trkpt lat="46.1746" lon="2.40215">
        <ele>398</ele>
        <time>2016-04-05T13:34:07Z</time>
      </trkpt>
      <trkpt lat="46.17456" lon="2.40216">
        <ele>398</ele>
        <time>2016-04-05T13:34:10Z</time>
      </trkpt>
      <trkpt lat="46.17451" lon="2.40216">
        <ele>398</ele>
        <time>2016-04-05T13:34:13Z</time>
      </trkpt>
      <trkpt lat="46.17447" lon="2.40217">
        <ele>398</ele>
        <time>2016-04-05T13:34:16Z</time>
      </trkpt>
      <trkpt lat="46.17442" lon="2.40217">
        <ele>398</ele>
        <time>2016-04-05T13:34:19Z</time>
      </trkpt>
      <trkpt lat="46.17438" lon="2.40218">
        <ele>398</ele>
        <time>2016-04-05T13:34:22Z</time>
      </trkpt>
      <trkpt lat="46.17434" lon="2.40218">
        <ele>398</ele>
        <time>2016-04-05T13:34:25Z</time>
      </trkpt>
      <trkpt lat="46.1743" lon="2.40218">
        <ele>398</ele>
        <time>2016-04-05T13:34:28Z</time>
      </trkpt>
      <trkpt lat="46.17426" lon="2.40219">
        <ele>398</ele>
        <time>2016-04-05T13:34:31Z</time>
      </trkpt>
      <trkpt lat="46.17422" lon="2.40219">
        <ele>398</ele>
        <time>2016-04-05T13:34:34Z</time>
      </trkpt>
      <trkpt lat="46.17418" lon="2.4022">
        <ele>398</ele>
        <time>2016-04-05T13:34:37Z</time>
      </trkpt>
      <trkpt lat="46.17413" lon="2.4022">
        <ele>398</ele>
        <time>2016-04-05T13:34:40Z</time>
      </trkpt>
      <trkpt lat="46.17409" lon="2.4022">
        <ele>398</ele>
        <time>2016-04-05T13:34:43Z</time>
      </trkpt>
      <trkpt lat="46.17405" lon="2.40221">
        <ele>398</ele>
        <time>2016-04-05T13:34:46Z</time>
      </trkpt>
      <trkpt lat="46.174" lon="2.40222">
        <ele>398</ele>
        <time>2016-04-05T13:34:49Z</time>
      </trkpt>
      <trkpt lat="46.17396" lon="2.40222">
        <ele>398</ele>
        <time>2016-04-05T13:34:52Z</time>
      </trkpt>
      <trkpt lat="46.17392" lon="2.40222">
        <ele>398</ele>
        <time>2016-04-05T13:34:55Z</time>
      </trkpt>
      <trkpt lat="46.17388" lon="2.40222">
        <ele>398</ele>
        <time>2016-04-05T13:34:58Z</time>
      </trkpt>
      <trkpt lat="46.17382" lon="2.40222">
        <ele>398</ele>
        <time>2016-04-05T13:35:02Z</time>
      </trkpt>
      <trkpt lat="46.17378" lon="2.40221">
        <ele>398</ele>
        <time>2016-04-05T13:35:05Z</time>
      </trkpt>
      <trkpt lat="46.17374" lon="2.40221">
        <ele>399</ele>
        <time>2016-04-05T13:35:08Z</time>
      </trkpt>
      <trkpt lat="46.17369" lon="2.4022">
        <ele>399</ele>
        <time>2016-04-05T13:35:11Z</time>
      </trkpt>
      <trkpt lat="46.17365" lon="2.40219">
        <ele>399</ele>
        <time>2016-04-05T13:35:14Z</time>
      </trkpt>
      <trkpt lat="46.17361" lon="2.40218">
        <ele>399</ele>
        <time>2016-04-05T13:35:17Z</time>
      </trkpt>
      <trkpt lat="46.17356" lon="2.40216">
        <ele>399</ele>
        <time>2016-04-05T13:35:20Z</time>
      </trkpt>
      <trkpt lat="46.17352" lon="2.40215">
        <ele>399</ele>
        <time>2016-04-05T13:35:23Z</time>
      </trkpt>
      <trkpt lat="46.17348" lon="2.40213">
        <ele>399</ele>
        <time>2016-04-05T13:35:26Z</time>
      </trkpt>
      <trkpt lat="46.17344" lon="2.40212">
        <ele>399</ele>
        <time>2016-04-05T13:35:29Z</time>
      </trkpt>
      <trkpt lat="46.1734" lon="2.40211">
        <ele>399</ele>
        <time>2016-04-05T13:35:32Z</time>
      </trkpt>
      <trkpt lat="46.17336" lon="2.40209">
        <ele>399</ele>
        <time>2016-04-05T13:35:35Z</time>
      </trkpt>
      <trkpt lat="46.17332" lon="2.40208">
        <ele>399</ele>
        <time>2016-04-05T13:35:38Z</time>
      </trkpt>
      <trkpt lat="46.17328" lon="2.40206">
        <ele>399</ele>
        <time>2016-04-05T13:35:41Z</time>
      </trkpt>
      <trkpt lat="46.17324" lon="2.40205">
        <ele>399</ele>
        <time>2016-04-05T13:35:44Z</time>
      </trkpt>
      <trkpt lat="46.1732" lon="2.40203">
        <ele>399</ele>
        <time>2016-04-05T13:35:47Z</time>
      </trkpt>
      <trkpt lat="46.17315" lon="2.40201">
        <ele>399</ele>
        <time>2016-04-05T13:35:51Z</time>
      </trkpt>
      <trkpt lat="46.17311" lon="2.40199">
        <ele>399</ele>
        <time>2016-04-05T13:35:54Z</time>
      </trkpt>
      <trkpt lat="46.17307" lon="2.40197">
        <ele>399</ele>
        <time>2016-04-05T13:35:57Z</time>
      </trkpt>
      <trkpt lat="46.17303" lon="2.40196">
        <ele>399</ele>
        <time>2016-04-05T13:36:00Z</time>
      </trkpt>
      <trkpt lat="46.17299" lon="2.40194">
        <ele>399</ele>
        <time>2016-04-05T13:36:03Z</time>
      </trkpt>
      <trkpt lat="46.17295" lon="2.40192">
        <ele>399</ele>
        <time>2016-04-05T13:36:06Z</time>
      </trkpt>
      <trkpt lat="46.17292" lon="2.4019">
        <ele>399</ele>
        <time>2016-04-05T13:36:09Z</time>
      </trkpt>
      <trkpt lat="46.17286" lon="2.40189">
        <ele>399</ele>
        <time>2016-04-05T13:36:13Z</time>
      </trkpt>
      <trkpt lat="46.17282" lon="2.40187">
        <ele>399</ele>
        <time>2016-04-05T13:36:16Z</time>
      </trkpt>
      <trkpt lat="46.17278" lon="2.40185">
        <ele>399</ele>
        <time>2016-04-05T13:36:19Z</time>
      </trkpt>
      <trkpt lat="46.17273" lon="2.40183">
        <ele>399</ele>
        <time>2016-04-05T13:36:23Z</time>
      </trkpt>
      <trkpt lat="46.17268" lon="2.40181">
        <ele>399</ele>
        <time>2016-04-05T13:36:26Z</time>
      </trkpt>
      <trkpt lat="46.17264" lon="2.40179">
        <ele>399</ele>
        <time>2016-04-05T13:36:29Z</time>
      </trkpt>
      <trkpt lat="46.17259" lon="2.40176">
        <ele>400</ele>
        <time>2016-04-05T13:36:33Z</time>
      </trkpt>
      <trkpt lat="46.17253" lon="2.40174">
        <ele>401</ele>
        <time>2016-04-05T13:36:37Z</time>
      </trkpt>
      <trkpt lat="46.1725" lon="2.40173">
        <ele>401</ele>
        <time>2016-04-05T13:36:40Z</time>
      </trkpt>
      <trkpt lat="46.17244" lon="2.40171">
        <ele>402</ele>
        <time>2016-04-05T13:36:44Z</time>
      </trkpt>
      <trkpt lat="46.1724" lon="2.40169">
        <ele>402</ele>
        <time>2016-04-05T13:36:47Z</time>
      </trkpt>
      <trkpt lat="46.17236" lon="2.40168">
        <ele>402</ele>
        <time>2016-04-05T13:36:50Z</time>
      </trkpt>
      <trkpt lat="46.17231" lon="2.40167">
        <ele>402</ele>
        <time>2016-04-05T13:36:54Z</time>
      </trkpt>
      <trkpt lat="46.17226" lon="2.40166">
        <ele>402</ele>
        <time>2016-04-05T13:36:57Z</time>
      </trkpt>
      <trkpt lat="46.17223" lon="2.40166">
        <ele>402</ele>
        <time>2016-04-05T13:37:00Z</time>
      </trkpt>
      <trkpt lat="46.17217" lon="2.40165">
        <ele>402</ele>
        <time>2016-04-05T13:37:04Z</time>
      </trkpt>
      <trkpt lat="46.17213" lon="2.40164">
        <ele>402</ele>
        <time>2016-04-05T13:37:07Z</time>
      </trkpt>
      <trkpt lat="46.17209" lon="2.40163">
        <ele>402</ele>
        <time>2016-04-05T13:37:10Z</time>
      </trkpt>
      <trkpt lat="46.17203" lon="2.40163">
        <ele>402</ele>
        <time>2016-04-05T13:37:14Z</time>
      </trkpt>
      <trkpt lat="46.17199" lon="2.40163">
        <ele>402</ele>
        <time>2016-04-05T13:37:17Z</time>
      </trkpt>
      <trkpt lat="46.17196" lon="2.40163">
        <ele>402</ele>
        <time>2016-04-05T13:37:20Z</time>
      </trkpt>
      <trkpt lat="46.17191" lon="2.40163">
        <ele>402</ele>
        <time>2016-04-05T13:37:24Z</time>
      </trkpt>
      <trkpt lat="46.17186" lon="2.40162">
        <ele>402</ele>
        <time>2016-04-05T13:37:27Z</time>
      </trkpt>
      <trkpt lat="46.17182" lon="2.40161">
        <ele>402</ele>
        <time>2016-04-05T13:37:30Z</time>
      </trkpt>
      <trkpt lat="46.17176" lon="2.40161">
        <ele>403</ele>
        <time>2016-04-05T13:37:34Z</time>
      </trkpt>
      <trkpt lat="46.17173" lon="2.4016">
        <ele>403</ele>
        <time>2016-04-05T13:37:37Z</time>
      </trkpt>
      <trkpt lat="46.17168" lon="2.4016">
        <ele>403</ele>
        <time>2016-04-05T13:37:40Z</time>
      </trkpt>
      <trkpt lat="46.17163" lon="2.4016">
        <ele>404</ele>
        <time>2016-04-05T13:37:44Z</time>
      </trkpt>
      <trkpt lat="46.17159" lon="2.4016">
        <ele>404</ele>
        <time>2016-04-05T13:37:47Z</time>
      </trkpt>
      <trkpt lat="46.17155" lon="2.4016">
        <ele>404</ele>
        <time>2016-04-05T13:37:50Z</time>
      </trkpt>
      <trkpt lat="46.1715" lon="2.4016">
        <ele>404</ele>
        <time>2016-04-05T13:37:54Z</time>
      </trkpt>
      <trkpt lat="46.17146" lon="2.40159">
        <ele>405</ele>
        <time>2016-04-05T13:37:57Z</time>
      </trkpt>
      <trkpt lat="46.17142" lon="2.40159">
        <ele>405</ele>
        <time>2016-04-05T13:38:00Z</time>
      </trkpt>
      <trkpt lat="46.17137" lon="2.40158">
        <ele>406</ele>
        <time>2016-04-05T13:38:04Z</time>
      </trkpt>
      <trkpt lat="46.17133" lon="2.40155">
        <ele>406</ele>
        <time>2016-04-05T13:38:08Z</time>
      </trkpt>
      <trkpt lat="46.1713" lon="2.40151">
        <ele>406</ele>
        <time>2016-04-05T13:38:11Z</time>
      </trkpt>
      <trkpt lat="46.17126" lon="2.40146">
        <ele>406</ele>
        <time>2016-04-05T13:38:15Z</time>
      </trkpt>
      <trkpt lat="46.17123" lon="2.40144">
        <ele>407</ele>
        <time>2016-04-05T13:38:18Z</time>
      </trkpt>
      <trkpt lat="46.17118" lon="2.40141">
        <ele>407</ele>
        <time>2016-04-05T13:38:23Z</time>
      </trkpt>
      <trkpt lat="46.17113" lon="2.40139">
        <ele>409</ele>
        <time>2016-04-05T13:38:27Z</time>
      </trkpt>
      <trkpt lat="46.1711" lon="2.40138">
        <ele>409</ele>
        <time>2016-04-05T13:38:30Z</time>
      </trkpt>
      <trkpt lat="46.17107" lon="2.40136">
        <ele>409</ele>
        <time>2016-04-05T13:38:33Z</time>
      </trkpt>
      <trkpt lat="46.17102" lon="2.40134">
        <ele>409</ele>
        <time>2016-04-05T13:38:37Z</time>
      </trkpt>
      <trkpt lat="46.17098" lon="2.40132">
        <ele>409</ele>
        <time>2016-04-05T13:38:41Z</time>
      </trkpt>
      <trkpt lat="46.17093" lon="2.4013">
        <ele>409</ele>
        <time>2016-04-05T13:38:45Z</time>
      </trkpt>
      <trkpt lat="46.17089" lon="2.40127">
        <ele>409</ele>
        <time>2016-04-05T13:38:49Z</time>
      </trkpt>
      <trkpt lat="46.17085" lon="2.40124">
        <ele>409</ele>
        <time>2016-04-05T13:38:53Z</time>
      </trkpt>
      <trkpt lat="46.1708" lon="2.40121">
        <ele>409</ele>
        <time>2016-04-05T13:38:57Z</time>
      </trkpt>
      <trkpt lat="46.17076" lon="2.40118">
        <ele>409</ele>
        <time>2016-04-05T13:39:01Z</time>
      </trkpt>
      <trkpt lat="46.17072" lon="2.40115">
        <ele>409</ele>
        <time>2016-04-05T13:39:05Z</time>
      </trkpt>
      <trkpt lat="46.17068" lon="2.40112">
        <ele>409</ele>
        <time>2016-04-05T13:39:09Z</time>
      </trkpt>
      <trkpt lat="46.17064" lon="2.40109">
        <ele>409</ele>
        <time>2016-04-05T13:39:13Z</time>
      </trkpt>
      <trkpt lat="46.17061" lon="2.40104">
        <ele>410</ele>
        <time>2016-04-05T13:39:17Z</time>
      </trkpt>
      <trkpt lat="46.17058" lon="2.401">
        <ele>410</ele>
        <time>2016-04-05T13:39:21Z</time>
      </trkpt>
      <trkpt lat="46.17054" lon="2.40095">
        <ele>410</ele>
        <time>2016-04-05T13:39:25Z</time>
      </trkpt>
      <trkpt lat="46.17051" lon="2.4009">
        <ele>410</ele>
        <time>2016-04-05T13:39:29Z</time>
      </trkpt>
      <trkpt lat="46.17049" lon="2.40086">
        <ele>411</ele>
        <time>2016-04-05T13:39:32Z</time>
      </trkpt>
      <trkpt lat="46.17046" lon="2.40081">
        <ele>412</ele>
        <time>2016-04-05T13:39:35Z</time>
      </trkpt>
      <trkpt lat="46.17044" lon="2.40077">
        <ele>412</ele>
        <time>2016-04-05T13:39:38Z</time>
      </trkpt>
      <trkpt lat="46.17042" lon="2.40072">
        <ele>412</ele>
        <time>2016-04-05T13:39:41Z</time>
      </trkpt>
      <trkpt lat="46.17038" lon="2.40067">
        <ele>412</ele>
        <time>2016-04-05T13:39:45Z</time>
      </trkpt>
      <trkpt lat="46.17035" lon="2.40063">
        <ele>412</ele>
        <time>2016-04-05T13:39:48Z</time>
      </trkpt>
      <trkpt lat="46.17032" lon="2.40058">
        <ele>412</ele>
        <time>2016-04-05T13:39:51Z</time>
      </trkpt>
      <trkpt lat="46.17029" lon="2.40052">
        <ele>413</ele>
        <time>2016-04-05T13:39:56Z</time>
      </trkpt>
      <trkpt lat="46.17026" lon="2.40049">
        <ele>413</ele>
        <time>2016-04-05T13:40:00Z</time>
      </trkpt>
      <trkpt lat="46.17023" lon="2.40045">
        <ele>413</ele>
        <time>2016-04-05T13:40:04Z</time>
      </trkpt>
      <trkpt lat="46.1702" lon="2.4004">
        <ele>413</ele>
        <time>2016-04-05T13:40:08Z</time>
      </trkpt>
      <trkpt lat="46.17018" lon="2.40036">
        <ele>413</ele>
        <time>2016-04-05T13:40:11Z</time>
      </trkpt>
      <trkpt lat="46.17015" lon="2.40031">
        <ele>413</ele>
        <time>2016-04-05T13:40:15Z</time>
      </trkpt>
      <trkpt lat="46.17012" lon="2.40025">
        <ele>413</ele>
        <time>2016-04-05T13:40:19Z</time>
      </trkpt>
      <trkpt lat="46.17009" lon="2.40021">
        <ele>413</ele>
        <time>2016-04-05T13:40:23Z</time>
      </trkpt>
      <trkpt lat="46.17007" lon="2.40017">
        <ele>413</ele>
        <time>2016-04-05T13:40:26Z</time>
      </trkpt>
      <trkpt lat="46.17003" lon="2.40012">
        <ele>413</ele>
        <time>2016-04-05T13:40:30Z</time>
      </trkpt>
      <trkpt lat="46.17001" lon="2.40008">
        <ele>413</ele>
        <time>2016-04-05T13:40:34Z</time>
      </trkpt>
      <trkpt lat="46.16998" lon="2.40003">
        <ele>413</ele>
        <time>2016-04-05T13:40:38Z</time>
      </trkpt>
      <trkpt lat="46.16995" lon="2.39997">
        <ele>413</ele>
        <time>2016-04-05T13:40:42Z</time>
      </trkpt>
      <trkpt lat="46.16993" lon="2.39991">
        <ele>413</ele>
        <time>2016-04-05T13:40:46Z</time>
      </trkpt>
      <trkpt lat="46.16991" lon="2.39987">
        <ele>413</ele>
        <time>2016-04-05T13:40:49Z</time>
      </trkpt>
      <trkpt lat="46.16988" lon="2.39981">
        <ele>414</ele>
        <time>2016-04-05T13:40:53Z</time>
      </trkpt>
      <trkpt lat="46.16985" lon="2.39975">
        <ele>414</ele>
        <time>2016-04-05T13:40:57Z</time>
      </trkpt>
      <trkpt lat="46.16984" lon="2.39969">
        <ele>414</ele>
        <time>2016-04-05T13:41:00Z</time>
      </trkpt>
      <trkpt lat="46.16982" lon="2.39964">
        <ele>415</ele>
        <time>2016-04-05T13:41:03Z</time>
      </trkpt>
      <trkpt lat="46.1698" lon="2.39958">
        <ele>415</ele>
        <time>2016-04-05T13:41:07Z</time>
      </trkpt>
      <trkpt lat="46.16978" lon="2.39953">
        <ele>415</ele>
        <time>2016-04-05T13:41:10Z</time>
      </trkpt>
      <trkpt lat="46.16976" lon="2.39949">
        <ele>415</ele>
        <time>2016-04-05T13:41:13Z</time>
      </trkpt>
      <trkpt lat="46.16974" lon="2.39944">
        <ele>415</ele>
        <time>2016-04-05T13:41:16Z</time>
      </trkpt>
      <trkpt lat="46.16972" lon="2.39938">
        <ele>415</ele>
        <time>2016-04-05T13:41:19Z</time>
      </trkpt>
      <trkpt lat="46.16969" lon="2.39932">
        <ele>416</ele>
        <time>2016-04-05T13:41:23Z</time>
      </trkpt>
      <trkpt lat="46.16967" lon="2.39927">
        <ele>416</ele>
        <time>2016-04-05T13:41:26Z</time>
      </trkpt>
      <trkpt lat="46.16964" lon="2.39922">
        <ele>416</ele>
        <time>2016-04-05T13:41:29Z</time>
      </trkpt>
      <trkpt lat="46.1696" lon="2.39915">
        <ele>416</ele>
        <time>2016-04-05T13:41:33Z</time>
      </trkpt>
      <trkpt lat="46.16957" lon="2.3991">
        <ele>416</ele>
        <time>2016-04-05T13:41:36Z</time>
      </trkpt>
      <trkpt lat="46.16955" lon="2.39905">
        <ele>416</ele>
        <time>2016-04-05T13:41:39Z</time>
      </trkpt>
      <trkpt lat="46.16951" lon="2.39899">
        <ele>416</ele>
        <time>2016-04-05T13:41:43Z</time>
      </trkpt>
      <trkpt lat="46.16949" lon="2.39894">
        <ele>416</ele>
        <time>2016-04-05T13:41:46Z</time>
      </trkpt>
      <trkpt lat="46.16947" lon="2.39889">
        <ele>416</ele>
        <time>2016-04-05T13:41:49Z</time>
      </trkpt>
      <trkpt lat="46.16943" lon="2.3988">
        <ele>417</ele>
        <time>2016-04-05T13:41:53Z</time>
      </trkpt>
      <trkpt lat="46.16941" lon="2.39876">
        <ele>417</ele>
        <time>2016-04-05T13:41:56Z</time>
      </trkpt>
      <trkpt lat="46.16938" lon="2.39871">
        <ele>417</ele>
        <time>2016-04-05T13:41:59Z</time>
      </trkpt>
      <trkpt lat="46.16934" lon="2.39867">
        <ele>417</ele>
        <time>2016-04-05T13:42:03Z</time>
      </trkpt>
      <trkpt lat="46.16931" lon="2.39862">
        <ele>417</ele>
        <time>2016-04-05T13:42:06Z</time>
      </trkpt>
      <trkpt lat="46.16928" lon="2.39858">
        <ele>417</ele>
        <time>2016-04-05T13:42:10Z</time>
      </trkpt>
      <trkpt lat="46.16924" lon="2.39854">
        <ele>417</ele>
        <time>2016-04-05T13:42:14Z</time>
      </trkpt>
      <trkpt lat="46.16921" lon="2.3985">
        <ele>417</ele>
        <time>2016-04-05T13:42:18Z</time>
      </trkpt>
      <trkpt lat="46.16917" lon="2.39845">
        <ele>417</ele>
        <time>2016-04-05T13:42:22Z</time>
      </trkpt>
      <trkpt lat="46.16912" lon="2.39839">
        <ele>417</ele>
        <time>2016-04-05T13:42:26Z</time>
      </trkpt>
      <trkpt lat="46.16909" lon="2.39836">
        <ele>417</ele>
        <time>2016-04-05T13:42:29Z</time>
      </trkpt>
      <trkpt lat="46.16906" lon="2.39834">
        <ele>417</ele>
        <time>2016-04-05T13:42:32Z</time>
      </trkpt>
      <trkpt lat="46.16902" lon="2.39831">
        <ele>417</ele>
        <time>2016-04-05T13:42:36Z</time>
      </trkpt>
      <trkpt lat="46.16898" lon="2.3983">
        <ele>417</ele>
        <time>2016-04-05T13:42:39Z</time>
      </trkpt>
      <trkpt lat="46.16893" lon="2.39827">
        <ele>417</ele>
        <time>2016-04-05T13:42:42Z</time>
      </trkpt>
      <trkpt lat="46.16888" lon="2.39825">
        <ele>417</ele>
        <time>2016-04-05T13:42:45Z</time>
      </trkpt>
      <trkpt lat="46.16883" lon="2.39822">
        <ele>417</ele>
        <time>2016-04-05T13:42:48Z</time>
      </trkpt>
      <trkpt lat="46.16879" lon="2.39819">
        <ele>417</ele>
        <time>2016-04-05T13:42:51Z</time>
      </trkpt>
      <trkpt lat="46.16876" lon="2.39816">
        <ele>417</ele>
        <time>2016-04-05T13:42:54Z</time>
      </trkpt>
      <trkpt lat="46.16872" lon="2.39811">
        <ele>418</ele>
        <time>2016-04-05T13:42:58Z</time>
      </trkpt>
      <trkpt lat="46.16868" lon="2.39807">
        <ele>418</ele>
        <time>2016-04-05T13:43:02Z</time>
      </trkpt>
      <trkpt lat="46.16865" lon="2.39803">
        <ele>418</ele>
        <time>2016-04-05T13:43:06Z</time>
      </trkpt>
      <trkpt lat="46.16865" lon="2.39801">
        <ele>418</ele>
        <time>2016-04-05T13:43:17Z</time>
      </trkpt>
      <trkpt lat="46.16864" lon="2.39797">
        <ele>418</ele>
        <time>2016-04-05T13:43:21Z</time>
      </trkpt>
      <trkpt lat="46.16861" lon="2.39794">
        <ele>418</ele>
        <time>2016-04-05T13:43:25Z</time>
      </trkpt>
      <trkpt lat="46.1686" lon="2.39794">
        <ele>418</ele>
        <time>2016-04-05T13:43:40Z</time>
      </trkpt>
      <trkpt lat="46.16857" lon="2.39797">
        <ele>418</ele>
        <time>2016-04-05T13:43:44Z</time>
      </trkpt>
      <trkpt lat="46.16854" lon="2.39801">
        <ele>418</ele>
        <time>2016-04-05T13:43:49Z</time>
      </trkpt>
      <trkpt lat="46.16851" lon="2.39803">
        <ele>418</ele>
        <time>2016-04-05T13:43:52Z</time>
      </trkpt>
      <trkpt lat="46.16848" lon="2.39805">
        <ele>418</ele>
        <time>2016-04-05T13:43:55Z</time>
      </trkpt>
      <trkpt lat="46.16844" lon="2.39806">
        <ele>418</ele>
        <time>2016-04-05T13:43:58Z</time>
      </trkpt>
      <trkpt lat="46.1684" lon="2.39808">
        <ele>418</ele>
        <time>2016-04-05T13:44:01Z</time>
      </trkpt>
      <trkpt lat="46.16836" lon="2.39809">
        <ele>418</ele>
        <time>2016-04-05T13:44:04Z</time>
      </trkpt>
      <trkpt lat="46.16831" lon="2.3981">
        <ele>418</ele>
        <time>2016-04-05T13:44:08Z</time>
      </trkpt>
      <trkpt lat="46.16827" lon="2.39812">
        <ele>418</ele>
        <time>2016-04-05T13:44:11Z</time>
      </trkpt>
      <trkpt lat="46.16824" lon="2.39815">
        <ele>418</ele>
        <time>2016-04-05T13:44:14Z</time>
      </trkpt>
      <trkpt lat="46.1682" lon="2.39817">
        <ele>418</ele>
        <time>2016-04-05T13:44:17Z</time>
      </trkpt>
      <trkpt lat="46.16816" lon="2.39819">
        <ele>418</ele>
        <time>2016-04-05T13:44:20Z</time>
      </trkpt>
      <trkpt lat="46.16813" lon="2.39821">
        <ele>418</ele>
        <time>2016-04-05T13:44:23Z</time>
      </trkpt>
      <trkpt lat="46.16808" lon="2.39823">
        <ele>418</ele>
        <time>2016-04-05T13:44:26Z</time>
      </trkpt>
      <trkpt lat="46.16805" lon="2.39824">
        <ele>418</ele>
        <time>2016-04-05T13:44:29Z</time>
      </trkpt>
      <trkpt lat="46.16801" lon="2.39826">
        <ele>418</ele>
        <time>2016-04-05T13:44:32Z</time>
      </trkpt>
      <trkpt lat="46.16796" lon="2.39827">
        <ele>418</ele>
        <time>2016-04-05T13:44:36Z</time>
      </trkpt>
      <trkpt lat="46.16792" lon="2.3983">
        <ele>418</ele>
        <time>2016-04-05T13:44:40Z</time>
      </trkpt>
      <trkpt lat="46.16789" lon="2.39832">
        <ele>418</ele>
        <time>2016-04-05T13:44:43Z</time>
      </trkpt>
      <trkpt lat="46.16785" lon="2.39833">
        <ele>418</ele>
        <time>2016-04-05T13:44:46Z</time>
      </trkpt>
      <trkpt lat="46.16782" lon="2.39835">
        <ele>418</ele>
        <time>2016-04-05T13:44:49Z</time>
      </trkpt>
      <trkpt lat="46.16779" lon="2.39837">
        <ele>418</ele>
        <time>2016-04-05T13:44:52Z</time>
      </trkpt>
      <trkpt lat="46.16776" lon="2.3984">
        <ele>418</ele>
        <time>2016-04-05T13:44:55Z</time>
      </trkpt>
      <trkpt lat="46.16772" lon="2.39842">
        <ele>418</ele>
        <time>2016-04-05T13:44:58Z</time>
      </trkpt>
      <trkpt lat="46.16768" lon="2.39845">
        <ele>418</ele>
        <time>2016-04-05T13:45:01Z</time>
      </trkpt>
      <trkpt lat="46.16764" lon="2.39849">
        <ele>418</ele>
        <time>2016-04-05T13:45:05Z</time>
      </trkpt>
      <trkpt lat="46.1676" lon="2.39854">
        <ele>418</ele>
        <time>2016-04-05T13:45:09Z</time>
      </trkpt>
      <trkpt lat="46.16756" lon="2.39857">
        <ele>418</ele>
        <time>2016-04-05T13:45:12Z</time>
      </trkpt>
      <trkpt lat="46.16752" lon="2.39861">
        <ele>418</ele>
        <time>2016-04-05T13:45:16Z</time>
      </trkpt>
      <trkpt lat="46.16749" lon="2.39864">
        <ele>418</ele>
        <time>2016-04-05T13:45:19Z</time>
      </trkpt>
      <trkpt lat="46.16745" lon="2.39868">
        <ele>418</ele>
        <time>2016-04-05T13:45:22Z</time>
      </trkpt>
      <trkpt lat="46.16745" lon="2.39873">
        <ele>418</ele>
        <time>2016-04-05T13:45:25Z</time>
      </trkpt>
      <trkpt lat="46.16744" lon="2.39879">
        <ele>418</ele>
        <time>2016-04-05T13:45:29Z</time>
      </trkpt>
      <trkpt lat="46.16742" lon="2.39879">
        <ele>418</ele>
        <time>2016-04-05T13:45:35Z</time>
      </trkpt>
      <trkpt lat="46.16738" lon="2.39881">
        <ele>418</ele>
        <time>2016-04-05T13:45:38Z</time>
      </trkpt>
      <trkpt lat="46.16735" lon="2.39883">
        <ele>418</ele>
        <time>2016-04-05T13:45:41Z</time>
      </trkpt>
      <trkpt lat="46.16731" lon="2.39886">
        <ele>418</ele>
        <time>2016-04-05T13:45:44Z</time>
      </trkpt>
      <trkpt lat="46.16726" lon="2.39889">
        <ele>418</ele>
        <time>2016-04-05T13:45:48Z</time>
      </trkpt>
      <trkpt lat="46.16723" lon="2.39891">
        <ele>418</ele>
        <time>2016-04-05T13:45:51Z</time>
      </trkpt>
      <trkpt lat="46.16719" lon="2.39891">
        <ele>418</ele>
        <time>2016-04-05T13:45:54Z</time>
      </trkpt>
      <trkpt lat="46.16715" lon="2.39894">
        <ele>418</ele>
        <time>2016-04-05T13:45:57Z</time>
      </trkpt>
      <trkpt lat="46.16711" lon="2.39895">
        <ele>418</ele>
        <time>2016-04-05T13:46:00Z</time>
      </trkpt>
      <trkpt lat="46.16707" lon="2.39896">
        <ele>418</ele>
        <time>2016-04-05T13:46:03Z</time>
      </trkpt>
      <trkpt lat="46.16703" lon="2.39895">
        <ele>418</ele>
        <time>2016-04-05T13:46:06Z</time>
      </trkpt>
      <trkpt lat="46.16699" lon="2.39895">
        <ele>418</ele>
        <time>2016-04-05T13:46:09Z</time>
      </trkpt>
      <trkpt lat="46.16695" lon="2.39894">
        <ele>418</ele>
        <time>2016-04-05T13:46:12Z</time>
      </trkpt>
      <trkpt lat="46.16691" lon="2.39893">
        <ele>418</ele>
        <time>2016-04-05T13:46:15Z</time>
      </trkpt>
      <trkpt lat="46.16687" lon="2.39892">
        <ele>418</ele>
        <time>2016-04-05T13:46:18Z</time>
      </trkpt>
      <trkpt lat="46.16683" lon="2.39891">
        <ele>418</ele>
        <time>2016-04-05T13:46:21Z</time>
      </trkpt>
      <trkpt lat="46.16679" lon="2.39889">
        <ele>418</ele>
        <time>2016-04-05T13:46:24Z</time>
      </trkpt>
      <trkpt lat="46.16675" lon="2.39888">
        <ele>418</ele>
        <time>2016-04-05T13:46:27Z</time>
      </trkpt>
      <trkpt lat="46.16671" lon="2.39887">
        <ele>418</ele>
        <time>2016-04-05T13:46:30Z</time>
      </trkpt>
      <trkpt lat="46.16667" lon="2.39885">
        <ele>418</ele>
        <time>2016-04-05T13:46:33Z</time>
      </trkpt>
      <trkpt lat="46.16663" lon="2.39883">
        <ele>418</ele>
        <time>2016-04-05T13:46:36Z</time>
      </trkpt>
      <trkpt lat="46.16659" lon="2.39881">
        <ele>418</ele>
        <time>2016-04-05T13:46:39Z</time>
      </trkpt>
      <trkpt lat="46.16655" lon="2.39879">
        <ele>418</ele>
        <time>2016-04-05T13:46:42Z</time>
      </trkpt>
      <trkpt lat="46.16651" lon="2.39877">
        <ele>418</ele>
        <time>2016-04-05T13:46:45Z</time>
      </trkpt>
      <trkpt lat="46.16647" lon="2.39874">
        <ele>418</ele>
        <time>2016-04-05T13:46:48Z</time>
      </trkpt>
      <trkpt lat="46.16643" lon="2.39872">
        <ele>418</ele>
        <time>2016-04-05T13:46:51Z</time>
      </trkpt>
      <trkpt lat="46.16639" lon="2.39869">
        <ele>418</ele>
        <time>2016-04-05T13:46:54Z</time>
      </trkpt>
      <trkpt lat="46.16635" lon="2.39867">
        <ele>418</ele>
        <time>2016-04-05T13:46:57Z</time>
      </trkpt>
      <trkpt lat="46.16632" lon="2.39863">
        <ele>418</ele>
        <time>2016-04-05T13:47:00Z</time>
      </trkpt>
      <trkpt lat="46.16629" lon="2.3986">
        <ele>418</ele>
        <time>2016-04-05T13:47:03Z</time>
      </trkpt>
      <trkpt lat="46.16625" lon="2.39857">
        <ele>418</ele>
        <time>2016-04-05T13:47:06Z</time>
      </trkpt>
      <trkpt lat="46.16621" lon="2.39855">
        <ele>418</ele>
        <time>2016-04-05T13:47:09Z</time>
      </trkpt>
      <trkpt lat="46.16618" lon="2.39855">
        <ele>418</ele>
        <time>2016-04-05T13:47:12Z</time>
      </trkpt>
      <trkpt lat="46.16615" lon="2.39854">
        <ele>418</ele>
        <time>2016-04-05T13:47:17Z</time>
      </trkpt>
      <trkpt lat="46.16611" lon="2.39856">
        <ele>418</ele>
        <time>2016-04-05T13:47:20Z</time>
      </trkpt>
      <trkpt lat="46.16608" lon="2.3986">
        <ele>418</ele>
        <time>2016-04-05T13:47:23Z</time>
      </trkpt>
      <trkpt lat="46.16605" lon="2.39864">
        <ele>418</ele>
        <time>2016-04-05T13:47:26Z</time>
      </trkpt>
      <trkpt lat="46.16602" lon="2.39868">
        <ele>418</ele>
        <time>2016-04-05T13:47:29Z</time>
      </trkpt>
      <trkpt lat="46.16598" lon="2.39871">
        <ele>418</ele>
        <time>2016-04-05T13:47:32Z</time>
      </trkpt>
      <trkpt lat="46.16594" lon="2.39873">
        <ele>418</ele>
        <time>2016-04-05T13:47:35Z</time>
      </trkpt>
      <trkpt lat="46.16591" lon="2.39875">
        <ele>418</ele>
        <time>2016-04-05T13:47:38Z</time>
      </trkpt>
      <trkpt lat="46.16586" lon="2.39879">
        <ele>418</ele>
        <time>2016-04-05T13:47:42Z</time>
      </trkpt>
      <trkpt lat="46.16582" lon="2.39882">
        <ele>417</ele>
        <time>2016-04-05T13:47:46Z</time>
      </trkpt>
      <trkpt lat="46.16579" lon="2.39886">
        <ele>416</ele>
        <time>2016-04-05T13:47:50Z</time>
      </trkpt>
      <trkpt lat="46.16575" lon="2.3989">
        <ele>415</ele>
        <time>2016-04-05T13:47:54Z</time>
      </trkpt>
      <trkpt lat="46.16571" lon="2.39893">
        <ele>414</ele>
        <time>2016-04-05T13:47:57Z</time>
      </trkpt>
      <trkpt lat="46.16567" lon="2.39894">
        <ele>414</ele>
        <time>2016-04-05T13:48:00Z</time>
      </trkpt>
      <trkpt lat="46.16563" lon="2.39896">
        <ele>414</ele>
        <time>2016-04-05T13:48:03Z</time>
      </trkpt>
      <trkpt lat="46.16558" lon="2.39899">
        <ele>413</ele>
        <time>2016-04-05T13:48:07Z</time>
      </trkpt>
      <trkpt lat="46.16555" lon="2.39901">
        <ele>413</ele>
        <time>2016-04-05T13:48:11Z</time>
      </trkpt>
      <trkpt lat="46.1655" lon="2.39903">
        <ele>413</ele>
        <time>2016-04-05T13:48:14Z</time>
      </trkpt>
      <trkpt lat="46.16547" lon="2.39905">
        <ele>412</ele>
        <time>2016-04-05T13:48:17Z</time>
      </trkpt>
      <trkpt lat="46.16543" lon="2.39907">
        <ele>412</ele>
        <time>2016-04-05T13:48:20Z</time>
      </trkpt>
      <trkpt lat="46.16539" lon="2.3991">
        <ele>412</ele>
        <time>2016-04-05T13:48:23Z</time>
      </trkpt>
      <trkpt lat="46.16535" lon="2.39913">
        <ele>411</ele>
        <time>2016-04-05T13:48:26Z</time>
      </trkpt>
      <trkpt lat="46.16531" lon="2.39915">
        <ele>411</ele>
        <time>2016-04-05T13:48:29Z</time>
      </trkpt>
      <trkpt lat="46.16527" lon="2.39917">
        <ele>411</ele>
        <time>2016-04-05T13:48:33Z</time>
      </trkpt>
      <trkpt lat="46.16523" lon="2.39919">
        <ele>411</ele>
        <time>2016-04-05T13:48:37Z</time>
      </trkpt>
      <trkpt lat="46.16519" lon="2.39922">
        <ele>410</ele>
        <time>2016-04-05T13:48:41Z</time>
      </trkpt>
      <trkpt lat="46.16514" lon="2.39923">
        <ele>409</ele>
        <time>2016-04-05T13:48:44Z</time>
      </trkpt>
      <trkpt lat="46.1651" lon="2.39924">
        <ele>408</ele>
        <time>2016-04-05T13:48:47Z</time>
      </trkpt>
      <trkpt lat="46.16505" lon="2.39927">
        <ele>408</ele>
        <time>2016-04-05T13:48:50Z</time>
      </trkpt>
      <trkpt lat="46.165" lon="2.39928">
        <ele>408</ele>
        <time>2016-04-05T13:48:53Z</time>
      </trkpt>
      <trkpt lat="46.16497" lon="2.39928">
        <ele>408</ele>
        <time>2016-04-05T13:48:56Z</time>
      </trkpt>
      <trkpt lat="46.16493" lon="2.39928">
        <ele>408</ele>
        <time>2016-04-05T13:48:59Z</time>
      </trkpt>
      <trkpt lat="46.16489" lon="2.39927">
        <ele>408</ele>
        <time>2016-04-05T13:49:02Z</time>
      </trkpt>
      <trkpt lat="46.16485" lon="2.39927">
        <ele>408</ele>
        <time>2016-04-05T13:49:05Z</time>
      </trkpt>
      <trkpt lat="46.16481" lon="2.39927">
        <ele>408</ele>
        <time>2016-04-05T13:49:08Z</time>
      </trkpt>
      <trkpt lat="46.16478" lon="2.39926">
        <ele>408</ele>
        <time>2016-04-05T13:49:11Z</time>
      </trkpt>
      <trkpt lat="46.16475" lon="2.39925">
        <ele>408</ele>
        <time>2016-04-05T13:49:14Z</time>
      </trkpt>
      <trkpt lat="46.16471" lon="2.39923">
        <ele>408</ele>
        <time>2016-04-05T13:49:17Z</time>
      </trkpt>
      <trkpt lat="46.16466" lon="2.39921">
        <ele>408</ele>
        <time>2016-04-05T13:49:20Z</time>
      </trkpt>
      <trkpt lat="46.16462" lon="2.3992">
        <ele>408</ele>
        <time>2016-04-05T13:49:23Z</time>
      </trkpt>
      <trkpt lat="46.16457" lon="2.39917">
        <ele>408</ele>
        <time>2016-04-05T13:49:26Z</time>
      </trkpt>
      <trkpt lat="46.16454" lon="2.39915">
        <ele>408</ele>
        <time>2016-04-05T13:49:29Z</time>
      </trkpt>
      <trkpt lat="46.1645" lon="2.39913">
        <ele>408</ele>
        <time>2016-04-05T13:49:32Z</time>
      </trkpt>
      <trkpt lat="46.16446" lon="2.3991">
        <ele>408</ele>
        <time>2016-04-05T13:49:35Z</time>
      </trkpt>
      <trkpt lat="46.16442" lon="2.39908">
        <ele>408</ele>
        <time>2016-04-05T13:49:38Z</time>
      </trkpt>
      <trkpt lat="46.16438" lon="2.39906">
        <ele>408</ele>
        <time>2016-04-05T13:49:41Z</time>
      </trkpt>
      <trkpt lat="46.16433" lon="2.39904">
        <ele>408</ele>
        <time>2016-04-05T13:49:45Z</time>
      </trkpt>
      <trkpt lat="46.16429" lon="2.39903">
        <ele>408</ele>
        <time>2016-04-05T13:49:48Z</time>
      </trkpt>
      <trkpt lat="46.16426" lon="2.39902">
        <ele>408</ele>
        <time>2016-04-05T13:49:51Z</time>
      </trkpt>
      <trkpt lat="46.16422" lon="2.39901">
        <ele>408</ele>
        <time>2016-04-05T13:49:55Z</time>
      </trkpt>
      <trkpt lat="46.16418" lon="2.39901">
        <ele>408</ele>
        <time>2016-04-05T13:49:59Z</time>
      </trkpt>
      <trkpt lat="46.16414" lon="2.39901">
        <ele>408</ele>
        <time>2016-04-05T13:50:02Z</time>
      </trkpt>
      <trkpt lat="46.16411" lon="2.399">
        <ele>408</ele>
        <time>2016-04-05T13:50:06Z</time>
      </trkpt>
      <trkpt lat="46.16408" lon="2.39902">
        <ele>408</ele>
        <time>2016-04-05T13:50:10Z</time>
      </trkpt>
      <trkpt lat="46.16405" lon="2.39903">
        <ele>407</ele>
        <time>2016-04-05T13:50:14Z</time>
      </trkpt>
      <trkpt lat="46.16402" lon="2.39904">
        <ele>407</ele>
        <time>2016-04-05T13:50:18Z</time>
      </trkpt>
      <trkpt lat="46.16399" lon="2.39906">
        <ele>407</ele>
        <time>2016-04-05T13:50:22Z</time>
      </trkpt>
      <trkpt lat="46.16395" lon="2.39911">
        <ele>407</ele>
        <time>2016-04-05T13:50:26Z</time>
      </trkpt>
      <trkpt lat="46.16391" lon="2.39914">
        <ele>407</ele>
        <time>2016-04-05T13:50:29Z</time>
      </trkpt>
      <trkpt lat="46.16387" lon="2.39918">
        <ele>406</ele>
        <time>2016-04-05T13:50:32Z</time>
      </trkpt>
      <trkpt lat="46.16384" lon="2.39923">
        <ele>405</ele>
        <time>2016-04-05T13:50:35Z</time>
      </trkpt>
      <trkpt lat="46.16382" lon="2.39928">
        <ele>405</ele>
        <time>2016-04-05T13:50:39Z</time>
      </trkpt>
      <trkpt lat="46.1638" lon="2.39933">
        <ele>405</ele>
        <time>2016-04-05T13:50:42Z</time>
      </trkpt>
      <trkpt lat="46.16377" lon="2.39939">
        <ele>404</ele>
        <time>2016-04-05T13:50:45Z</time>
      </trkpt>
      <trkpt lat="46.16374" lon="2.39944">
        <ele>403</ele>
        <time>2016-04-05T13:50:48Z</time>
      </trkpt>
      <trkpt lat="46.16371" lon="2.39949">
        <ele>401</ele>
        <time>2016-04-05T13:50:51Z</time>
      </trkpt>
      <trkpt lat="46.16369" lon="2.39954">
        <ele>401</ele>
        <time>2016-04-05T13:50:54Z</time>
      </trkpt>
      <trkpt lat="46.16367" lon="2.39959">
        <ele>400</ele>
        <time>2016-04-05T13:50:57Z</time>
      </trkpt>
      <trkpt lat="46.16365" lon="2.39964">
        <ele>399</ele>
        <time>2016-04-05T13:51:00Z</time>
      </trkpt>
      <trkpt lat="46.16363" lon="2.39969">
        <ele>399</ele>
        <time>2016-04-05T13:51:03Z</time>
      </trkpt>
      <trkpt lat="46.16362" lon="2.39975">
        <ele>398</ele>
        <time>2016-04-05T13:51:06Z</time>
      </trkpt>
      <trkpt lat="46.1636" lon="2.39982">
        <ele>398</ele>
        <time>2016-04-05T13:51:09Z</time>
      </trkpt>
      <trkpt lat="46.1636" lon="2.39988">
        <ele>397</ele>
        <time>2016-04-05T13:51:12Z</time>
      </trkpt>
      <trkpt lat="46.16361" lon="2.39993">
        <ele>397</ele>
        <time>2016-04-05T13:51:15Z</time>
      </trkpt>
      <trkpt lat="46.16362" lon="2.39997">
        <ele>395</ele>
        <time>2016-04-05T13:51:18Z</time>
      </trkpt>
      <trkpt lat="46.16362" lon="2.40002">
        <ele>393</ele>
        <time>2016-04-05T13:51:22Z</time>
      </trkpt>
      <trkpt lat="46.16365" lon="2.40007">
        <ele>392</ele>
        <time>2016-04-05T13:51:26Z</time>
      </trkpt>
      <trkpt lat="46.16366" lon="2.40011">
        <ele>391</ele>
        <time>2016-04-05T13:51:29Z</time>
      </trkpt>
      <trkpt lat="46.16367" lon="2.40015">
        <ele>389</ele>
        <time>2016-04-05T13:51:32Z</time>
      </trkpt>
      <trkpt lat="46.16368" lon="2.40018">
        <ele>387</ele>
        <time>2016-04-05T13:51:36Z</time>
      </trkpt>
      <trkpt lat="46.16369" lon="2.40023">
        <ele>385</ele>
        <time>2016-04-05T13:51:40Z</time>
      </trkpt>
      <trkpt lat="46.1637" lon="2.40026">
        <ele>383</ele>
        <time>2016-04-05T13:51:43Z</time>
      </trkpt>
      <trkpt lat="46.16372" lon="2.40031">
        <ele>382</ele>
        <time>2016-04-05T13:51:47Z</time>
      </trkpt>
      <trkpt lat="46.16374" lon="2.40035">
        <ele>382</ele>
        <time>2016-04-05T13:51:51Z</time>
      </trkpt>
      <trkpt lat="46.16376" lon="2.40039">
        <ele>382</ele>
        <time>2016-04-05T13:51:55Z</time>
      </trkpt>
      <trkpt lat="46.16376" lon="2.40043">
        <ele>381</ele>
        <time>2016-04-05T13:51:58Z</time>
      </trkpt>
      <trkpt lat="46.16375" lon="2.40046">
        <ele>379</ele>
        <time>2016-04-05T13:52:01Z</time>
      </trkpt>
      <trkpt lat="46.16373" lon="2.4005">
        <ele>379</ele>
        <time>2016-04-05T13:52:05Z</time>
      </trkpt>
      <trkpt lat="46.16371" lon="2.40056">
        <ele>379</ele>
        <time>2016-04-05T13:52:09Z</time>
      </trkpt>
      <trkpt lat="46.16371" lon="2.4006">
        <ele>384</ele>
        <time>2016-04-05T13:52:14Z</time>
      </trkpt>
      <trkpt lat="46.16372" lon="2.40064">
        <ele>386</ele>
        <time>2016-04-05T13:52:19Z</time>
      </trkpt>
      <trkpt lat="46.16373" lon="2.40065">
        <ele>386</ele>
        <time>2016-04-05T13:52:22Z</time>
      </trkpt>
      <trkpt lat="46.16375" lon="2.40069">
        <ele>386</ele>
        <time>2016-04-05T13:52:26Z</time>
      </trkpt>
      <trkpt lat="46.16378" lon="2.40074">
        <ele>386</ele>
        <time>2016-04-05T13:52:30Z</time>
      </trkpt>
      <trkpt lat="46.16379" lon="2.40079">
        <ele>386</ele>
        <time>2016-04-05T13:52:33Z</time>
      </trkpt>
      <trkpt lat="46.16382" lon="2.40084">
        <ele>386</ele>
        <time>2016-04-05T13:52:36Z</time>
      </trkpt>
      <trkpt lat="46.16385" lon="2.40089">
        <ele>386</ele>
        <time>2016-04-05T13:52:40Z</time>
      </trkpt>
      <trkpt lat="46.16388" lon="2.40091">
        <ele>386</ele>
        <time>2016-04-05T13:52:43Z</time>
      </trkpt>
      <trkpt lat="46.16392" lon="2.40097">
        <ele>386</ele>
        <time>2016-04-05T13:52:47Z</time>
      </trkpt>
      <trkpt lat="46.16397" lon="2.40101">
        <ele>385</ele>
        <time>2016-04-05T13:52:51Z</time>
      </trkpt>
      <trkpt lat="46.16399" lon="2.40105">
        <ele>383</ele>
        <time>2016-04-05T13:52:54Z</time>
      </trkpt>
      <trkpt lat="46.16403" lon="2.4011">
        <ele>381</ele>
        <time>2016-04-05T13:52:58Z</time>
      </trkpt>
      <trkpt lat="46.16406" lon="2.40112">
        <ele>379</ele>
        <time>2016-04-05T13:53:01Z</time>
      </trkpt>
      <trkpt lat="46.16408" lon="2.40116">
        <ele>379</ele>
        <time>2016-04-05T13:53:04Z</time>
      </trkpt>
      <trkpt lat="46.1641" lon="2.4012">
        <ele>379</ele>
        <time>2016-04-05T13:53:07Z</time>
      </trkpt>
      <trkpt lat="46.16412" lon="2.40123">
        <ele>379</ele>
        <time>2016-04-05T13:53:10Z</time>
      </trkpt>
      <trkpt lat="46.16417" lon="2.40129">
        <ele>379</ele>
        <time>2016-04-05T13:53:14Z</time>
      </trkpt>
      <trkpt lat="46.1642" lon="2.40131">
        <ele>377</ele>
        <time>2016-04-05T13:53:18Z</time>
      </trkpt>
      <trkpt lat="46.16424" lon="2.40135">
        <ele>377</ele>
        <time>2016-04-05T13:53:21Z</time>
      </trkpt>
      <trkpt lat="46.16427" lon="2.40138">
        <ele>377</ele>
        <time>2016-04-05T13:53:24Z</time>
      </trkpt>
      <trkpt lat="46.16429" lon="2.40143">
        <ele>377</ele>
        <time>2016-04-05T13:53:28Z</time>
      </trkpt>
      <trkpt lat="46.16432" lon="2.40148">
        <ele>377</ele>
        <time>2016-04-05T13:53:32Z</time>
      </trkpt>
      <trkpt lat="46.16433" lon="2.40152">
        <ele>377</ele>
        <time>2016-04-05T13:53:35Z</time>
      </trkpt>
      <trkpt lat="46.16436" lon="2.40156">
        <ele>376</ele>
        <time>2016-04-05T13:53:39Z</time>
      </trkpt>
      <trkpt lat="46.16438" lon="2.40161">
        <ele>374</ele>
        <time>2016-04-05T13:53:43Z</time>
      </trkpt>
      <trkpt lat="46.16441" lon="2.40164">
        <ele>374</ele>
        <time>2016-04-05T13:53:46Z</time>
      </trkpt>
      <trkpt lat="46.16444" lon="2.40167">
        <ele>374</ele>
        <time>2016-04-05T13:53:50Z</time>
      </trkpt>
      <trkpt lat="46.16444" lon="2.40171">
        <ele>374</ele>
        <time>2016-04-05T13:53:53Z</time>
      </trkpt>
      <trkpt lat="46.16445" lon="2.40177">
        <ele>374</ele>
        <time>2016-04-05T13:53:57Z</time>
      </trkpt>
      <trkpt lat="46.16446" lon="2.40182">
        <ele>372</ele>
        <time>2016-04-05T13:54:00Z</time>
      </trkpt>
      <trkpt lat="46.16447" lon="2.40188">
        <ele>369</ele>
        <time>2016-04-05T13:54:04Z</time>
      </trkpt>
      <trkpt lat="46.16446" lon="2.40192">
        <ele>368</ele>
        <time>2016-04-05T13:54:07Z</time>
      </trkpt>
      <trkpt lat="46.16446" lon="2.40197">
        <ele>368</ele>
        <time>2016-04-05T13:54:12Z</time>
      </trkpt>
      <trkpt lat="46.16447" lon="2.40201">
        <ele>368</ele>
        <time>2016-04-05T13:54:15Z</time>
      </trkpt>
      <trkpt lat="46.16448" lon="2.40207">
        <ele>368</ele>
        <time>2016-04-05T13:54:18Z</time>
      </trkpt>
      <trkpt lat="46.16447" lon="2.40212">
        <ele>368</ele>
        <time>2016-04-05T13:54:21Z</time>
      </trkpt>
      <trkpt lat="46.16448" lon="2.40215">
        <ele>368</ele>
        <time>2016-04-05T13:54:24Z</time>
      </trkpt>
      <trkpt lat="46.16448" lon="2.4022">
        <ele>368</ele>
        <time>2016-04-05T13:54:27Z</time>
      </trkpt>
      <trkpt lat="46.16446" lon="2.40226">
        <ele>366</ele>
        <time>2016-04-05T13:54:31Z</time>
      </trkpt>
      <trkpt lat="46.16444" lon="2.4023">
        <ele>364</ele>
        <time>2016-04-05T13:54:35Z</time>
      </trkpt>
      <trkpt lat="46.16441" lon="2.40232">
        <ele>362</ele>
        <time>2016-04-05T13:54:38Z</time>
      </trkpt>
      <trkpt lat="46.16437" lon="2.40231">
        <ele>361</ele>
        <time>2016-04-05T13:54:41Z</time>
      </trkpt>
      <trkpt lat="46.16433" lon="2.40232">
        <ele>361</ele>
        <time>2016-04-05T13:54:44Z</time>
      </trkpt>
      <trkpt lat="46.1643" lon="2.40235">
        <ele>361</ele>
        <time>2016-04-05T13:54:48Z</time>
      </trkpt>
      <trkpt lat="46.16429" lon="2.40238">
        <ele>361</ele>
        <time>2016-04-05T13:54:53Z</time>
      </trkpt>
      <trkpt lat="46.16428" lon="2.4024">
        <ele>361</ele>
        <time>2016-04-05T13:54:56Z</time>
      </trkpt>
      <trkpt lat="46.16428" lon="2.40242">
        <ele>363</ele>
        <time>2016-04-05T13:54:59Z</time>
      </trkpt>
      <trkpt lat="46.16426" lon="2.40246">
        <ele>364</ele>
        <time>2016-04-05T13:55:03Z</time>
      </trkpt>
      <trkpt lat="46.16427" lon="2.4025">
        <ele>364</ele>
        <time>2016-04-05T13:55:07Z</time>
      </trkpt>
      <trkpt lat="46.16427" lon="2.40255">
        <ele>364</ele>
        <time>2016-04-05T13:55:10Z</time>
      </trkpt>
      <trkpt lat="46.16427" lon="2.40262">
        <ele>362</ele>
        <time>2016-04-05T13:55:14Z</time>
      </trkpt>
      <trkpt lat="46.16428" lon="2.40266">
        <ele>360</ele>
        <time>2016-04-05T13:55:17Z</time>
      </trkpt>
      <trkpt lat="46.16428" lon="2.40271">
        <ele>359</ele>
        <time>2016-04-05T13:55:20Z</time>
      </trkpt>
      <trkpt lat="46.16428" lon="2.40275">
        <ele>357</ele>
        <time>2016-04-05T13:55:23Z</time>
      </trkpt>
      <trkpt lat="46.16427" lon="2.40279">
        <ele>355</ele>
        <time>2016-04-05T13:55:27Z</time>
      </trkpt>
      <trkpt lat="46.16426" lon="2.40283">
        <ele>355</ele>
        <time>2016-04-05T13:55:30Z</time>
      </trkpt>
      <trkpt lat="46.16426" lon="2.40287">
        <ele>353</ele>
        <time>2016-04-05T13:55:35Z</time>
      </trkpt>
      <trkpt lat="46.16427" lon="2.40288">
        <ele>352</ele>
        <time>2016-04-05T13:55:38Z</time>
      </trkpt>
      <trkpt lat="46.16427" lon="2.4029">
        <ele>352</ele>
        <time>2016-04-05T13:55:41Z</time>
      </trkpt>
      <trkpt lat="46.16426" lon="2.40292">
        <ele>352</ele>
        <time>2016-04-05T13:55:44Z</time>
      </trkpt>
      <trkpt lat="46.16426" lon="2.40294">
        <ele>352</ele>
        <time>2016-04-05T13:55:48Z</time>
      </trkpt>
      <trkpt lat="46.16426" lon="2.40296">
        <ele>352</ele>
        <time>2016-04-05T13:55:52Z</time>
      </trkpt>
      <trkpt lat="46.16427" lon="2.40295">
        <ele>355</ele>
        <time>2016-04-05T13:55:55Z</time>
      </trkpt>
      <trkpt lat="46.16428" lon="2.40298">
        <ele>358</ele>
        <time>2016-04-05T13:55:58Z</time>
      </trkpt>
      <trkpt lat="46.1643" lon="2.40301">
        <ele>362</ele>
        <time>2016-04-05T13:56:02Z</time>
      </trkpt>
      <trkpt lat="46.16429" lon="2.403">
        <ele>364</ele>
        <time>2016-04-05T13:56:05Z</time>
      </trkpt>
      <trkpt lat="46.1643" lon="2.40297">
        <ele>366</ele>
        <time>2016-04-05T13:56:09Z</time>
      </trkpt>
      <trkpt lat="46.16429" lon="2.40295">
        <ele>368</ele>
        <time>2016-04-05T13:56:12Z</time>
      </trkpt>
      <trkpt lat="46.16429" lon="2.40293">
        <ele>369</ele>
        <time>2016-04-05T13:56:18Z</time>
      </trkpt>
      <trkpt lat="46.1643" lon="2.40291">
        <ele>369</ele>
        <time>2016-04-05T13:56:22Z</time>
      </trkpt>
      <trkpt lat="46.1643" lon="2.40289">
        <ele>369</ele>
        <time>2016-04-05T13:56:26Z</time>
      </trkpt>
      <trkpt lat="46.16431" lon="2.40288">
        <ele>369</ele>
        <time>2016-04-05T13:56:29Z</time>
      </trkpt>
      <trkpt lat="46.16432" lon="2.40286">
        <ele>369</ele>
        <time>2016-04-05T13:56:32Z</time>
      </trkpt>
      <trkpt lat="46.16433" lon="2.40284">
        <ele>370</ele>
        <time>2016-04-05T13:56:36Z</time>
      </trkpt>
      <trkpt lat="46.16434" lon="2.40283">
        <ele>370</ele>
        <time>2016-04-05T13:56:40Z</time>
      </trkpt>
      <trkpt lat="46.16437" lon="2.40281">
        <ele>371</ele>
        <time>2016-04-05T13:57:00Z</time>
      </trkpt>
      <trkpt lat="46.16438" lon="2.4028">
        <ele>371</ele>
        <time>2016-04-05T13:57:06Z</time>
      </trkpt>
      <trkpt lat="46.16436" lon="2.40279">
        <ele>373</ele>
        <time>2016-04-05T13:57:13Z</time>
      </trkpt>
      <trkpt lat="46.16432" lon="2.40277">
        <ele>373</ele>
        <time>2016-04-05T13:57:17Z</time>
      </trkpt>
      <trkpt lat="46.16432" lon="2.40279">
        <ele>373</ele>
        <time>2016-04-05T13:57:30Z</time>
      </trkpt>
      <trkpt lat="46.16431" lon="2.4028">
        <ele>373</ele>
        <time>2016-04-05T13:57:34Z</time>
      </trkpt>
      <trkpt lat="46.16431" lon="2.40282">
        <ele>373</ele>
        <time>2016-04-05T13:57:46Z</time>
      </trkpt>
      <trkpt lat="46.16433" lon="2.40285">
        <ele>373</ele>
        <time>2016-04-05T13:57:49Z</time>
      </trkpt>
      <trkpt lat="46.16435" lon="2.40286">
        <ele>373</ele>
        <time>2016-04-05T13:57:53Z</time>
      </trkpt>
      <trkpt lat="46.16438" lon="2.40286">
        <ele>373</ele>
        <time>2016-04-05T13:57:57Z</time>
      </trkpt>
      <trkpt lat="46.1644" lon="2.40287">
        <ele>373</ele>
        <time>2016-04-05T13:58:03Z</time>
      </trkpt>
      <trkpt lat="46.16443" lon="2.40287">
        <ele>370</ele>
        <time>2016-04-05T13:58:08Z</time>
      </trkpt>
      <trkpt lat="46.16446" lon="2.40286">
        <ele>370</ele>
        <time>2016-04-05T13:58:12Z</time>
      </trkpt>
      <trkpt lat="46.16447" lon="2.40287">
        <ele>370</ele>
        <time>2016-04-05T13:58:22Z</time>
      </trkpt>
      <trkpt lat="46.16448" lon="2.40285">
        <ele>369</ele>
        <time>2016-04-05T13:58:32Z</time>
      </trkpt>
      <trkpt lat="46.16451" lon="2.40281">
        <ele>369</ele>
        <time>2016-04-05T13:58:35Z</time>
      </trkpt>
      <trkpt lat="46.16455" lon="2.40276">
        <ele>369</ele>
        <time>2016-04-05T13:58:38Z</time>
      </trkpt>
      <trkpt lat="46.16456" lon="2.40275">
        <ele>369</ele>
        <time>2016-04-05T13:58:42Z</time>
      </trkpt>
      <trkpt lat="46.16457" lon="2.40277">
        <ele>369</ele>
        <time>2016-04-05T13:58:45Z</time>
      </trkpt>
      <trkpt lat="46.16459" lon="2.40277">
        <ele>369</ele>
        <time>2016-04-05T13:58:49Z</time>
      </trkpt>
      <trkpt lat="46.16462" lon="2.40276">
        <ele>368</ele>
        <time>2016-04-05T13:58:52Z</time>
      </trkpt>
      <trkpt lat="46.16463" lon="2.4028">
        <ele>367</ele>
        <time>2016-04-05T13:58:59Z</time>
      </trkpt>
      <trkpt lat="46.16463" lon="2.40282">
        <ele>367</ele>
        <time>2016-04-05T13:59:02Z</time>
      </trkpt>
      <trkpt lat="46.16462" lon="2.40282">
        <ele>367</ele>
        <time>2016-04-05T13:59:05Z</time>
      </trkpt>
      <trkpt lat="46.16458" lon="2.40282">
        <ele>367</ele>
        <time>2016-04-05T13:59:10Z</time>
      </trkpt>
      <trkpt lat="46.16455" lon="2.40278">
        <ele>367</ele>
        <time>2016-04-05T13:59:14Z</time>
      </trkpt>
      <trkpt lat="46.16452" lon="2.40278">
        <ele>367</ele>
        <time>2016-04-05T13:59:18Z</time>
      </trkpt>
      <trkpt lat="46.16449" lon="2.40279">
        <ele>367</ele>
        <time>2016-04-05T13:59:24Z</time>
      </trkpt>
      <trkpt lat="46.16448" lon="2.4028">
        <ele>367</ele>
        <time>2016-04-05T13:59:27Z</time>
      </trkpt>
      <trkpt lat="46.16447" lon="2.40279">
        <ele>367</ele>
        <time>2016-04-05T13:59:30Z</time>
      </trkpt>
      <trkpt lat="46.16444" lon="2.40279">
        <ele>367</ele>
        <time>2016-04-05T13:59:34Z</time>
      </trkpt>
      <trkpt lat="46.1644" lon="2.40278">
        <ele>367</ele>
        <time>2016-04-05T13:59:38Z</time>
      </trkpt>
      <trkpt lat="46.16436" lon="2.40277">
        <ele>367</ele>
        <time>2016-04-05T13:59:42Z</time>
      </trkpt>
      <trkpt lat="46.16433" lon="2.40277">
        <ele>366</ele>
        <time>2016-04-05T13:59:46Z</time>
      </trkpt>
      <trkpt lat="46.1643" lon="2.4028">
        <ele>365</ele>
        <time>2016-04-05T13:59:50Z</time>
      </trkpt>
      <trkpt lat="46.16428" lon="2.40283">
        <ele>362</ele>
        <time>2016-04-05T13:59:54Z</time>
      </trkpt>
      <trkpt lat="46.16427" lon="2.40288">
        <ele>358</ele>
        <time>2016-04-05T13:59:58Z</time>
      </trkpt>
      <trkpt lat="46.16426" lon="2.40289">
        <ele>356</ele>
        <time>2016-04-05T14:00:01Z</time>
      </trkpt>
      <trkpt lat="46.16426" lon="2.40291">
        <ele>353</ele>
        <time>2016-04-05T14:00:08Z</time>
      </trkpt>
      <trkpt lat="46.16426" lon="2.40293">
        <ele>352</ele>
        <time>2016-04-05T14:00:12Z</time>
      </trkpt>
      <trkpt lat="46.16428" lon="2.40296">
        <ele>352</ele>
        <time>2016-04-05T14:00:16Z</time>
      </trkpt>
      <trkpt lat="46.16429" lon="2.40295">
        <ele>355</ele>
        <time>2016-04-05T14:00:20Z</time>
      </trkpt>
      <trkpt lat="46.16428" lon="2.40295">
        <ele>357</ele>
        <time>2016-04-05T14:00:24Z</time>
      </trkpt>
      <trkpt lat="46.16427" lon="2.40296">
        <ele>358</ele>
        <time>2016-04-05T14:00:27Z</time>
      </trkpt>
      <trkpt lat="46.16426" lon="2.40296">
        <ele>359</ele>
        <time>2016-04-05T14:00:31Z</time>
      </trkpt>
      <trkpt lat="46.16425" lon="2.40297">
        <ele>360</ele>
        <time>2016-04-05T14:00:36Z</time>
      </trkpt>
      <trkpt lat="46.16423" lon="2.40298">
        <ele>360</ele>
        <time>2016-04-05T14:00:42Z</time>
      </trkpt>
      <trkpt lat="46.16422" lon="2.40298">
        <ele>361</ele>
        <time>2016-04-05T14:00:48Z</time>
      </trkpt>
      <trkpt lat="46.16422" lon="2.40296">
        <ele>361</ele>
        <time>2016-04-05T14:00:53Z</time>
      </trkpt>
      <trkpt lat="46.16423" lon="2.40293">
        <ele>362</ele>
        <time>2016-04-05T14:00:56Z</time>
      </trkpt>
      <trkpt lat="46.16426" lon="2.4029">
        <ele>364</ele>
        <time>2016-04-05T14:01:00Z</time>
      </trkpt>
      <trkpt lat="46.16428" lon="2.40286">
        <ele>367</ele>
        <time>2016-04-05T14:01:04Z</time>
      </trkpt>
      <trkpt lat="46.16428" lon="2.40281">
        <ele>368</ele>
        <time>2016-04-05T14:01:08Z</time>
      </trkpt>
      <trkpt lat="46.16427" lon="2.40276">
        <ele>368</ele>
        <time>2016-04-05T14:01:12Z</time>
      </trkpt>
      <trkpt lat="46.16426" lon="2.40272">
        <ele>368</ele>
        <time>2016-04-05T14:01:15Z</time>
      </trkpt>
      <trkpt lat="46.16427" lon="2.40268">
        <ele>370</ele>
        <time>2016-04-05T14:01:18Z</time>
      </trkpt>
      <trkpt lat="46.16424" lon="2.40264">
        <ele>371</ele>
        <time>2016-04-05T14:01:22Z</time>
      </trkpt>
      <trkpt lat="46.16423" lon="2.40259">
        <ele>371</ele>
        <time>2016-04-05T14:01:26Z</time>
      </trkpt>
      <trkpt lat="46.16423" lon="2.40257">
        <ele>371</ele>
        <time>2016-04-05T14:01:29Z</time>
      </trkpt>
      <trkpt lat="46.16424" lon="2.40253">
        <ele>371</ele>
        <time>2016-04-05T14:01:33Z</time>
      </trkpt>
      <trkpt lat="46.16425" lon="2.4025">
        <ele>372</ele>
        <time>2016-04-05T14:01:36Z</time>
      </trkpt>
      <trkpt lat="46.16426" lon="2.40249">
        <ele>373</ele>
        <time>2016-04-05T14:01:40Z</time>
      </trkpt>
      <trkpt lat="46.16425" lon="2.40248">
        <ele>373</ele>
        <time>2016-04-05T14:01:44Z</time>
      </trkpt>
      <trkpt lat="46.16426" lon="2.40249">
        <ele>373</ele>
        <time>2016-04-05T14:01:47Z</time>
      </trkpt>
      <trkpt lat="46.16429" lon="2.4025">
        <ele>373</ele>
        <time>2016-04-05T14:01:51Z</time>
      </trkpt>
      <trkpt lat="46.16432" lon="2.4025">
        <ele>373</ele>
        <time>2016-04-05T14:01:54Z</time>
      </trkpt>
      <trkpt lat="46.16436" lon="2.40249">
        <ele>373</ele>
        <time>2016-04-05T14:01:57Z</time>
      </trkpt>
      <trkpt lat="46.16439" lon="2.40246">
        <ele>374</ele>
        <time>2016-04-05T14:02:01Z</time>
      </trkpt>
      <trkpt lat="46.16442" lon="2.40242">
        <ele>374</ele>
        <time>2016-04-05T14:02:04Z</time>
      </trkpt>
      <trkpt lat="46.16444" lon="2.40237">
        <ele>377</ele>
        <time>2016-04-05T14:02:08Z</time>
      </trkpt>
      <trkpt lat="46.16446" lon="2.40233">
        <ele>379</ele>
        <time>2016-04-05T14:02:11Z</time>
      </trkpt>
      <trkpt lat="46.16447" lon="2.40228">
        <ele>382</ele>
        <time>2016-04-05T14:02:15Z</time>
      </trkpt>
      <trkpt lat="46.16448" lon="2.40222">
        <ele>383</ele>
        <time>2016-04-05T14:02:19Z</time>
      </trkpt>
      <trkpt lat="46.16447" lon="2.40216">
        <ele>383</ele>
        <time>2016-04-05T14:02:22Z</time>
      </trkpt>
      <trkpt lat="46.16449" lon="2.40211">
        <ele>383</ele>
        <time>2016-04-05T14:02:25Z</time>
      </trkpt>
      <trkpt lat="46.16448" lon="2.40205">
        <ele>383</ele>
        <time>2016-04-05T14:02:29Z</time>
      </trkpt>
      <trkpt lat="46.16446" lon="2.402">
        <ele>383</ele>
        <time>2016-04-05T14:02:32Z</time>
      </trkpt>
      <trkpt lat="46.16445" lon="2.40195">
        <ele>383</ele>
        <time>2016-04-05T14:02:35Z</time>
      </trkpt>
      <trkpt lat="46.16445" lon="2.40187">
        <ele>383</ele>
        <time>2016-04-05T14:02:39Z</time>
      </trkpt>
      <trkpt lat="46.16445" lon="2.4018">
        <ele>385</ele>
        <time>2016-04-05T14:02:42Z</time>
      </trkpt>
      <trkpt lat="46.16444" lon="2.40176">
        <ele>386</ele>
        <time>2016-04-05T14:02:45Z</time>
      </trkpt>
      <trkpt lat="46.16442" lon="2.40172">
        <ele>387</ele>
        <time>2016-04-05T14:02:48Z</time>
      </trkpt>
      <trkpt lat="46.1644" lon="2.40168">
        <ele>388</ele>
        <time>2016-04-05T14:02:51Z</time>
      </trkpt>
      <trkpt lat="46.16438" lon="2.40162">
        <ele>388</ele>
        <time>2016-04-05T14:02:55Z</time>
      </trkpt>
      <trkpt lat="46.16435" lon="2.4016">
        <ele>388</ele>
        <time>2016-04-05T14:02:58Z</time>
      </trkpt>
      <trkpt lat="46.16433" lon="2.40155">
        <ele>388</ele>
        <time>2016-04-05T14:03:02Z</time>
      </trkpt>
      <trkpt lat="46.16431" lon="2.40152">
        <ele>388</ele>
        <time>2016-04-05T14:03:05Z</time>
      </trkpt>
      <trkpt lat="46.1643" lon="2.40148">
        <ele>388</ele>
        <time>2016-04-05T14:03:08Z</time>
      </trkpt>
      <trkpt lat="46.16429" lon="2.40143">
        <ele>388</ele>
        <time>2016-04-05T14:03:11Z</time>
      </trkpt>
      <trkpt lat="46.16426" lon="2.40141">
        <ele>388</ele>
        <time>2016-04-05T14:03:15Z</time>
      </trkpt>
      <trkpt lat="46.16423" lon="2.40138">
        <ele>388</ele>
        <time>2016-04-05T14:03:19Z</time>
      </trkpt>
      <trkpt lat="46.16419" lon="2.40135">
        <ele>388</ele>
        <time>2016-04-05T14:03:23Z</time>
      </trkpt>
      <trkpt lat="46.16415" lon="2.40131">
        <ele>390</ele>
        <time>2016-04-05T14:03:27Z</time>
      </trkpt>
      <trkpt lat="46.16412" lon="2.40128">
        <ele>391</ele>
        <time>2016-04-05T14:03:31Z</time>
      </trkpt>
      <trkpt lat="46.16409" lon="2.40126">
        <ele>391</ele>
        <time>2016-04-05T14:03:35Z</time>
      </trkpt>
      <trkpt lat="46.16406" lon="2.40122">
        <ele>391</ele>
        <time>2016-04-05T14:03:39Z</time>
      </trkpt>
      <trkpt lat="46.16403" lon="2.40119">
        <ele>391</ele>
        <time>2016-04-05T14:03:42Z</time>
      </trkpt>
      <trkpt lat="46.16401" lon="2.40113">
        <ele>392</ele>
        <time>2016-04-05T14:03:46Z</time>
      </trkpt>
      <trkpt lat="46.16397" lon="2.40109">
        <ele>392</ele>
        <time>2016-04-05T14:03:50Z</time>
      </trkpt>
      <trkpt lat="46.16396" lon="2.40107">
        <ele>392</ele>
        <time>2016-04-05T14:03:54Z</time>
      </trkpt>
      <trkpt lat="46.16393" lon="2.40103">
        <ele>392</ele>
        <time>2016-04-05T14:03:58Z</time>
      </trkpt>
      <trkpt lat="46.16389" lon="2.401">
        <ele>392</ele>
        <time>2016-04-05T14:04:01Z</time>
      </trkpt>
      <trkpt lat="46.16387" lon="2.40096">
        <ele>392</ele>
        <time>2016-04-05T14:04:05Z</time>
      </trkpt>
      <trkpt lat="46.16385" lon="2.40092">
        <ele>392</ele>
        <time>2016-04-05T14:04:09Z</time>
      </trkpt>
      <trkpt lat="46.16381" lon="2.40088">
        <ele>392</ele>
        <time>2016-04-05T14:04:13Z</time>
      </trkpt>
      <trkpt lat="46.1638" lon="2.40083">
        <ele>392</ele>
        <time>2016-04-05T14:04:17Z</time>
      </trkpt>
      <trkpt lat="46.16378" lon="2.40079">
        <ele>392</ele>
        <time>2016-04-05T14:04:21Z</time>
      </trkpt>
      <trkpt lat="46.16375" lon="2.40076">
        <ele>392</ele>
        <time>2016-04-05T14:04:26Z</time>
      </trkpt>
      <trkpt lat="46.16373" lon="2.40073">
        <ele>392</ele>
        <time>2016-04-05T14:04:31Z</time>
      </trkpt>
      <trkpt lat="46.16373" lon="2.40067">
        <ele>392</ele>
        <time>2016-04-05T14:04:35Z</time>
      </trkpt>
      <trkpt lat="46.16371" lon="2.40066">
        <ele>392</ele>
        <time>2016-04-05T14:04:41Z</time>
      </trkpt>
      <trkpt lat="46.16371" lon="2.40065">
        <ele>393</ele>
        <time>2016-04-05T14:04:53Z</time>
      </trkpt>
      <trkpt lat="46.16374" lon="2.40063">
        <ele>395</ele>
        <time>2016-04-05T14:04:58Z</time>
      </trkpt>
      <trkpt lat="46.16375" lon="2.40063">
        <ele>395</ele>
        <time>2016-04-05T14:05:02Z</time>
      </trkpt>
      <trkpt lat="46.16376" lon="2.40062">
        <ele>397</ele>
        <time>2016-04-05T14:05:07Z</time>
      </trkpt>
      <trkpt lat="46.16376" lon="2.40064">
        <ele>401</ele>
        <time>2016-04-05T14:05:26Z</time>
      </trkpt>
      <trkpt lat="46.16377" lon="2.40062">
        <ele>401</ele>
        <time>2016-04-05T14:05:34Z</time>
      </trkpt>
      <trkpt lat="46.16376" lon="2.40058">
        <ele>401</ele>
        <time>2016-04-05T14:05:38Z</time>
      </trkpt>
      <trkpt lat="46.16371" lon="2.40053">
        <ele>401</ele>
        <time>2016-04-05T14:05:42Z</time>
      </trkpt>
      <trkpt lat="46.1637" lon="2.40048">
        <ele>401</ele>
        <time>2016-04-05T14:05:46Z</time>
      </trkpt>
      <trkpt lat="46.16368" lon="2.40043">
        <ele>401</ele>
        <time>2016-04-05T14:05:50Z</time>
      </trkpt>
      <trkpt lat="46.16366" lon="2.40039">
        <ele>401</ele>
        <time>2016-04-05T14:05:53Z</time>
      </trkpt>
      <trkpt lat="46.16366" lon="2.40036">
        <ele>401</ele>
        <time>2016-04-05T14:05:56Z</time>
      </trkpt>
      <trkpt lat="46.16364" lon="2.40031">
        <ele>401</ele>
        <time>2016-04-05T14:05:59Z</time>
      </trkpt>
      <trkpt lat="46.16362" lon="2.40026">
        <ele>401</ele>
        <time>2016-04-05T14:06:02Z</time>
      </trkpt>
      <trkpt lat="46.16361" lon="2.40021">
        <ele>401</ele>
        <time>2016-04-05T14:06:06Z</time>
      </trkpt>
      <trkpt lat="46.1636" lon="2.40017">
        <ele>401</ele>
        <time>2016-04-05T14:06:09Z</time>
      </trkpt>
      <trkpt lat="46.16359" lon="2.40012">
        <ele>401</ele>
        <time>2016-04-05T14:06:12Z</time>
      </trkpt>
      <trkpt lat="46.16357" lon="2.40007">
        <ele>401</ele>
        <time>2016-04-05T14:06:16Z</time>
      </trkpt>
      <trkpt lat="46.16357" lon="2.40002">
        <ele>401</ele>
        <time>2016-04-05T14:06:20Z</time>
      </trkpt>
      <trkpt lat="46.16356" lon="2.39997">
        <ele>401</ele>
        <time>2016-04-05T14:06:23Z</time>
      </trkpt>
      <trkpt lat="46.16357" lon="2.39991">
        <ele>401</ele>
        <time>2016-04-05T14:06:27Z</time>
      </trkpt>
      <trkpt lat="46.16358" lon="2.39987">
        <ele>401</ele>
        <time>2016-04-05T14:06:30Z</time>
      </trkpt>
      <trkpt lat="46.16359" lon="2.39981">
        <ele>401</ele>
        <time>2016-04-05T14:06:33Z</time>
      </trkpt>
      <trkpt lat="46.1636" lon="2.39975">
        <ele>401</ele>
        <time>2016-04-05T14:06:37Z</time>
      </trkpt>
      <trkpt lat="46.16362" lon="2.39971">
        <ele>401</ele>
        <time>2016-04-05T14:06:40Z</time>
      </trkpt>
      <trkpt lat="46.16363" lon="2.39967">
        <ele>401</ele>
        <time>2016-04-05T14:06:43Z</time>
      </trkpt>
      <trkpt lat="46.16365" lon="2.39962">
        <ele>401</ele>
        <time>2016-04-05T14:06:47Z</time>
      </trkpt>
      <trkpt lat="46.16367" lon="2.39956">
        <ele>401</ele>
        <time>2016-04-05T14:06:51Z</time>
      </trkpt>
      <trkpt lat="46.16369" lon="2.39952">
        <ele>401</ele>
        <time>2016-04-05T14:06:54Z</time>
      </trkpt>
      <trkpt lat="46.16371" lon="2.39948">
        <ele>401</ele>
        <time>2016-04-05T14:06:57Z</time>
      </trkpt>
      <trkpt lat="46.16372" lon="2.39943">
        <ele>401</ele>
        <time>2016-04-05T14:07:01Z</time>
      </trkpt>
      <trkpt lat="46.16374" lon="2.39938">
        <ele>401</ele>
        <time>2016-04-05T14:07:04Z</time>
      </trkpt>
      <trkpt lat="46.16376" lon="2.39933">
        <ele>401</ele>
        <time>2016-04-05T14:07:07Z</time>
      </trkpt>
      <trkpt lat="46.16378" lon="2.39927">
        <ele>402</ele>
        <time>2016-04-05T14:07:11Z</time>
      </trkpt>
      <trkpt lat="46.1638" lon="2.39922">
        <ele>402</ele>
        <time>2016-04-05T14:07:15Z</time>
      </trkpt>
      <trkpt lat="46.16383" lon="2.39918">
        <ele>403</ele>
        <time>2016-04-05T14:07:18Z</time>
      </trkpt>
      <trkpt lat="46.16386" lon="2.39914">
        <ele>403</ele>
        <time>2016-04-05T14:07:22Z</time>
      </trkpt>
      <trkpt lat="46.16388" lon="2.39912">
        <ele>403</ele>
        <time>2016-04-05T14:07:25Z</time>
      </trkpt>
      <trkpt lat="46.16391" lon="2.39909">
        <ele>403</ele>
        <time>2016-04-05T14:07:29Z</time>
      </trkpt>
      <trkpt lat="46.16395" lon="2.39909">
        <ele>403</ele>
        <time>2016-04-05T14:07:33Z</time>
      </trkpt>
      <trkpt lat="46.16398" lon="2.39908">
        <ele>403</ele>
        <time>2016-04-05T14:07:36Z</time>
      </trkpt>
      <trkpt lat="46.16402" lon="2.39906">
        <ele>403</ele>
        <time>2016-04-05T14:07:40Z</time>
      </trkpt>
      <trkpt lat="46.16406" lon="2.39904">
        <ele>403</ele>
        <time>2016-04-05T14:07:44Z</time>
      </trkpt>
      <trkpt lat="46.16409" lon="2.39905">
        <ele>403</ele>
        <time>2016-04-05T14:07:48Z</time>
      </trkpt>
      <trkpt lat="46.16412" lon="2.39905">
        <ele>403</ele>
        <time>2016-04-05T14:07:52Z</time>
      </trkpt>
      <trkpt lat="46.16417" lon="2.39905">
        <ele>403</ele>
        <time>2016-04-05T14:07:55Z</time>
      </trkpt>
      <trkpt lat="46.16423" lon="2.39905">
        <ele>403</ele>
        <time>2016-04-05T14:07:58Z</time>
      </trkpt>
      <trkpt lat="46.16426" lon="2.39905">
        <ele>403</ele>
        <time>2016-04-05T14:08:01Z</time>
      </trkpt>
      <trkpt lat="46.16431" lon="2.39906">
        <ele>403</ele>
        <time>2016-04-05T14:08:04Z</time>
      </trkpt>
      <trkpt lat="46.16435" lon="2.39907">
        <ele>403</ele>
        <time>2016-04-05T14:08:07Z</time>
      </trkpt>
      <trkpt lat="46.16438" lon="2.39909">
        <ele>404</ele>
        <time>2016-04-05T14:08:10Z</time>
      </trkpt>
      <trkpt lat="46.16442" lon="2.39912">
        <ele>405</ele>
        <time>2016-04-05T14:08:13Z</time>
      </trkpt>
      <trkpt lat="46.16445" lon="2.39914">
        <ele>405</ele>
        <time>2016-04-05T14:08:16Z</time>
      </trkpt>
      <trkpt lat="46.16449" lon="2.39915">
        <ele>406</ele>
        <time>2016-04-05T14:08:20Z</time>
      </trkpt>
      <trkpt lat="46.16452" lon="2.39917">
        <ele>407</ele>
        <time>2016-04-05T14:08:24Z</time>
      </trkpt>
      <trkpt lat="46.16456" lon="2.39919">
        <ele>407</ele>
        <time>2016-04-05T14:08:28Z</time>
      </trkpt>
      <trkpt lat="46.16459" lon="2.39921">
        <ele>407</ele>
        <time>2016-04-05T14:08:32Z</time>
      </trkpt>
      <trkpt lat="46.16464" lon="2.39925">
        <ele>407</ele>
        <time>2016-04-05T14:08:36Z</time>
      </trkpt>
      <trkpt lat="46.16468" lon="2.39926">
        <ele>407</ele>
        <time>2016-04-05T14:08:40Z</time>
      </trkpt>
      <trkpt lat="46.16471" lon="2.39929">
        <ele>407</ele>
        <time>2016-04-05T14:08:44Z</time>
      </trkpt>
      <trkpt lat="46.16474" lon="2.3993">
        <ele>407</ele>
        <time>2016-04-05T14:08:47Z</time>
      </trkpt>
      <trkpt lat="46.16477" lon="2.39931">
        <ele>406</ele>
        <time>2016-04-05T14:08:50Z</time>
      </trkpt>
      <trkpt lat="46.1648" lon="2.39931">
        <ele>404</ele>
        <time>2016-04-05T14:08:53Z</time>
      </trkpt>
      <trkpt lat="46.16484" lon="2.39931">
        <ele>404</ele>
        <time>2016-04-05T14:08:57Z</time>
      </trkpt>
      <trkpt lat="46.16488" lon="2.3993">
        <ele>403</ele>
        <time>2016-04-05T14:09:01Z</time>
      </trkpt>
      <trkpt lat="46.16491" lon="2.39929">
        <ele>402</ele>
        <time>2016-04-05T14:09:05Z</time>
      </trkpt>
      <trkpt lat="46.16496" lon="2.39927">
        <ele>402</ele>
        <time>2016-04-05T14:09:08Z</time>
      </trkpt>
      <trkpt lat="46.16501" lon="2.39925">
        <ele>402</ele>
        <time>2016-04-05T14:09:11Z</time>
      </trkpt>
      <trkpt lat="46.16505" lon="2.39923">
        <ele>402</ele>
        <time>2016-04-05T14:09:15Z</time>
      </trkpt>
      <trkpt lat="46.1651" lon="2.39921">
        <ele>402</ele>
        <time>2016-04-05T14:09:18Z</time>
      </trkpt>
      <trkpt lat="46.16514" lon="2.3992">
        <ele>402</ele>
        <time>2016-04-05T14:09:21Z</time>
      </trkpt>
      <trkpt lat="46.16518" lon="2.39919">
        <ele>402</ele>
        <time>2016-04-05T14:09:24Z</time>
      </trkpt>
      <trkpt lat="46.16522" lon="2.39916">
        <ele>402</ele>
        <time>2016-04-05T14:09:28Z</time>
      </trkpt>
      <trkpt lat="46.16525" lon="2.39914">
        <ele>402</ele>
        <time>2016-04-05T14:09:31Z</time>
      </trkpt>
      <trkpt lat="46.16529" lon="2.39912">
        <ele>403</ele>
        <time>2016-04-05T14:09:34Z</time>
      </trkpt>
      <trkpt lat="46.16534" lon="2.39911">
        <ele>404</ele>
        <time>2016-04-05T14:09:37Z</time>
      </trkpt>
      <trkpt lat="46.16538" lon="2.39909">
        <ele>404</ele>
        <time>2016-04-05T14:09:40Z</time>
      </trkpt>
      <trkpt lat="46.16542" lon="2.39907">
        <ele>405</ele>
        <time>2016-04-05T14:09:43Z</time>
      </trkpt>
      <trkpt lat="46.16546" lon="2.39904">
        <ele>405</ele>
        <time>2016-04-05T14:09:47Z</time>
      </trkpt>
      <trkpt lat="46.1655" lon="2.39901">
        <ele>405</ele>
        <time>2016-04-05T14:09:51Z</time>
      </trkpt>
      <trkpt lat="46.16553" lon="2.39898">
        <ele>405</ele>
        <time>2016-04-05T14:09:54Z</time>
      </trkpt>
      <trkpt lat="46.16557" lon="2.39896">
        <ele>405</ele>
        <time>2016-04-05T14:09:57Z</time>
      </trkpt>
      <trkpt lat="46.16562" lon="2.39893">
        <ele>405</ele>
        <time>2016-04-05T14:10:01Z</time>
      </trkpt>
      <trkpt lat="46.16565" lon="2.39889">
        <ele>405</ele>
        <time>2016-04-05T14:10:05Z</time>
      </trkpt>
      <trkpt lat="46.16568" lon="2.39887">
        <ele>405</ele>
        <time>2016-04-05T14:10:08Z</time>
      </trkpt>
      <trkpt lat="46.16574" lon="2.39884">
        <ele>406</ele>
        <time>2016-04-05T14:10:11Z</time>
      </trkpt>
      <trkpt lat="46.16578" lon="2.39882">
        <ele>407</ele>
        <time>2016-04-05T14:10:14Z</time>
      </trkpt>
      <trkpt lat="46.16581" lon="2.3988">
        <ele>408</ele>
        <time>2016-04-05T14:10:17Z</time>
      </trkpt>
      <trkpt lat="46.16585" lon="2.39878">
        <ele>409</ele>
        <time>2016-04-05T14:10:20Z</time>
      </trkpt>
      <trkpt lat="46.1659" lon="2.39875">
        <ele>410</ele>
        <time>2016-04-05T14:10:24Z</time>
      </trkpt>
      <trkpt lat="46.16594" lon="2.39873">
        <ele>411</ele>
        <time>2016-04-05T14:10:27Z</time>
      </trkpt>
      <trkpt lat="46.16597" lon="2.39869">
        <ele>411</ele>
        <time>2016-04-05T14:10:31Z</time>
      </trkpt>
      <trkpt lat="46.166" lon="2.39866">
        <ele>411</ele>
        <time>2016-04-05T14:10:34Z</time>
      </trkpt>
      <trkpt lat="46.16604" lon="2.39861">
        <ele>411</ele>
        <time>2016-04-05T14:10:38Z</time>
      </trkpt>
      <trkpt lat="46.16608" lon="2.39858">
        <ele>411</ele>
        <time>2016-04-05T14:10:42Z</time>
      </trkpt>
      <trkpt lat="46.16612" lon="2.39856">
        <ele>411</ele>
        <time>2016-04-05T14:10:46Z</time>
      </trkpt>
      <trkpt lat="46.16615" lon="2.39857">
        <ele>411</ele>
        <time>2016-04-05T14:10:49Z</time>
      </trkpt>
      <trkpt lat="46.16619" lon="2.39857">
        <ele>411</ele>
        <time>2016-04-05T14:10:52Z</time>
      </trkpt>
      <trkpt lat="46.16623" lon="2.3986">
        <ele>411</ele>
        <time>2016-04-05T14:10:55Z</time>
      </trkpt>
      <trkpt lat="46.16628" lon="2.39861">
        <ele>412</ele>
        <time>2016-04-05T14:10:58Z</time>
      </trkpt>
      <trkpt lat="46.16631" lon="2.39864">
        <ele>413</ele>
        <time>2016-04-05T14:11:01Z</time>
      </trkpt>
      <trkpt lat="46.16635" lon="2.39867">
        <ele>414</ele>
        <time>2016-04-05T14:11:04Z</time>
      </trkpt>
      <trkpt lat="46.16639" lon="2.39869">
        <ele>415</ele>
        <time>2016-04-05T14:11:07Z</time>
      </trkpt>
      <trkpt lat="46.16642" lon="2.39872">
        <ele>415</ele>
        <time>2016-04-05T14:11:10Z</time>
      </trkpt>
      <trkpt lat="46.16646" lon="2.39874">
        <ele>415</ele>
        <time>2016-04-05T14:11:13Z</time>
      </trkpt>
      <trkpt lat="46.1665" lon="2.39876">
        <ele>415</ele>
        <time>2016-04-05T14:11:17Z</time>
      </trkpt>
      <trkpt lat="46.16653" lon="2.39878">
        <ele>415</ele>
        <time>2016-04-05T14:11:20Z</time>
      </trkpt>
      <trkpt lat="46.16657" lon="2.3988">
        <ele>415</ele>
        <time>2016-04-05T14:11:23Z</time>
      </trkpt>
      <trkpt lat="46.16661" lon="2.39881">
        <ele>415</ele>
        <time>2016-04-05T14:11:26Z</time>
      </trkpt>
      <trkpt lat="46.16665" lon="2.39883">
        <ele>415</ele>
        <time>2016-04-05T14:11:29Z</time>
      </trkpt>
      <trkpt lat="46.16669" lon="2.39885">
        <ele>415</ele>
        <time>2016-04-05T14:11:33Z</time>
      </trkpt>
      <trkpt lat="46.16672" lon="2.39887">
        <ele>415</ele>
        <time>2016-04-05T14:11:36Z</time>
      </trkpt>
      <trkpt lat="46.16676" lon="2.39889">
        <ele>415</ele>
        <time>2016-04-05T14:11:39Z</time>
      </trkpt>
      <trkpt lat="46.1668" lon="2.3989">
        <ele>415</ele>
        <time>2016-04-05T14:11:43Z</time>
      </trkpt>
      <trkpt lat="46.16683" lon="2.39893">
        <ele>415</ele>
        <time>2016-04-05T14:11:46Z</time>
      </trkpt>
      <trkpt lat="46.16687" lon="2.39894">
        <ele>415</ele>
        <time>2016-04-05T14:11:49Z</time>
      </trkpt>
      <trkpt lat="46.16691" lon="2.39895">
        <ele>415</ele>
        <time>2016-04-05T14:11:53Z</time>
      </trkpt>
      <trkpt lat="46.16695" lon="2.39895">
        <ele>415</ele>
        <time>2016-04-05T14:11:56Z</time>
      </trkpt>
      <trkpt lat="46.16699" lon="2.39895">
        <ele>415</ele>
        <time>2016-04-05T14:11:59Z</time>
      </trkpt>
      <trkpt lat="46.16703" lon="2.39894">
        <ele>415</ele>
        <time>2016-04-05T14:12:02Z</time>
      </trkpt>
      <trkpt lat="46.16706" lon="2.39894">
        <ele>415</ele>
        <time>2016-04-05T14:12:05Z</time>
      </trkpt>
      <trkpt lat="46.1671" lon="2.39893">
        <ele>415</ele>
        <time>2016-04-05T14:12:08Z</time>
      </trkpt>
      <trkpt lat="46.16715" lon="2.39892">
        <ele>415</ele>
        <time>2016-04-05T14:12:11Z</time>
      </trkpt>
      <trkpt lat="46.16719" lon="2.3989">
        <ele>415</ele>
        <time>2016-04-05T14:12:14Z</time>
      </trkpt>
      <trkpt lat="46.16722" lon="2.39887">
        <ele>415</ele>
        <time>2016-04-05T14:12:17Z</time>
      </trkpt>
      <trkpt lat="46.16726" lon="2.39885">
        <ele>415</ele>
        <time>2016-04-05T14:12:20Z</time>
      </trkpt>
      <trkpt lat="46.16729" lon="2.39883">
        <ele>415</ele>
        <time>2016-04-05T14:12:23Z</time>
      </trkpt>
      <trkpt lat="46.16733" lon="2.3988">
        <ele>415</ele>
        <time>2016-04-05T14:12:26Z</time>
      </trkpt>
      <trkpt lat="46.16737" lon="2.39875">
        <ele>415</ele>
        <time>2016-04-05T14:12:30Z</time>
      </trkpt>
      <trkpt lat="46.1674" lon="2.39872">
        <ele>415</ele>
        <time>2016-04-05T14:12:33Z</time>
      </trkpt>
      <trkpt lat="46.16743" lon="2.39869">
        <ele>415</ele>
        <time>2016-04-05T14:12:36Z</time>
      </trkpt>
      <trkpt lat="46.16748" lon="2.39865">
        <ele>415</ele>
        <time>2016-04-05T14:12:40Z</time>
      </trkpt>
      <trkpt lat="46.16751" lon="2.39862">
        <ele>415</ele>
        <time>2016-04-05T14:12:43Z</time>
      </trkpt>
      <trkpt lat="46.16754" lon="2.39859">
        <ele>415</ele>
        <time>2016-04-05T14:12:46Z</time>
      </trkpt>
      <trkpt lat="46.16758" lon="2.39857">
        <ele>415</ele>
        <time>2016-04-05T14:12:49Z</time>
      </trkpt>
      <trkpt lat="46.16761" lon="2.39853">
        <ele>415</ele>
        <time>2016-04-05T14:12:52Z</time>
      </trkpt>
      <trkpt lat="46.16766" lon="2.39849">
        <ele>415</ele>
        <time>2016-04-05T14:12:56Z</time>
      </trkpt>
      <trkpt lat="46.16769" lon="2.39845">
        <ele>415</ele>
        <time>2016-04-05T14:12:59Z</time>
      </trkpt>
      <trkpt lat="46.16772" lon="2.39842">
        <ele>415</ele>
        <time>2016-04-05T14:13:02Z</time>
      </trkpt>
      <trkpt lat="46.16777" lon="2.39839">
        <ele>415</ele>
        <time>2016-04-05T14:13:05Z</time>
      </trkpt>
      <trkpt lat="46.16781" lon="2.39837">
        <ele>415</ele>
        <time>2016-04-05T14:13:08Z</time>
      </trkpt>
      <trkpt lat="46.16785" lon="2.39834">
        <ele>415</ele>
        <time>2016-04-05T14:13:11Z</time>
      </trkpt>
      <trkpt lat="46.16788" lon="2.39832">
        <ele>415</ele>
        <time>2016-04-05T14:13:14Z</time>
      </trkpt>
      <trkpt lat="46.16792" lon="2.3983">
        <ele>415</ele>
        <time>2016-04-05T14:13:17Z</time>
      </trkpt>
      <trkpt lat="46.16795" lon="2.39827">
        <ele>415</ele>
        <time>2016-04-05T14:13:20Z</time>
      </trkpt>
      <trkpt lat="46.168" lon="2.39826">
        <ele>415</ele>
        <time>2016-04-05T14:13:23Z</time>
      </trkpt>
      <trkpt lat="46.16803" lon="2.39824">
        <ele>415</ele>
        <time>2016-04-05T14:13:26Z</time>
      </trkpt>
      <trkpt lat="46.16808" lon="2.39822">
        <ele>415</ele>
        <time>2016-04-05T14:13:29Z</time>
      </trkpt>
      <trkpt lat="46.16811" lon="2.3982">
        <ele>415</ele>
        <time>2016-04-05T14:13:32Z</time>
      </trkpt>
      <trkpt lat="46.16815" lon="2.39818">
        <ele>415</ele>
        <time>2016-04-05T14:13:35Z</time>
      </trkpt>
      <trkpt lat="46.16818" lon="2.39817">
        <ele>415</ele>
        <time>2016-04-05T14:13:38Z</time>
      </trkpt>
      <trkpt lat="46.16822" lon="2.39816">
        <ele>415</ele>
        <time>2016-04-05T14:13:41Z</time>
      </trkpt>
      <trkpt lat="46.16826" lon="2.39815">
        <ele>415</ele>
        <time>2016-04-05T14:13:44Z</time>
      </trkpt>
      <trkpt lat="46.1683" lon="2.39813">
        <ele>415</ele>
        <time>2016-04-05T14:13:47Z</time>
      </trkpt>
      <trkpt lat="46.16834" lon="2.39812">
        <ele>415</ele>
        <time>2016-04-05T14:13:50Z</time>
      </trkpt>
      <trkpt lat="46.16838" lon="2.39811">
        <ele>415</ele>
        <time>2016-04-05T14:13:53Z</time>
      </trkpt>
      <trkpt lat="46.16842" lon="2.3981">
        <ele>415</ele>
        <time>2016-04-05T14:13:56Z</time>
      </trkpt>
      <trkpt lat="46.16845" lon="2.3981">
        <ele>415</ele>
        <time>2016-04-05T14:13:59Z</time>
      </trkpt>
      <trkpt lat="46.1685" lon="2.39811">
        <ele>414</ele>
        <time>2016-04-05T14:14:02Z</time>
      </trkpt>
      <trkpt lat="46.16854" lon="2.39812">
        <ele>414</ele>
        <time>2016-04-05T14:14:05Z</time>
      </trkpt>
      <trkpt lat="46.16858" lon="2.39812">
        <ele>414</ele>
        <time>2016-04-05T14:14:08Z</time>
      </trkpt>
      <trkpt lat="46.16862" lon="2.39812">
        <ele>414</ele>
        <time>2016-04-05T14:14:11Z</time>
      </trkpt>
      <trkpt lat="46.16866" lon="2.39813">
        <ele>414</ele>
        <time>2016-04-05T14:14:14Z</time>
      </trkpt>
      <trkpt lat="46.16871" lon="2.39815">
        <ele>414</ele>
        <time>2016-04-05T14:14:17Z</time>
      </trkpt>
      <trkpt lat="46.16875" lon="2.39819">
        <ele>414</ele>
        <time>2016-04-05T14:14:20Z</time>
      </trkpt>
      <trkpt lat="46.16879" lon="2.39822">
        <ele>414</ele>
        <time>2016-04-05T14:14:23Z</time>
      </trkpt>
      <trkpt lat="46.16883" lon="2.39824">
        <ele>415</ele>
        <time>2016-04-05T14:14:26Z</time>
      </trkpt>
      <trkpt lat="46.16887" lon="2.39825">
        <ele>415</ele>
        <time>2016-04-05T14:14:29Z</time>
      </trkpt>
      <trkpt lat="46.16891" lon="2.39826">
        <ele>415</ele>
        <time>2016-04-05T14:14:33Z</time>
      </trkpt>
      <trkpt lat="46.16895" lon="2.39828">
        <ele>415</ele>
        <time>2016-04-05T14:14:37Z</time>
      </trkpt>
      <trkpt lat="46.16898" lon="2.3983">
        <ele>415</ele>
        <time>2016-04-05T14:14:41Z</time>
      </trkpt>
      <trkpt lat="46.169" lon="2.39834">
        <ele>415</ele>
        <time>2016-04-05T14:14:45Z</time>
      </trkpt>
      <trkpt lat="46.16902" lon="2.39838">
        <ele>415</ele>
        <time>2016-04-05T14:14:49Z</time>
      </trkpt>
      <trkpt lat="46.16905" lon="2.39842">
        <ele>413</ele>
        <time>2016-04-05T14:14:53Z</time>
      </trkpt>
      <trkpt lat="46.16908" lon="2.39845">
        <ele>412</ele>
        <time>2016-04-05T14:14:56Z</time>
      </trkpt>
      <trkpt lat="46.16911" lon="2.39849">
        <ele>412</ele>
        <time>2016-04-05T14:14:59Z</time>
      </trkpt>
      <trkpt lat="46.16914" lon="2.39854">
        <ele>411</ele>
        <time>2016-04-05T14:15:03Z</time>
      </trkpt>
      <trkpt lat="46.16917" lon="2.39857">
        <ele>411</ele>
        <time>2016-04-05T14:15:06Z</time>
      </trkpt>
      <trkpt lat="46.1692" lon="2.3986">
        <ele>411</ele>
        <time>2016-04-05T14:15:09Z</time>
      </trkpt>
      <trkpt lat="46.16924" lon="2.39863">
        <ele>411</ele>
        <time>2016-04-05T14:15:12Z</time>
      </trkpt>
      <trkpt lat="46.16926" lon="2.39867">
        <ele>411</ele>
        <time>2016-04-05T14:15:16Z</time>
      </trkpt>
      <trkpt lat="46.16929" lon="2.39871">
        <ele>411</ele>
        <time>2016-04-05T14:15:19Z</time>
      </trkpt>
      <trkpt lat="46.16933" lon="2.39873">
        <ele>411</ele>
        <time>2016-04-05T14:15:22Z</time>
      </trkpt>
      <trkpt lat="46.16937" lon="2.39879">
        <ele>411</ele>
        <time>2016-04-05T14:15:26Z</time>
      </trkpt>
      <trkpt lat="46.1694" lon="2.39883">
        <ele>411</ele>
        <time>2016-04-05T14:15:29Z</time>
      </trkpt>
      <trkpt lat="46.16944" lon="2.39888">
        <ele>411</ele>
        <time>2016-04-05T14:15:32Z</time>
      </trkpt>
      <trkpt lat="46.16948" lon="2.39893">
        <ele>413</ele>
        <time>2016-04-05T14:15:35Z</time>
      </trkpt>
      <trkpt lat="46.16951" lon="2.39897">
        <ele>415</ele>
        <time>2016-04-05T14:15:38Z</time>
      </trkpt>
      <trkpt lat="46.16955" lon="2.39902">
        <ele>416</ele>
        <time>2016-04-05T14:15:41Z</time>
      </trkpt>
      <trkpt lat="46.16957" lon="2.39906">
        <ele>417</ele>
        <time>2016-04-05T14:15:44Z</time>
      </trkpt>
      <trkpt lat="46.1696" lon="2.39911">
        <ele>418</ele>
        <time>2016-04-05T14:15:47Z</time>
      </trkpt>
      <trkpt lat="46.16963" lon="2.39915">
        <ele>419</ele>
        <time>2016-04-05T14:15:50Z</time>
      </trkpt>
      <trkpt lat="46.16966" lon="2.39919">
        <ele>419</ele>
        <time>2016-04-05T14:15:53Z</time>
      </trkpt>
      <trkpt lat="46.16967" lon="2.39924">
        <ele>420</ele>
        <time>2016-04-05T14:15:56Z</time>
      </trkpt>
      <trkpt lat="46.1697" lon="2.39928">
        <ele>420</ele>
        <time>2016-04-05T14:15:59Z</time>
      </trkpt>
      <trkpt lat="46.16972" lon="2.39934">
        <ele>420</ele>
        <time>2016-04-05T14:16:02Z</time>
      </trkpt>
      <trkpt lat="46.16974" lon="2.39939">
        <ele>420</ele>
        <time>2016-04-05T14:16:05Z</time>
      </trkpt>
      <trkpt lat="46.16976" lon="2.39944">
        <ele>420</ele>
        <time>2016-04-05T14:16:08Z</time>
      </trkpt>
      <trkpt lat="46.16978" lon="2.3995">
        <ele>420</ele>
        <time>2016-04-05T14:16:11Z</time>
      </trkpt>
      <trkpt lat="46.1698" lon="2.39953">
        <ele>420</ele>
        <time>2016-04-05T14:16:14Z</time>
      </trkpt>
      <trkpt lat="46.16982" lon="2.39959">
        <ele>420</ele>
        <time>2016-04-05T14:16:17Z</time>
      </trkpt>
      <trkpt lat="46.16984" lon="2.39966">
        <ele>420</ele>
        <time>2016-04-05T14:16:21Z</time>
      </trkpt>
      <trkpt lat="46.16987" lon="2.39971">
        <ele>420</ele>
        <time>2016-04-05T14:16:24Z</time>
      </trkpt>
      <trkpt lat="46.16989" lon="2.39977">
        <ele>420</ele>
        <time>2016-04-05T14:16:27Z</time>
      </trkpt>
      <trkpt lat="46.16991" lon="2.39982">
        <ele>420</ele>
        <time>2016-04-05T14:16:30Z</time>
      </trkpt>
      <trkpt lat="46.16994" lon="2.39987">
        <ele>420</ele>
        <time>2016-04-05T14:16:33Z</time>
      </trkpt>
      <trkpt lat="46.16997" lon="2.39993">
        <ele>420</ele>
        <time>2016-04-05T14:16:37Z</time>
      </trkpt>
      <trkpt lat="46.16999" lon="2.39998">
        <ele>420</ele>
        <time>2016-04-05T14:16:40Z</time>
      </trkpt>
      <trkpt lat="46.17002" lon="2.40004">
        <ele>420</ele>
        <time>2016-04-05T14:16:44Z</time>
      </trkpt>
      <trkpt lat="46.17005" lon="2.40008">
        <ele>420</ele>
        <time>2016-04-05T14:16:47Z</time>
      </trkpt>
      <trkpt lat="46.17007" lon="2.40013">
        <ele>420</ele>
        <time>2016-04-05T14:16:50Z</time>
      </trkpt>
      <trkpt lat="46.1701" lon="2.40018">
        <ele>420</ele>
        <time>2016-04-05T14:16:54Z</time>
      </trkpt>
      <trkpt lat="46.17014" lon="2.40023">
        <ele>420</ele>
        <time>2016-04-05T14:16:58Z</time>
      </trkpt>
      <trkpt lat="46.17016" lon="2.40029">
        <ele>420</ele>
        <time>2016-04-05T14:17:02Z</time>
      </trkpt>
      <trkpt lat="46.17018" lon="2.40034">
        <ele>419</ele>
        <time>2016-04-05T14:17:05Z</time>
      </trkpt>
      <trkpt lat="46.1702" lon="2.40038">
        <ele>418</ele>
        <time>2016-04-05T14:17:08Z</time>
      </trkpt>
      <trkpt lat="46.17023" lon="2.40043">
        <ele>418</ele>
        <time>2016-04-05T14:17:11Z</time>
      </trkpt>
      <trkpt lat="46.17027" lon="2.40047">
        <ele>418</ele>
        <time>2016-04-05T14:17:14Z</time>
      </trkpt>
      <trkpt lat="46.17031" lon="2.40053">
        <ele>418</ele>
        <time>2016-04-05T14:17:18Z</time>
      </trkpt>
      <trkpt lat="46.17034" lon="2.40058">
        <ele>418</ele>
        <time>2016-04-05T14:17:21Z</time>
      </trkpt>
      <trkpt lat="46.17037" lon="2.40063">
        <ele>418</ele>
        <time>2016-04-05T14:17:24Z</time>
      </trkpt>
      <trkpt lat="46.17039" lon="2.40068">
        <ele>418</ele>
        <time>2016-04-05T14:17:27Z</time>
      </trkpt>
      <trkpt lat="46.17043" lon="2.40073">
        <ele>418</ele>
        <time>2016-04-05T14:17:30Z</time>
      </trkpt>
      <trkpt lat="46.17046" lon="2.40079">
        <ele>418</ele>
        <time>2016-04-05T14:17:33Z</time>
      </trkpt>
      <trkpt lat="46.17049" lon="2.40084">
        <ele>418</ele>
        <time>2016-04-05T14:17:36Z</time>
      </trkpt>
      <trkpt lat="46.17052" lon="2.40089">
        <ele>418</ele>
        <time>2016-04-05T14:17:39Z</time>
      </trkpt>
      <trkpt lat="46.17055" lon="2.40093">
        <ele>418</ele>
        <time>2016-04-05T14:17:42Z</time>
      </trkpt>
      <trkpt lat="46.17057" lon="2.40098">
        <ele>417</ele>
        <time>2016-04-05T14:17:45Z</time>
      </trkpt>
      <trkpt lat="46.17061" lon="2.40103">
        <ele>416</ele>
        <time>2016-04-05T14:17:49Z</time>
      </trkpt>
      <trkpt lat="46.17065" lon="2.40109">
        <ele>415</ele>
        <time>2016-04-05T14:17:53Z</time>
      </trkpt>
      <trkpt lat="46.17068" lon="2.40112">
        <ele>415</ele>
        <time>2016-04-05T14:17:56Z</time>
      </trkpt>
      <trkpt lat="46.17072" lon="2.40115">
        <ele>414</ele>
        <time>2016-04-05T14:17:59Z</time>
      </trkpt>
      <trkpt lat="46.17076" lon="2.40119">
        <ele>414</ele>
        <time>2016-04-05T14:18:02Z</time>
      </trkpt>
      <trkpt lat="46.1708" lon="2.40122">
        <ele>414</ele>
        <time>2016-04-05T14:18:05Z</time>
      </trkpt>
      <trkpt lat="46.17083" lon="2.40125">
        <ele>414</ele>
        <time>2016-04-05T14:18:08Z</time>
      </trkpt>
      <trkpt lat="46.17087" lon="2.40127">
        <ele>413</ele>
        <time>2016-04-05T14:18:11Z</time>
      </trkpt>
      <trkpt lat="46.17091" lon="2.40129">
        <ele>413</ele>
        <time>2016-04-05T14:18:14Z</time>
      </trkpt>
      <trkpt lat="46.17095" lon="2.40133">
        <ele>412</ele>
        <time>2016-04-05T14:18:18Z</time>
      </trkpt>
      <trkpt lat="46.17099" lon="2.40135">
        <ele>411</ele>
        <time>2016-04-05T14:18:21Z</time>
      </trkpt>
      <trkpt lat="46.17102" lon="2.40137">
        <ele>410</ele>
        <time>2016-04-05T14:18:24Z</time>
      </trkpt>
      <trkpt lat="46.17105" lon="2.40138">
        <ele>409</ele>
        <time>2016-04-05T14:18:27Z</time>
      </trkpt>
      <trkpt lat="46.17109" lon="2.4014">
        <ele>408</ele>
        <time>2016-04-05T14:18:30Z</time>
      </trkpt>
      <trkpt lat="46.17114" lon="2.40142">
        <ele>408</ele>
        <time>2016-04-05T14:18:33Z</time>
      </trkpt>
      <trkpt lat="46.17118" lon="2.40143">
        <ele>408</ele>
        <time>2016-04-05T14:18:36Z</time>
      </trkpt>
      <trkpt lat="46.17123" lon="2.40145">
        <ele>408</ele>
        <time>2016-04-05T14:18:39Z</time>
      </trkpt>
      <trkpt lat="46.17126" lon="2.40149">
        <ele>408</ele>
        <time>2016-04-05T14:18:42Z</time>
      </trkpt>
      <trkpt lat="46.1713" lon="2.40153">
        <ele>408</ele>
        <time>2016-04-05T14:18:45Z</time>
      </trkpt>
      <trkpt lat="46.17134" lon="2.40157">
        <ele>408</ele>
        <time>2016-04-05T14:18:48Z</time>
      </trkpt>
      <trkpt lat="46.17138" lon="2.4016">
        <ele>408</ele>
        <time>2016-04-05T14:18:51Z</time>
      </trkpt>
      <trkpt lat="46.17142" lon="2.4016">
        <ele>408</ele>
        <time>2016-04-05T14:18:54Z</time>
      </trkpt>
      <trkpt lat="46.17147" lon="2.4016">
        <ele>408</ele>
        <time>2016-04-05T14:18:57Z</time>
      </trkpt>
      <trkpt lat="46.17151" lon="2.4016">
        <ele>408</ele>
        <time>2016-04-05T14:19:00Z</time>
      </trkpt>
      <trkpt lat="46.17156" lon="2.4016">
        <ele>408</ele>
        <time>2016-04-05T14:19:03Z</time>
      </trkpt>
      <trkpt lat="46.1716" lon="2.4016">
        <ele>407</ele>
        <time>2016-04-05T14:19:06Z</time>
      </trkpt>
      <trkpt lat="46.17164" lon="2.4016">
        <ele>406</ele>
        <time>2016-04-05T14:19:09Z</time>
      </trkpt>
      <trkpt lat="46.17167" lon="2.4016">
        <ele>405</ele>
        <time>2016-04-05T14:19:12Z</time>
      </trkpt>
      <trkpt lat="46.1717" lon="2.4016">
        <ele>403</ele>
        <time>2016-04-05T14:19:15Z</time>
      </trkpt>
      <trkpt lat="46.17175" lon="2.4016">
        <ele>402</ele>
        <time>2016-04-05T14:19:18Z</time>
      </trkpt>
      <trkpt lat="46.17179" lon="2.40161">
        <ele>402</ele>
        <time>2016-04-05T14:19:21Z</time>
      </trkpt>
      <trkpt lat="46.17184" lon="2.40161">
        <ele>401</ele>
        <time>2016-04-05T14:19:24Z</time>
      </trkpt>
      <trkpt lat="46.17188" lon="2.40161">
        <ele>400</ele>
        <time>2016-04-05T14:19:27Z</time>
      </trkpt>
      <trkpt lat="46.17193" lon="2.40161">
        <ele>400</ele>
        <time>2016-04-05T14:19:30Z</time>
      </trkpt>
      <trkpt lat="46.17198" lon="2.40162">
        <ele>400</ele>
        <time>2016-04-05T14:19:33Z</time>
      </trkpt>
      <trkpt lat="46.17203" lon="2.40163">
        <ele>400</ele>
        <time>2016-04-05T14:19:36Z</time>
      </trkpt>
      <trkpt lat="46.17207" lon="2.40163">
        <ele>400</ele>
        <time>2016-04-05T14:19:39Z</time>
      </trkpt>
      <trkpt lat="46.17212" lon="2.40164">
        <ele>400</ele>
        <time>2016-04-05T14:19:42Z</time>
      </trkpt>
      <trkpt lat="46.17216" lon="2.40165">
        <ele>400</ele>
        <time>2016-04-05T14:19:45Z</time>
      </trkpt>
      <trkpt lat="46.17222" lon="2.40167">
        <ele>400</ele>
        <time>2016-04-05T14:19:48Z</time>
      </trkpt>
      <trkpt lat="46.17226" lon="2.40167">
        <ele>400</ele>
        <time>2016-04-05T14:19:51Z</time>
      </trkpt>
      <trkpt lat="46.17232" lon="2.40168">
        <ele>400</ele>
        <time>2016-04-05T14:19:54Z</time>
      </trkpt>
      <trkpt lat="46.17239" lon="2.40169">
        <ele>400</ele>
        <time>2016-04-05T14:19:57Z</time>
      </trkpt>
      <trkpt lat="46.17244" lon="2.4017">
        <ele>400</ele>
        <time>2016-04-05T14:20:00Z</time>
      </trkpt>
      <trkpt lat="46.17248" lon="2.40171">
        <ele>400</ele>
        <time>2016-04-05T14:20:03Z</time>
      </trkpt>
      <trkpt lat="46.17252" lon="2.40173">
        <ele>400</ele>
        <time>2016-04-05T14:20:06Z</time>
      </trkpt>
      <trkpt lat="46.17257" lon="2.40174">
        <ele>400</ele>
        <time>2016-04-05T14:20:09Z</time>
      </trkpt>
      <trkpt lat="46.17261" lon="2.40176">
        <ele>400</ele>
        <time>2016-04-05T14:20:12Z</time>
      </trkpt>
      <trkpt lat="46.17265" lon="2.40178">
        <ele>400</ele>
        <time>2016-04-05T14:20:15Z</time>
      </trkpt>
      <trkpt lat="46.17269" lon="2.4018">
        <ele>400</ele>
        <time>2016-04-05T14:20:18Z</time>
      </trkpt>
      <trkpt lat="46.17273" lon="2.40181">
        <ele>400</ele>
        <time>2016-04-05T14:20:21Z</time>
      </trkpt>
      <trkpt lat="46.17279" lon="2.40182">
        <ele>400</ele>
        <time>2016-04-05T14:20:24Z</time>
      </trkpt>
      <trkpt lat="46.17283" lon="2.40184">
        <ele>400</ele>
        <time>2016-04-05T14:20:27Z</time>
      </trkpt>
      <trkpt lat="46.17288" lon="2.40187">
        <ele>400</ele>
        <time>2016-04-05T14:20:30Z</time>
      </trkpt>
      <trkpt lat="46.17292" lon="2.40189">
        <ele>400</ele>
        <time>2016-04-05T14:20:33Z</time>
      </trkpt>
      <trkpt lat="46.17296" lon="2.4019">
        <ele>400</ele>
        <time>2016-04-05T14:20:36Z</time>
      </trkpt>
      <trkpt lat="46.173" lon="2.40192">
        <ele>400</ele>
        <time>2016-04-05T14:20:39Z</time>
      </trkpt>
      <trkpt lat="46.17305" lon="2.40194">
        <ele>400</ele>
        <time>2016-04-05T14:20:42Z</time>
      </trkpt>
      <trkpt lat="46.17309" lon="2.40195">
        <ele>400</ele>
        <time>2016-04-05T14:20:45Z</time>
      </trkpt>
      <trkpt lat="46.17314" lon="2.40197">
        <ele>400</ele>
        <time>2016-04-05T14:20:48Z</time>
      </trkpt>
      <trkpt lat="46.17318" lon="2.40198">
        <ele>400</ele>
        <time>2016-04-05T14:20:51Z</time>
      </trkpt>
      <trkpt lat="46.17323" lon="2.402">
        <ele>400</ele>
        <time>2016-04-05T14:20:54Z</time>
      </trkpt>
      <trkpt lat="46.17327" lon="2.40203">
        <ele>400</ele>
        <time>2016-04-05T14:20:57Z</time>
      </trkpt>
      <trkpt lat="46.17331" lon="2.40206">
        <ele>400</ele>
        <time>2016-04-05T14:21:00Z</time>
      </trkpt>
      <trkpt lat="46.17336" lon="2.40207">
        <ele>400</ele>
        <time>2016-04-05T14:21:03Z</time>
      </trkpt>
      <trkpt lat="46.1734" lon="2.40209">
        <ele>400</ele>
        <time>2016-04-05T14:21:06Z</time>
      </trkpt>
      <trkpt lat="46.17345" lon="2.40211">
        <ele>400</ele>
        <time>2016-04-05T14:21:09Z</time>
      </trkpt>
      <trkpt lat="46.17349" lon="2.40213">
        <ele>400</ele>
        <time>2016-04-05T14:21:12Z</time>
      </trkpt>
      <trkpt lat="46.17353" lon="2.40214">
        <ele>400</ele>
        <time>2016-04-05T14:21:15Z</time>
      </trkpt>
      <trkpt lat="46.17358" lon="2.40216">
        <ele>400</ele>
        <time>2016-04-05T14:21:18Z</time>
      </trkpt>
      <trkpt lat="46.17362" lon="2.40218">
        <ele>400</ele>
        <time>2016-04-05T14:21:21Z</time>
      </trkpt>
      <trkpt lat="46.17366" lon="2.40218">
        <ele>400</ele>
        <time>2016-04-05T14:21:24Z</time>
      </trkpt>
      <trkpt lat="46.17371" lon="2.40218">
        <ele>400</ele>
        <time>2016-04-05T14:21:27Z</time>
      </trkpt>
      <trkpt lat="46.17376" lon="2.40219">
        <ele>400</ele>
        <time>2016-04-05T14:21:30Z</time>
      </trkpt>
      <trkpt lat="46.1738" lon="2.40219">
        <ele>400</ele>
        <time>2016-04-05T14:21:33Z</time>
      </trkpt>
      <trkpt lat="46.17384" lon="2.40219">
        <ele>400</ele>
        <time>2016-04-05T14:21:36Z</time>
      </trkpt>
      <trkpt lat="46.17388" lon="2.4022">
        <ele>400</ele>
        <time>2016-04-05T14:21:39Z</time>
      </trkpt>
      <trkpt lat="46.17392" lon="2.4022">
        <ele>400</ele>
        <time>2016-04-05T14:21:42Z</time>
      </trkpt>
      <trkpt lat="46.17397" lon="2.4022">
        <ele>400</ele>
        <time>2016-04-05T14:21:45Z</time>
      </trkpt>
      <trkpt lat="46.17401" lon="2.4022">
        <ele>400</ele>
        <time>2016-04-05T14:21:48Z</time>
      </trkpt>
      <trkpt lat="46.17405" lon="2.4022">
        <ele>400</ele>
        <time>2016-04-05T14:21:51Z</time>
      </trkpt>
      <trkpt lat="46.1741" lon="2.4022">
        <ele>400</ele>
        <time>2016-04-05T14:21:54Z</time>
      </trkpt>
      <trkpt lat="46.17415" lon="2.40218">
        <ele>400</ele>
        <time>2016-04-05T14:21:57Z</time>
      </trkpt>
      <trkpt lat="46.1742" lon="2.40218">
        <ele>400</ele>
        <time>2016-04-05T14:22:00Z</time>
      </trkpt>
      <trkpt lat="46.17424" lon="2.40217">
        <ele>400</ele>
        <time>2016-04-05T14:22:03Z</time>
      </trkpt>
      <trkpt lat="46.17429" lon="2.40217">
        <ele>400</ele>
        <time>2016-04-05T14:22:06Z</time>
      </trkpt>
      <trkpt lat="46.17433" lon="2.40216">
        <ele>400</ele>
        <time>2016-04-05T14:22:09Z</time>
      </trkpt>
      <trkpt lat="46.17436" lon="2.40215">
        <ele>400</ele>
        <time>2016-04-05T14:22:22Z</time>
      </trkpt>
      <trkpt lat="46.17438" lon="2.40215">
        <ele>400</ele>
        <time>2016-04-05T14:22:36Z</time>
      </trkpt>
      <trkpt lat="46.17439" lon="2.40215">
        <ele>400</ele>
        <time>2016-04-05T14:22:43Z</time>
      </trkpt>
      <trkpt lat="46.17443" lon="2.40215">
        <ele>400</ele>
        <time>2016-04-05T14:22:46Z</time>
      </trkpt>
      <trkpt lat="46.17447" lon="2.40214">
        <ele>400</ele>
        <time>2016-04-05T14:22:49Z</time>
      </trkpt>
      <trkpt lat="46.1745" lon="2.40214">
        <ele>400</ele>
        <time>2016-04-05T14:22:52Z</time>
      </trkpt>
      <trkpt lat="46.17455" lon="2.40213">
        <ele>400</ele>
        <time>2016-04-05T14:22:55Z</time>
      </trkpt>
      <trkpt lat="46.17459" lon="2.40213">
        <ele>400</ele>
        <time>2016-04-05T14:22:58Z</time>
      </trkpt>
      <trkpt lat="46.17463" lon="2.40213">
        <ele>400</ele>
        <time>2016-04-05T14:23:01Z</time>
      </trkpt>
      <trkpt lat="46.17467" lon="2.40212">
        <ele>400</ele>
        <time>2016-04-05T14:23:04Z</time>
      </trkpt>
      <trkpt lat="46.17471" lon="2.40212">
        <ele>400</ele>
        <time>2016-04-05T14:23:07Z</time>
      </trkpt>
      <trkpt lat="46.17475" lon="2.40211">
        <ele>400</ele>
        <time>2016-04-05T14:23:10Z</time>
      </trkpt>
      <trkpt lat="46.1748" lon="2.40211">
        <ele>400</ele>
        <time>2016-04-05T14:23:13Z</time>
      </trkpt>
      <trkpt lat="46.17484" lon="2.40211">
        <ele>400</ele>
        <time>2016-04-05T14:23:16Z</time>
      </trkpt>
      <trkpt lat="46.17488" lon="2.4021">
        <ele>400</ele>
        <time>2016-04-05T14:23:19Z</time>
      </trkpt>
      <trkpt lat="46.17492" lon="2.4021">
        <ele>400</ele>
        <time>2016-04-05T14:23:22Z</time>
      </trkpt>
      <trkpt lat="46.17496" lon="2.40209">
        <ele>400</ele>
        <time>2016-04-05T14:23:25Z</time>
      </trkpt>
      <trkpt lat="46.17501" lon="2.40209">
        <ele>400</ele>
        <time>2016-04-05T14:23:28Z</time>
      </trkpt>
      <trkpt lat="46.17505" lon="2.40209">
        <ele>400</ele>
        <time>2016-04-05T14:23:31Z</time>
      </trkpt>
      <trkpt lat="46.17509" lon="2.40208">
        <ele>400</ele>
        <time>2016-04-05T14:23:34Z</time>
      </trkpt>
      <trkpt lat="46.17514" lon="2.40208">
        <ele>400</ele>
        <time>2016-04-05T14:23:37Z</time>
      </trkpt>
      <trkpt lat="46.17518" lon="2.40207">
        <ele>400</ele>
        <time>2016-04-05T14:23:40Z</time>
      </trkpt>
      <trkpt lat="46.17523" lon="2.40207">
        <ele>400</ele>
        <time>2016-04-05T14:23:43Z</time>
      </trkpt>
      <trkpt lat="46.17527" lon="2.40207">
        <ele>400</ele>
        <time>2016-04-05T14:23:46Z</time>
      </trkpt>
      <trkpt lat="46.17531" lon="2.40208">
        <ele>400</ele>
        <time>2016-04-05T14:23:49Z</time>
      </trkpt>
      <trkpt lat="46.17536" lon="2.40208">
        <ele>400</ele>
        <time>2016-04-05T14:23:52Z</time>
      </trkpt>
      <trkpt lat="46.17541" lon="2.40207">
        <ele>400</ele>
        <time>2016-04-05T14:23:55Z</time>
      </trkpt>
      <trkpt lat="46.17545" lon="2.40207">
        <ele>400</ele>
        <time>2016-04-05T14:23:58Z</time>
      </trkpt>
      <trkpt lat="46.1755" lon="2.40207">
        <ele>400</ele>
        <time>2016-04-05T14:24:01Z</time>
      </trkpt>
      <trkpt lat="46.17554" lon="2.40207">
        <ele>400</ele>
        <time>2016-04-05T14:24:04Z</time>
      </trkpt>
      <trkpt lat="46.17559" lon="2.40208">
        <ele>400</ele>
        <time>2016-04-05T14:24:07Z</time>
      </trkpt>
      <trkpt lat="46.17563" lon="2.40208">
        <ele>400</ele>
        <time>2016-04-05T14:24:10Z</time>
      </trkpt>
      <trkpt lat="46.17568" lon="2.40208">
        <ele>400</ele>
        <time>2016-04-05T14:24:13Z</time>
      </trkpt>
      <trkpt lat="46.17572" lon="2.40208">
        <ele>400</ele>
        <time>2016-04-05T14:24:16Z</time>
      </trkpt>
      <trkpt lat="46.17577" lon="2.40209">
        <ele>400</ele>
        <time>2016-04-05T14:24:19Z</time>
      </trkpt>
      <trkpt lat="46.17582" lon="2.40209">
        <ele>399</ele>
        <time>2016-04-05T14:24:22Z</time>
      </trkpt>
      <trkpt lat="46.17586" lon="2.4021">
        <ele>399</ele>
        <time>2016-04-05T14:24:25Z</time>
      </trkpt>
      <trkpt lat="46.1759" lon="2.40211">
        <ele>399</ele>
        <time>2016-04-05T14:24:28Z</time>
      </trkpt>
      <trkpt lat="46.17595" lon="2.40212">
        <ele>399</ele>
        <time>2016-04-05T14:24:31Z</time>
      </trkpt>
      <trkpt lat="46.176" lon="2.40212">
        <ele>399</ele>
        <time>2016-04-05T14:24:34Z</time>
      </trkpt>
      <trkpt lat="46.17604" lon="2.40213">
        <ele>398</ele>
        <time>2016-04-05T14:24:37Z</time>
      </trkpt>
      <trkpt lat="46.17609" lon="2.40214">
        <ele>398</ele>
        <time>2016-04-05T14:24:40Z</time>
      </trkpt>
      <trkpt lat="46.17614" lon="2.40214">
        <ele>398</ele>
        <time>2016-04-05T14:24:43Z</time>
      </trkpt>
      <trkpt lat="46.17619" lon="2.40214">
        <ele>398</ele>
        <time>2016-04-05T14:24:46Z</time>
      </trkpt>
      <trkpt lat="46.17623" lon="2.40214">
        <ele>398</ele>
        <time>2016-04-05T14:24:49Z</time>
      </trkpt>
      <trkpt lat="46.17627" lon="2.40214">
        <ele>398</ele>
        <time>2016-04-05T14:24:52Z</time>
      </trkpt>
      <trkpt lat="46.17633" lon="2.40215">
        <ele>398</ele>
        <time>2016-04-05T14:24:55Z</time>
      </trkpt>
      <trkpt lat="46.17638" lon="2.40215">
        <ele>398</ele>
        <time>2016-04-05T14:24:58Z</time>
      </trkpt>
      <trkpt lat="46.17643" lon="2.40216">
        <ele>398</ele>
        <time>2016-04-05T14:25:01Z</time>
      </trkpt>
      <trkpt lat="46.17648" lon="2.40217">
        <ele>398</ele>
        <time>2016-04-05T14:25:04Z</time>
      </trkpt>
      <trkpt lat="46.17652" lon="2.40218">
        <ele>398</ele>
        <time>2016-04-05T14:25:07Z</time>
      </trkpt>
      <trkpt lat="46.17656" lon="2.40219">
        <ele>398</ele>
        <time>2016-04-05T14:25:10Z</time>
      </trkpt>
      <trkpt lat="46.17661" lon="2.4022">
        <ele>398</ele>
        <time>2016-04-05T14:25:13Z</time>
      </trkpt>
      <trkpt lat="46.17665" lon="2.40221">
        <ele>398</ele>
        <time>2016-04-05T14:25:16Z</time>
      </trkpt>
      <trkpt lat="46.1767" lon="2.40222">
        <ele>398</ele>
        <time>2016-04-05T14:25:19Z</time>
      </trkpt>
      <trkpt lat="46.17674" lon="2.40224">
        <ele>398</ele>
        <time>2016-04-05T14:25:22Z</time>
      </trkpt>
      <trkpt lat="46.17678" lon="2.40225">
        <ele>398</ele>
        <time>2016-04-05T14:25:25Z</time>
      </trkpt>
      <trkpt lat="46.17683" lon="2.40227">
        <ele>398</ele>
        <time>2016-04-05T14:25:28Z</time>
      </trkpt>
      <trkpt lat="46.17687" lon="2.40229">
        <ele>398</ele>
        <time>2016-04-05T14:25:31Z</time>
      </trkpt>
      <trkpt lat="46.17691" lon="2.40231">
        <ele>398</ele>
        <time>2016-04-05T14:25:34Z</time>
      </trkpt>
      <trkpt lat="46.17695" lon="2.40233">
        <ele>398</ele>
        <time>2016-04-05T14:25:37Z</time>
      </trkpt>
      <trkpt lat="46.17699" lon="2.40236">
        <ele>398</ele>
        <time>2016-04-05T14:25:40Z</time>
      </trkpt>
      <trkpt lat="46.17704" lon="2.40238">
        <ele>398</ele>
        <time>2016-04-05T14:25:43Z</time>
      </trkpt>
      <trkpt lat="46.17707" lon="2.40241">
        <ele>398</ele>
        <time>2016-04-05T14:25:46Z</time>
      </trkpt>
      <trkpt lat="46.17711" lon="2.40244">
        <ele>398</ele>
        <time>2016-04-05T14:25:49Z</time>
      </trkpt>
      <trkpt lat="46.17715" lon="2.40247">
        <ele>398</ele>
        <time>2016-04-05T14:25:52Z</time>
      </trkpt>
      <trkpt lat="46.17719" lon="2.40251">
        <ele>398</ele>
        <time>2016-04-05T14:25:55Z</time>
      </trkpt>
      <trkpt lat="46.17723" lon="2.40254">
        <ele>398</ele>
        <time>2016-04-05T14:25:58Z</time>
      </trkpt>
      <trkpt lat="46.17727" lon="2.40257">
        <ele>398</ele>
        <time>2016-04-05T14:26:01Z</time>
      </trkpt>
      <trkpt lat="46.1773" lon="2.40261">
        <ele>398</ele>
        <time>2016-04-05T14:26:04Z</time>
      </trkpt>
      <trkpt lat="46.17733" lon="2.40264">
        <ele>398</ele>
        <time>2016-04-05T14:26:07Z</time>
      </trkpt>
      <trkpt lat="46.17737" lon="2.40267">
        <ele>398</ele>
        <time>2016-04-05T14:26:10Z</time>
      </trkpt>
      <trkpt lat="46.1774" lon="2.40271">
        <ele>398</ele>
        <time>2016-04-05T14:26:13Z</time>
      </trkpt>
      <trkpt lat="46.17744" lon="2.40275">
        <ele>397</ele>
        <time>2016-04-05T14:26:16Z</time>
      </trkpt>
      <trkpt lat="46.17748" lon="2.4028">
        <ele>397</ele>
        <time>2016-04-05T14:26:19Z</time>
      </trkpt>
      <trkpt lat="46.17751" lon="2.40284">
        <ele>397</ele>
        <time>2016-04-05T14:26:22Z</time>
      </trkpt>
      <trkpt lat="46.17755" lon="2.40288">
        <ele>397</ele>
        <time>2016-04-05T14:26:25Z</time>
      </trkpt>
      <trkpt lat="46.17759" lon="2.40294">
        <ele>396</ele>
        <time>2016-04-05T14:26:29Z</time>
      </trkpt>
      <trkpt lat="46.17762" lon="2.40298">
        <ele>396</ele>
        <time>2016-04-05T14:26:32Z</time>
      </trkpt>
      <trkpt lat="46.17766" lon="2.40302">
        <ele>396</ele>
        <time>2016-04-05T14:26:35Z</time>
      </trkpt>
      <trkpt lat="46.17768" lon="2.40307">
        <ele>396</ele>
        <time>2016-04-05T14:26:38Z</time>
      </trkpt>
      <trkpt lat="46.17771" lon="2.40313">
        <ele>395</ele>
        <time>2016-04-05T14:26:41Z</time>
      </trkpt>
      <trkpt lat="46.17774" lon="2.40318">
        <ele>395</ele>
        <time>2016-04-05T14:26:44Z</time>
      </trkpt>
      <trkpt lat="46.17776" lon="2.40323">
        <ele>394</ele>
        <time>2016-04-05T14:26:47Z</time>
      </trkpt>
      <trkpt lat="46.17779" lon="2.40329">
        <ele>394</ele>
        <time>2016-04-05T14:26:50Z</time>
      </trkpt>
      <trkpt lat="46.17781" lon="2.40334">
        <ele>394</ele>
        <time>2016-04-05T14:26:53Z</time>
      </trkpt>
      <trkpt lat="46.17783" lon="2.40339">
        <ele>394</ele>
        <time>2016-04-05T14:26:56Z</time>
      </trkpt>
      <trkpt lat="46.17785" lon="2.40346">
        <ele>394</ele>
        <time>2016-04-05T14:26:59Z</time>
      </trkpt>
      <trkpt lat="46.17788" lon="2.40352">
        <ele>394</ele>
        <time>2016-04-05T14:27:02Z</time>
      </trkpt>
      <trkpt lat="46.1779" lon="2.40359">
        <ele>394</ele>
        <time>2016-04-05T14:27:05Z</time>
      </trkpt>
      <trkpt lat="46.17793" lon="2.40365">
        <ele>394</ele>
        <time>2016-04-05T14:27:08Z</time>
      </trkpt>
      <trkpt lat="46.17794" lon="2.40371">
        <ele>394</ele>
        <time>2016-04-05T14:27:11Z</time>
      </trkpt>
      <trkpt lat="46.17795" lon="2.40377">
        <ele>394</ele>
        <time>2016-04-05T14:27:14Z</time>
      </trkpt>
      <trkpt lat="46.17796" lon="2.40383">
        <ele>394</ele>
        <time>2016-04-05T14:27:17Z</time>
      </trkpt>
      <trkpt lat="46.17797" lon="2.4039">
        <ele>394</ele>
        <time>2016-04-05T14:27:20Z</time>
      </trkpt>
      <trkpt lat="46.17798" lon="2.40397">
        <ele>394</ele>
        <time>2016-04-05T14:27:23Z</time>
      </trkpt>
      <trkpt lat="46.178" lon="2.40406">
        <ele>394</ele>
        <time>2016-04-05T14:27:27Z</time>
      </trkpt>
      <trkpt lat="46.178" lon="2.40414">
        <ele>393</ele>
        <time>2016-04-05T14:27:30Z</time>
      </trkpt>
      <trkpt lat="46.17801" lon="2.40423">
        <ele>393</ele>
        <time>2016-04-05T14:27:34Z</time>
      </trkpt>
      <trkpt lat="46.17802" lon="2.40431">
        <ele>393</ele>
        <time>2016-04-05T14:27:37Z</time>
      </trkpt>
      <trkpt lat="46.17804" lon="2.40437">
        <ele>393</ele>
        <time>2016-04-05T14:27:40Z</time>
      </trkpt>
      <trkpt lat="46.1781" lon="2.40442">
        <ele>392</ele>
        <time>2016-04-05T14:27:44Z</time>
      </trkpt>
      <trkpt lat="46.17814" lon="2.40445">
        <ele>392</ele>
        <time>2016-04-05T14:27:47Z</time>
      </trkpt>
      <trkpt lat="46.17817" lon="2.4045">
        <ele>390</ele>
        <time>2016-04-05T14:27:50Z</time>
      </trkpt>
      <trkpt lat="46.1782" lon="2.40454">
        <ele>389</ele>
        <time>2016-04-05T14:27:53Z</time>
      </trkpt>
      <trkpt lat="46.17824" lon="2.40457">
        <ele>388</ele>
        <time>2016-04-05T14:27:56Z</time>
      </trkpt>
      <trkpt lat="46.17828" lon="2.40461">
        <ele>387</ele>
        <time>2016-04-05T14:27:59Z</time>
      </trkpt>
      <trkpt lat="46.17832" lon="2.40463">
        <ele>385</ele>
        <time>2016-04-05T14:28:02Z</time>
      </trkpt>
      <trkpt lat="46.17836" lon="2.40465">
        <ele>384</ele>
        <time>2016-04-05T14:28:05Z</time>
      </trkpt>
      <trkpt lat="46.1784" lon="2.40467">
        <ele>382</ele>
        <time>2016-04-05T14:28:08Z</time>
      </trkpt>
      <trkpt lat="46.17844" lon="2.40469">
        <ele>381</ele>
        <time>2016-04-05T14:28:11Z</time>
      </trkpt>
      <trkpt lat="46.17848" lon="2.40472">
        <ele>381</ele>
        <time>2016-04-05T14:28:14Z</time>
      </trkpt>
      <trkpt lat="46.17854" lon="2.40474">
        <ele>380</ele>
        <time>2016-04-05T14:28:17Z</time>
      </trkpt>
      <trkpt lat="46.17858" lon="2.40476">
        <ele>380</ele>
        <time>2016-04-05T14:28:20Z</time>
      </trkpt>
      <trkpt lat="46.17862" lon="2.40478">
        <ele>379</ele>
        <time>2016-04-05T14:28:23Z</time>
      </trkpt>
      <trkpt lat="46.17867" lon="2.40479">
        <ele>378</ele>
        <time>2016-04-05T14:28:26Z</time>
      </trkpt>
      <trkpt lat="46.17871" lon="2.4048">
        <ele>377</ele>
        <time>2016-04-05T14:28:29Z</time>
      </trkpt>
      <trkpt lat="46.17876" lon="2.40481">
        <ele>377</ele>
        <time>2016-04-05T14:28:32Z</time>
      </trkpt>
      <trkpt lat="46.17882" lon="2.40482">
        <ele>377</ele>
        <time>2016-04-05T14:28:35Z</time>
      </trkpt>
      <trkpt lat="46.1789" lon="2.40482">
        <ele>377</ele>
        <time>2016-04-05T14:28:39Z</time>
      </trkpt>
      <trkpt lat="46.17894" lon="2.40482">
        <ele>377</ele>
        <time>2016-04-05T14:28:42Z</time>
      </trkpt>
      <trkpt lat="46.17898" lon="2.40482">
        <ele>377</ele>
        <time>2016-04-05T14:28:45Z</time>
      </trkpt>
      <trkpt lat="46.17903" lon="2.40482">
        <ele>377</ele>
        <time>2016-04-05T14:28:48Z</time>
      </trkpt>
      <trkpt lat="46.17907" lon="2.40482">
        <ele>377</ele>
        <time>2016-04-05T14:28:51Z</time>
      </trkpt>
      <trkpt lat="46.17912" lon="2.40482">
        <ele>377</ele>
        <time>2016-04-05T14:28:54Z</time>
      </trkpt>
      <trkpt lat="46.17916" lon="2.40482">
        <ele>377</ele>
        <time>2016-04-05T14:28:57Z</time>
      </trkpt>
      <trkpt lat="46.1792" lon="2.40483">
        <ele>376</ele>
        <time>2016-04-05T14:29:00Z</time>
      </trkpt>
      <trkpt lat="46.17925" lon="2.40483">
        <ele>375</ele>
        <time>2016-04-05T14:29:03Z</time>
      </trkpt>
      <trkpt lat="46.17929" lon="2.40484">
        <ele>374</ele>
        <time>2016-04-05T14:29:06Z</time>
      </trkpt>
      <trkpt lat="46.17934" lon="2.40486">
        <ele>374</ele>
        <time>2016-04-05T14:29:09Z</time>
      </trkpt>
      <trkpt lat="46.17937" lon="2.40489">
        <ele>373</ele>
        <time>2016-04-05T14:29:12Z</time>
      </trkpt>
      <trkpt lat="46.17941" lon="2.40492">
        <ele>371</ele>
        <time>2016-04-05T14:29:15Z</time>
      </trkpt>
      <trkpt lat="46.17944" lon="2.40495">
        <ele>370</ele>
        <time>2016-04-05T14:29:18Z</time>
      </trkpt>
      <trkpt lat="46.17947" lon="2.40499">
        <ele>369</ele>
        <time>2016-04-05T14:29:21Z</time>
      </trkpt>
      <trkpt lat="46.17949" lon="2.40504">
        <ele>368</ele>
        <time>2016-04-05T14:29:24Z</time>
      </trkpt>
      <trkpt lat="46.17952" lon="2.40508">
        <ele>366</ele>
        <time>2016-04-05T14:29:27Z</time>
      </trkpt>
      <trkpt lat="46.17955" lon="2.40512">
        <ele>365</ele>
        <time>2016-04-05T14:29:30Z</time>
      </trkpt>
      <trkpt lat="46.17959" lon="2.40515">
        <ele>365</ele>
        <time>2016-04-05T14:29:33Z</time>
      </trkpt>
      <trkpt lat="46.17966" lon="2.40518">
        <ele>364</ele>
        <time>2016-04-05T14:29:36Z</time>
      </trkpt>
      <trkpt lat="46.17972" lon="2.40521">
        <ele>364</ele>
        <time>2016-04-05T14:29:39Z</time>
      </trkpt>
      <trkpt lat="46.17978" lon="2.40524">
        <ele>364</ele>
        <time>2016-04-05T14:29:42Z</time>
      </trkpt>
      <trkpt lat="46.17984" lon="2.40526">
        <ele>364</ele>
        <time>2016-04-05T14:29:45Z</time>
      </trkpt>
      <trkpt lat="46.17988" lon="2.40528">
        <ele>364</ele>
        <time>2016-04-05T14:29:48Z</time>
      </trkpt>
      <trkpt lat="46.17991" lon="2.40529">
        <ele>364</ele>
        <time>2016-04-05T14:29:51Z</time>
      </trkpt>
      <trkpt lat="46.17994" lon="2.40529">
        <ele>367</ele>
        <time>2016-04-05T14:30:03Z</time>
      </trkpt>
      <trkpt lat="46.17995" lon="2.4053">
        <ele>370</ele>
        <time>2016-04-05T14:30:24Z</time>
      </trkpt>
      <trkpt lat="46.18" lon="2.40531">
        <ele>370</ele>
        <time>2016-04-05T14:30:27Z</time>
      </trkpt>
      <trkpt lat="46.18004" lon="2.40532">
        <ele>370</ele>
        <time>2016-04-05T14:30:30Z</time>
      </trkpt>
      <trkpt lat="46.18008" lon="2.40534">
        <ele>370</ele>
        <time>2016-04-05T14:30:33Z</time>
      </trkpt>
      <trkpt lat="46.18012" lon="2.40535">
        <ele>370</ele>
        <time>2016-04-05T14:30:36Z</time>
      </trkpt>
      <trkpt lat="46.18016" lon="2.40538">
        <ele>370</ele>
        <time>2016-04-05T14:30:39Z</time>
      </trkpt>
      <trkpt lat="46.18021" lon="2.4054">
        <ele>370</ele>
        <time>2016-04-05T14:30:42Z</time>
      </trkpt>
      <trkpt lat="46.18024" lon="2.40542">
        <ele>369</ele>
        <time>2016-04-05T14:30:45Z</time>
      </trkpt>
      <trkpt lat="46.18028" lon="2.40544">
        <ele>368</ele>
        <time>2016-04-05T14:30:48Z</time>
      </trkpt>
      <trkpt lat="46.18033" lon="2.40547">
        <ele>367</ele>
        <time>2016-04-05T14:30:51Z</time>
      </trkpt>
      <trkpt lat="46.18037" lon="2.40551">
        <ele>366</ele>
        <time>2016-04-05T14:30:55Z</time>
      </trkpt>
      <trkpt lat="46.1804" lon="2.40555">
        <ele>365</ele>
        <time>2016-04-05T14:30:58Z</time>
      </trkpt>
      <trkpt lat="46.18043" lon="2.40558">
        <ele>365</ele>
        <time>2016-04-05T14:31:01Z</time>
      </trkpt>
      <trkpt lat="46.18047" lon="2.40563">
        <ele>364</ele>
        <time>2016-04-05T14:31:05Z</time>
      </trkpt>
      <trkpt lat="46.1805" lon="2.40567">
        <ele>363</ele>
        <time>2016-04-05T14:31:08Z</time>
      </trkpt>
      <trkpt lat="46.18052" lon="2.40572">
        <ele>362</ele>
        <time>2016-04-05T14:31:11Z</time>
      </trkpt>
      <trkpt lat="46.18055" lon="2.40578">
        <ele>361</ele>
        <time>2016-04-05T14:31:15Z</time>
      </trkpt>
      <trkpt lat="46.18061" lon="2.40585">
        <ele>361</ele>
        <time>2016-04-05T14:31:18Z</time>
      </trkpt>
      <trkpt lat="46.18063" lon="2.40591">
        <ele>361</ele>
        <time>2016-04-05T14:31:21Z</time>
      </trkpt>
      <trkpt lat="46.18067" lon="2.40596">
        <ele>361</ele>
        <time>2016-04-05T14:31:24Z</time>
      </trkpt>
      <trkpt lat="46.18069" lon="2.40601">
        <ele>361</ele>
        <time>2016-04-05T14:31:27Z</time>
      </trkpt>
      <trkpt lat="46.18071" lon="2.40606">
        <ele>361</ele>
        <time>2016-04-05T14:31:30Z</time>
      </trkpt>
      <trkpt lat="46.18073" lon="2.40612">
        <ele>361</ele>
        <time>2016-04-05T14:31:33Z</time>
      </trkpt>
      <trkpt lat="46.18075" lon="2.40617">
        <ele>361</ele>
        <time>2016-04-05T14:31:36Z</time>
      </trkpt>
      <trkpt lat="46.18078" lon="2.40622">
        <ele>361</ele>
        <time>2016-04-05T14:31:40Z</time>
      </trkpt>
      <trkpt lat="46.1808" lon="2.40628">
        <ele>361</ele>
        <time>2016-04-05T14:31:43Z</time>
      </trkpt>
      <trkpt lat="46.18081" lon="2.40634">
        <ele>361</ele>
        <time>2016-04-05T14:31:46Z</time>
      </trkpt>
      <trkpt lat="46.18082" lon="2.4064">
        <ele>361</ele>
        <time>2016-04-05T14:31:49Z</time>
      </trkpt>
      <trkpt lat="46.18082" lon="2.40646">
        <ele>361</ele>
        <time>2016-04-05T14:31:52Z</time>
      </trkpt>
      <trkpt lat="46.18083" lon="2.40654">
        <ele>361</ele>
        <time>2016-04-05T14:31:55Z</time>
      </trkpt>
      <trkpt lat="46.18085" lon="2.4066">
        <ele>361</ele>
        <time>2016-04-05T14:31:58Z</time>
      </trkpt>
      <trkpt lat="46.18085" lon="2.40667">
        <ele>361</ele>
        <time>2016-04-05T14:32:01Z</time>
      </trkpt>
      <trkpt lat="46.18086" lon="2.40674">
        <ele>361</ele>
        <time>2016-04-05T14:32:04Z</time>
      </trkpt>
      <trkpt lat="46.18087" lon="2.40681">
        <ele>361</ele>
        <time>2016-04-05T14:32:07Z</time>
      </trkpt>
      <trkpt lat="46.1809" lon="2.40687">
        <ele>361</ele>
        <time>2016-04-05T14:32:10Z</time>
      </trkpt>
      <trkpt lat="46.18094" lon="2.40691">
        <ele>360</ele>
        <time>2016-04-05T14:32:13Z</time>
      </trkpt>
      <trkpt lat="46.18097" lon="2.40695">
        <ele>359</ele>
        <time>2016-04-05T14:32:16Z</time>
      </trkpt>
      <trkpt lat="46.18101" lon="2.40696">
        <ele>358</ele>
        <time>2016-04-05T14:32:20Z</time>
      </trkpt>
      <trkpt lat="46.18106" lon="2.40695">
        <ele>356</ele>
        <time>2016-04-05T14:32:23Z</time>
      </trkpt>
      <trkpt lat="46.1811" lon="2.40693">
        <ele>355</ele>
        <time>2016-04-05T14:32:26Z</time>
      </trkpt>
      <trkpt lat="46.18115" lon="2.40689">
        <ele>354</ele>
        <time>2016-04-05T14:32:30Z</time>
      </trkpt>
      <trkpt lat="46.18118" lon="2.40684">
        <ele>353</ele>
        <time>2016-04-05T14:32:33Z</time>
      </trkpt>
      <trkpt lat="46.18121" lon="2.4068">
        <ele>352</ele>
        <time>2016-04-05T14:32:36Z</time>
      </trkpt>
      <trkpt lat="46.18124" lon="2.40674">
        <ele>351</ele>
        <time>2016-04-05T14:32:39Z</time>
      </trkpt>
      <trkpt lat="46.18127" lon="2.40668">
        <ele>349</ele>
        <time>2016-04-05T14:32:43Z</time>
      </trkpt>
      <trkpt lat="46.18131" lon="2.40664">
        <ele>349</ele>
        <time>2016-04-05T14:32:46Z</time>
      </trkpt>
      <trkpt lat="46.18134" lon="2.4066">
        <ele>349</ele>
        <time>2016-04-05T14:32:49Z</time>
      </trkpt>
      <trkpt lat="46.18137" lon="2.40656">
        <ele>349</ele>
        <time>2016-04-05T14:32:52Z</time>
      </trkpt>
      <trkpt lat="46.18141" lon="2.40651">
        <ele>349</ele>
        <time>2016-04-05T14:32:55Z</time>
      </trkpt>
      <trkpt lat="46.18144" lon="2.40649">
        <ele>348</ele>
        <time>2016-04-05T14:32:58Z</time>
      </trkpt>
      <trkpt lat="46.18148" lon="2.40644">
        <ele>346</ele>
        <time>2016-04-05T14:33:02Z</time>
      </trkpt>
      <trkpt lat="46.18152" lon="2.40641">
        <ele>345</ele>
        <time>2016-04-05T14:33:05Z</time>
      </trkpt>
      <trkpt lat="46.18156" lon="2.40637">
        <ele>344</ele>
        <time>2016-04-05T14:33:08Z</time>
      </trkpt>
      <trkpt lat="46.18162" lon="2.40634">
        <ele>344</ele>
        <time>2016-04-05T14:33:12Z</time>
      </trkpt>
      <trkpt lat="46.18166" lon="2.40631">
        <ele>344</ele>
        <time>2016-04-05T14:33:16Z</time>
      </trkpt>
      <trkpt lat="46.18169" lon="2.40629">
        <ele>343</ele>
        <time>2016-04-05T14:33:19Z</time>
      </trkpt>
      <trkpt lat="46.18173" lon="2.40626">
        <ele>343</ele>
        <time>2016-04-05T14:33:22Z</time>
      </trkpt>
      <trkpt lat="46.18178" lon="2.40624">
        <ele>342</ele>
        <time>2016-04-05T14:33:25Z</time>
      </trkpt>
      <trkpt lat="46.18183" lon="2.4062">
        <ele>342</ele>
        <time>2016-04-05T14:33:29Z</time>
      </trkpt>
      <trkpt lat="46.18187" lon="2.40618">
        <ele>342</ele>
        <time>2016-04-05T14:33:32Z</time>
      </trkpt>
      <trkpt lat="46.1819" lon="2.40615">
        <ele>340</ele>
        <time>2016-04-05T14:33:35Z</time>
      </trkpt>
      <trkpt lat="46.18195" lon="2.40612">
        <ele>340</ele>
        <time>2016-04-05T14:33:38Z</time>
      </trkpt>
      <trkpt lat="46.18198" lon="2.40611">
        <ele>340</ele>
        <time>2016-04-05T14:33:41Z</time>
      </trkpt>
      <trkpt lat="46.18202" lon="2.40609">
        <ele>339</ele>
        <time>2016-04-05T14:33:44Z</time>
      </trkpt>
      <trkpt lat="46.18208" lon="2.40609">
        <ele>338</ele>
        <time>2016-04-05T14:33:47Z</time>
      </trkpt>
      <trkpt lat="46.18219" lon="2.40608">
        <ele>338</ele>
        <time>2016-04-05T14:33:50Z</time>
      </trkpt>
      <trkpt lat="46.18226" lon="2.40608">
        <ele>341</ele>
        <time>2016-04-05T14:33:53Z</time>
      </trkpt>
      <trkpt lat="46.18232" lon="2.40607">
        <ele>344</ele>
        <time>2016-04-05T14:33:56Z</time>
      </trkpt>
      <trkpt lat="46.18236" lon="2.40606">
        <ele>346</ele>
        <time>2016-04-05T14:33:59Z</time>
      </trkpt>
      <trkpt lat="46.1824" lon="2.40604">
        <ele>346</ele>
        <time>2016-04-05T14:34:02Z</time>
      </trkpt>
      <trkpt lat="46.18245" lon="2.40602">
        <ele>346</ele>
        <time>2016-04-05T14:34:05Z</time>
      </trkpt>
      <trkpt lat="46.1825" lon="2.40602">
        <ele>346</ele>
        <time>2016-04-05T14:34:08Z</time>
      </trkpt>
      <trkpt lat="46.18254" lon="2.40602">
        <ele>346</ele>
        <time>2016-04-05T14:34:11Z</time>
      </trkpt>
      <trkpt lat="46.18258" lon="2.40601">
        <ele>346</ele>
        <time>2016-04-05T14:34:14Z</time>
      </trkpt>
      <trkpt lat="46.18262" lon="2.40601">
        <ele>346</ele>
        <time>2016-04-05T14:34:17Z</time>
      </trkpt>
      <trkpt lat="46.18268" lon="2.40602">
        <ele>346</ele>
        <time>2016-04-05T14:34:20Z</time>
      </trkpt>
      <trkpt lat="46.18272" lon="2.40603">
        <ele>346</ele>
        <time>2016-04-05T14:34:23Z</time>
      </trkpt>
      <trkpt lat="46.18277" lon="2.40603">
        <ele>346</ele>
        <time>2016-04-05T14:34:26Z</time>
      </trkpt>
      <trkpt lat="46.18281" lon="2.40604">
        <ele>345</ele>
        <time>2016-04-05T14:34:29Z</time>
      </trkpt>
      <trkpt lat="46.18286" lon="2.40604">
        <ele>345</ele>
        <time>2016-04-05T14:34:32Z</time>
      </trkpt>
      <trkpt lat="46.18291" lon="2.40604">
        <ele>345</ele>
        <time>2016-04-05T14:34:35Z</time>
      </trkpt>
      <trkpt lat="46.18296" lon="2.40605">
        <ele>345</ele>
        <time>2016-04-05T14:34:38Z</time>
      </trkpt>
      <trkpt lat="46.18302" lon="2.40605">
        <ele>344</ele>
        <time>2016-04-05T14:34:41Z</time>
      </trkpt>
      <trkpt lat="46.18307" lon="2.40605">
        <ele>343</ele>
        <time>2016-04-05T14:34:44Z</time>
      </trkpt>
      <trkpt lat="46.18311" lon="2.40606">
        <ele>343</ele>
        <time>2016-04-05T14:34:47Z</time>
      </trkpt>
      <trkpt lat="46.18315" lon="2.40607">
        <ele>342</ele>
        <time>2016-04-05T14:34:50Z</time>
      </trkpt>
      <trkpt lat="46.18319" lon="2.40606">
        <ele>342</ele>
        <time>2016-04-05T14:34:53Z</time>
      </trkpt>
      <trkpt lat="46.18323" lon="2.40607">
        <ele>341</ele>
        <time>2016-04-05T14:34:56Z</time>
      </trkpt>
      <trkpt lat="46.18328" lon="2.40607">
        <ele>340</ele>
        <time>2016-04-05T14:34:59Z</time>
      </trkpt>
      <trkpt lat="46.18331" lon="2.40609">
        <ele>339</ele>
        <time>2016-04-05T14:35:03Z</time>
      </trkpt>
      <trkpt lat="46.18328" lon="2.40609">
        <ele>339</ele>
        <time>2016-04-05T14:35:06Z</time>
      </trkpt>
      <trkpt lat="46.18325" lon="2.4061">
        <ele>338</ele>
        <time>2016-04-05T14:35:09Z</time>
      </trkpt>
      <trkpt lat="46.1832" lon="2.40611">
        <ele>337</ele>
        <time>2016-04-05T14:35:12Z</time>
      </trkpt>
      <trkpt lat="46.18316" lon="2.40611">
        <ele>337</ele>
        <time>2016-04-05T14:35:15Z</time>
      </trkpt>
      <trkpt lat="46.18311" lon="2.4061">
        <ele>336</ele>
        <time>2016-04-05T14:35:18Z</time>
      </trkpt>
      <trkpt lat="46.18306" lon="2.4061">
        <ele>336</ele>
        <time>2016-04-05T14:35:21Z</time>
      </trkpt>
      <trkpt lat="46.18301" lon="2.40609">
        <ele>336</ele>
        <time>2016-04-05T14:35:24Z</time>
      </trkpt>
      <trkpt lat="46.18298" lon="2.40608">
        <ele>336</ele>
        <time>2016-04-05T14:35:27Z</time>
      </trkpt>
      <trkpt lat="46.18294" lon="2.40609">
        <ele>335</ele>
        <time>2016-04-05T14:35:30Z</time>
      </trkpt>
      <trkpt lat="46.18289" lon="2.40608">
        <ele>335</ele>
        <time>2016-04-05T14:35:34Z</time>
      </trkpt>
      <trkpt lat="46.18285" lon="2.40606">
        <ele>335</ele>
        <time>2016-04-05T14:35:37Z</time>
      </trkpt>
      <trkpt lat="46.18282" lon="2.40607">
        <ele>335</ele>
        <time>2016-04-05T14:35:40Z</time>
      </trkpt>
      <trkpt lat="46.18277" lon="2.40611">
        <ele>335</ele>
        <time>2016-04-05T14:35:44Z</time>
      </trkpt>
      <trkpt lat="46.18273" lon="2.40616">
        <ele>335</ele>
        <time>2016-04-05T14:35:48Z</time>
      </trkpt>
      <trkpt lat="46.18271" lon="2.40623">
        <ele>335</ele>
        <time>2016-04-05T14:35:51Z</time>
      </trkpt>
      <trkpt lat="46.18269" lon="2.40628">
        <ele>334</ele>
        <time>2016-04-05T14:35:54Z</time>
      </trkpt>
      <trkpt lat="46.18268" lon="2.40634">
        <ele>334</ele>
        <time>2016-04-05T14:35:57Z</time>
      </trkpt>
      <trkpt lat="46.18268" lon="2.40641">
        <ele>334</ele>
        <time>2016-04-05T14:36:00Z</time>
      </trkpt>
      <trkpt lat="46.18267" lon="2.4065">
        <ele>334</ele>
        <time>2016-04-05T14:36:03Z</time>
      </trkpt>
      <trkpt lat="46.18266" lon="2.40659">
        <ele>334</ele>
        <time>2016-04-05T14:36:06Z</time>
      </trkpt>
      <trkpt lat="46.18266" lon="2.40665">
        <ele>334</ele>
        <time>2016-04-05T14:36:09Z</time>
      </trkpt>
      <trkpt lat="46.18266" lon="2.40671">
        <ele>334</ele>
        <time>2016-04-05T14:36:12Z</time>
      </trkpt>
      <trkpt lat="46.18265" lon="2.40677">
        <ele>334</ele>
        <time>2016-04-05T14:36:15Z</time>
      </trkpt>
      <trkpt lat="46.18265" lon="2.40685">
        <ele>334</ele>
        <time>2016-04-05T14:36:18Z</time>
      </trkpt>
      <trkpt lat="46.18265" lon="2.40692">
        <ele>334</ele>
        <time>2016-04-05T14:36:21Z</time>
      </trkpt>
      <trkpt lat="46.18266" lon="2.40699">
        <ele>334</ele>
        <time>2016-04-05T14:36:24Z</time>
      </trkpt>
      <trkpt lat="46.18266" lon="2.40705">
        <ele>334</ele>
        <time>2016-04-05T14:36:27Z</time>
      </trkpt>
      <trkpt lat="46.18264" lon="2.40711">
        <ele>334</ele>
        <time>2016-04-05T14:36:30Z</time>
      </trkpt>
      <trkpt lat="46.1826" lon="2.40718">
        <ele>334</ele>
        <time>2016-04-05T14:36:34Z</time>
      </trkpt>
      <trkpt lat="46.18257" lon="2.40722">
        <ele>334</ele>
        <time>2016-04-05T14:36:37Z</time>
      </trkpt>
      <trkpt lat="46.18254" lon="2.40725">
        <ele>334</ele>
        <time>2016-04-05T14:36:40Z</time>
      </trkpt>
      <trkpt lat="46.18252" lon="2.40731">
        <ele>334</ele>
        <time>2016-04-05T14:36:43Z</time>
      </trkpt>
      <trkpt lat="46.18249" lon="2.40734">
        <ele>334</ele>
        <time>2016-04-05T14:36:46Z</time>
      </trkpt>
      <trkpt lat="46.18247" lon="2.40739">
        <ele>333</ele>
        <time>2016-04-05T14:36:49Z</time>
      </trkpt>
      <trkpt lat="46.18244" lon="2.40743">
        <ele>333</ele>
        <time>2016-04-05T14:36:52Z</time>
      </trkpt>
      <trkpt lat="46.18244" lon="2.40747">
        <ele>333</ele>
        <time>2016-04-05T14:36:55Z</time>
      </trkpt>
      <trkpt lat="46.18246" lon="2.40752">
        <ele>333</ele>
        <time>2016-04-05T14:36:59Z</time>
      </trkpt>
      <trkpt lat="46.18249" lon="2.40753">
        <ele>333</ele>
        <time>2016-04-05T14:37:03Z</time>
      </trkpt>
      <trkpt lat="46.18253" lon="2.40749">
        <ele>333</ele>
        <time>2016-04-05T14:37:06Z</time>
      </trkpt>
      <trkpt lat="46.18259" lon="2.40744">
        <ele>333</ele>
        <time>2016-04-05T14:37:10Z</time>
      </trkpt>
      <trkpt lat="46.18262" lon="2.4074">
        <ele>333</ele>
        <time>2016-04-05T14:37:13Z</time>
      </trkpt>
      <trkpt lat="46.18267" lon="2.40738">
        <ele>333</ele>
        <time>2016-04-05T14:37:16Z</time>
      </trkpt>
      <trkpt lat="46.18272" lon="2.40736">
        <ele>333</ele>
        <time>2016-04-05T14:37:20Z</time>
      </trkpt>
      <trkpt lat="46.18275" lon="2.40739">
        <ele>333</ele>
        <time>2016-04-05T14:37:23Z</time>
      </trkpt>
      <trkpt lat="46.18279" lon="2.40742">
        <ele>333</ele>
        <time>2016-04-05T14:37:27Z</time>
      </trkpt>
      <trkpt lat="46.18281" lon="2.40746">
        <ele>331</ele>
        <time>2016-04-05T14:37:31Z</time>
      </trkpt>
      <trkpt lat="46.18284" lon="2.40749">
        <ele>330</ele>
        <time>2016-04-05T14:37:34Z</time>
      </trkpt>
      <trkpt lat="46.18287" lon="2.40752">
        <ele>330</ele>
        <time>2016-04-05T14:37:37Z</time>
      </trkpt>
      <trkpt lat="46.1829" lon="2.40756">
        <ele>329</ele>
        <time>2016-04-05T14:37:41Z</time>
      </trkpt>
      <trkpt lat="46.18292" lon="2.4076">
        <ele>329</ele>
        <time>2016-04-05T14:37:44Z</time>
      </trkpt>
      <trkpt lat="46.18299" lon="2.40765">
        <ele>329</ele>
        <time>2016-04-05T14:37:47Z</time>
      </trkpt>
      <trkpt lat="46.18302" lon="2.4077">
        <ele>329</ele>
        <time>2016-04-05T14:37:50Z</time>
      </trkpt>
      <trkpt lat="46.18304" lon="2.40775">
        <ele>330</ele>
        <time>2016-04-05T14:37:53Z</time>
      </trkpt>
      <trkpt lat="46.18306" lon="2.40781">
        <ele>330</ele>
        <time>2016-04-05T14:37:56Z</time>
      </trkpt>
      <trkpt lat="46.18309" lon="2.40787">
        <ele>331</ele>
        <time>2016-04-05T14:37:59Z</time>
      </trkpt>
      <trkpt lat="46.18312" lon="2.40792">
        <ele>332</ele>
        <time>2016-04-05T14:38:02Z</time>
      </trkpt>
      <trkpt lat="46.18315" lon="2.40797">
        <ele>333</ele>
        <time>2016-04-05T14:38:05Z</time>
      </trkpt>
      <trkpt lat="46.18317" lon="2.40803">
        <ele>333</ele>
        <time>2016-04-05T14:38:08Z</time>
      </trkpt>
      <trkpt lat="46.18318" lon="2.40809">
        <ele>333</ele>
        <time>2016-04-05T14:38:11Z</time>
      </trkpt>
      <trkpt lat="46.1832" lon="2.40814">
        <ele>333</ele>
        <time>2016-04-05T14:38:14Z</time>
      </trkpt>
      <trkpt lat="46.18322" lon="2.4082">
        <ele>333</ele>
        <time>2016-04-05T14:38:17Z</time>
      </trkpt>
      <trkpt lat="46.18323" lon="2.40826">
        <ele>333</ele>
        <time>2016-04-05T14:38:20Z</time>
      </trkpt>
      <trkpt lat="46.18324" lon="2.40831">
        <ele>333</ele>
        <time>2016-04-05T14:38:23Z</time>
      </trkpt>
      <trkpt lat="46.18325" lon="2.40838">
        <ele>333</ele>
        <time>2016-04-05T14:38:26Z</time>
      </trkpt>
      <trkpt lat="46.18326" lon="2.40843">
        <ele>333</ele>
        <time>2016-04-05T14:38:29Z</time>
      </trkpt>
      <trkpt lat="46.18327" lon="2.40848">
        <ele>334</ele>
        <time>2016-04-05T14:38:32Z</time>
      </trkpt>
      <trkpt lat="46.18328" lon="2.40854">
        <ele>334</ele>
        <time>2016-04-05T14:38:35Z</time>
      </trkpt>
      <trkpt lat="46.18329" lon="2.40861">
        <ele>334</ele>
        <time>2016-04-05T14:38:38Z</time>
      </trkpt>
      <trkpt lat="46.18331" lon="2.40865">
        <ele>334</ele>
        <time>2016-04-05T14:38:41Z</time>
      </trkpt>
      <trkpt lat="46.18331" lon="2.40871">
        <ele>334</ele>
        <time>2016-04-05T14:38:44Z</time>
      </trkpt>
      <trkpt lat="46.18333" lon="2.40875">
        <ele>334</ele>
        <time>2016-04-05T14:38:47Z</time>
      </trkpt>
      <trkpt lat="46.18337" lon="2.4088">
        <ele>334</ele>
        <time>2016-04-05T14:38:50Z</time>
      </trkpt>
      <trkpt lat="46.18338" lon="2.40886">
        <ele>334</ele>
        <time>2016-04-05T14:38:53Z</time>
      </trkpt>
      <trkpt lat="46.18341" lon="2.40891">
        <ele>334</ele>
        <time>2016-04-05T14:38:56Z</time>
      </trkpt>
      <trkpt lat="46.18343" lon="2.40897">
        <ele>334</ele>
        <time>2016-04-05T14:38:59Z</time>
      </trkpt>
      <trkpt lat="46.18347" lon="2.40902">
        <ele>334</ele>
        <time>2016-04-05T14:39:03Z</time>
      </trkpt>
      <trkpt lat="46.1835" lon="2.40907">
        <ele>334</ele>
        <time>2016-04-05T14:39:06Z</time>
      </trkpt>
      <trkpt lat="46.18353" lon="2.40912">
        <ele>334</ele>
        <time>2016-04-05T14:39:09Z</time>
      </trkpt>
      <trkpt lat="46.18355" lon="2.40918">
        <ele>334</ele>
        <time>2016-04-05T14:39:12Z</time>
      </trkpt>
      <trkpt lat="46.18357" lon="2.40924">
        <ele>334</ele>
        <time>2016-04-05T14:39:15Z</time>
      </trkpt>
      <trkpt lat="46.1836" lon="2.40929">
        <ele>335</ele>
        <time>2016-04-05T14:39:18Z</time>
      </trkpt>
      <trkpt lat="46.18362" lon="2.40935">
        <ele>335</ele>
        <time>2016-04-05T14:39:21Z</time>
      </trkpt>
      <trkpt lat="46.18365" lon="2.40941">
        <ele>336</ele>
        <time>2016-04-05T14:39:24Z</time>
      </trkpt>
      <trkpt lat="46.18367" lon="2.40947">
        <ele>336</ele>
        <time>2016-04-05T14:39:27Z</time>
      </trkpt>
      <trkpt lat="46.18369" lon="2.40951">
        <ele>336</ele>
        <time>2016-04-05T14:39:30Z</time>
      </trkpt>
      <trkpt lat="46.18372" lon="2.40957">
        <ele>337</ele>
        <time>2016-04-05T14:39:33Z</time>
      </trkpt>
      <trkpt lat="46.18373" lon="2.40962">
        <ele>337</ele>
        <time>2016-04-05T14:39:36Z</time>
      </trkpt>
      <trkpt lat="46.18376" lon="2.40966">
        <ele>337</ele>
        <time>2016-04-05T14:39:39Z</time>
      </trkpt>
      <trkpt lat="46.18378" lon="2.40971">
        <ele>337</ele>
        <time>2016-04-05T14:39:42Z</time>
      </trkpt>
      <trkpt lat="46.1838" lon="2.40976">
        <ele>337</ele>
        <time>2016-04-05T14:39:45Z</time>
      </trkpt>
      <trkpt lat="46.18383" lon="2.40981">
        <ele>337</ele>
        <time>2016-04-05T14:39:48Z</time>
      </trkpt>
      <trkpt lat="46.18384" lon="2.40985">
        <ele>337</ele>
        <time>2016-04-05T14:39:51Z</time>
      </trkpt>
      <trkpt lat="46.18387" lon="2.40991">
        <ele>338</ele>
        <time>2016-04-05T14:39:55Z</time>
      </trkpt>
      <trkpt lat="46.1839" lon="2.40995">
        <ele>338</ele>
        <time>2016-04-05T14:39:58Z</time>
      </trkpt>
      <trkpt lat="46.18392" lon="2.41">
        <ele>339</ele>
        <time>2016-04-05T14:40:01Z</time>
      </trkpt>
      <trkpt lat="46.18395" lon="2.41005">
        <ele>339</ele>
        <time>2016-04-05T14:40:04Z</time>
      </trkpt>
      <trkpt lat="46.18397" lon="2.41009">
        <ele>340</ele>
        <time>2016-04-05T14:40:07Z</time>
      </trkpt>
      <trkpt lat="46.18399" lon="2.41015">
        <ele>340</ele>
        <time>2016-04-05T14:40:10Z</time>
      </trkpt>
      <trkpt lat="46.18403" lon="2.41021">
        <ele>340</ele>
        <time>2016-04-05T14:40:14Z</time>
      </trkpt>
      <trkpt lat="46.18407" lon="2.41025">
        <ele>340</ele>
        <time>2016-04-05T14:40:17Z</time>
      </trkpt>
      <trkpt lat="46.1841" lon="2.4103">
        <ele>340</ele>
        <time>2016-04-05T14:40:20Z</time>
      </trkpt>
      <trkpt lat="46.18413" lon="2.41033">
        <ele>340</ele>
        <time>2016-04-05T14:40:23Z</time>
      </trkpt>
      <trkpt lat="46.18417" lon="2.41039">
        <ele>340</ele>
        <time>2016-04-05T14:40:27Z</time>
      </trkpt>
      <trkpt lat="46.1842" lon="2.41043">
        <ele>340</ele>
        <time>2016-04-05T14:40:31Z</time>
      </trkpt>
      <trkpt lat="46.18422" lon="2.41048">
        <ele>337</ele>
        <time>2016-04-05T14:40:35Z</time>
      </trkpt>
      <trkpt lat="46.18425" lon="2.41052">
        <ele>334</ele>
        <time>2016-04-05T14:40:39Z</time>
      </trkpt>
      <trkpt lat="46.18427" lon="2.41056">
        <ele>331</ele>
        <time>2016-04-05T14:40:42Z</time>
      </trkpt>
      <trkpt lat="46.18428" lon="2.41061">
        <ele>329</ele>
        <time>2016-04-05T14:40:45Z</time>
      </trkpt>
      <trkpt lat="46.18433" lon="2.41065">
        <ele>327</ele>
        <time>2016-04-05T14:40:49Z</time>
      </trkpt>
      <trkpt lat="46.18435" lon="2.4107">
        <ele>326</ele>
        <time>2016-04-05T14:40:52Z</time>
      </trkpt>
      <trkpt lat="46.18437" lon="2.41076">
        <ele>324</ele>
        <time>2016-04-05T14:40:56Z</time>
      </trkpt>
      <trkpt lat="46.18438" lon="2.41083">
        <ele>321</ele>
        <time>2016-04-05T14:41:00Z</time>
      </trkpt>
      <trkpt lat="46.1844" lon="2.41087">
        <ele>319</ele>
        <time>2016-04-05T14:41:03Z</time>
      </trkpt>
      <trkpt lat="46.18441" lon="2.41091">
        <ele>317</ele>
        <time>2016-04-05T14:41:06Z</time>
      </trkpt>
      <trkpt lat="46.18444" lon="2.41097">
        <ele>315</ele>
        <time>2016-04-05T14:41:10Z</time>
      </trkpt>
      <trkpt lat="46.18446" lon="2.41102">
        <ele>314</ele>
        <time>2016-04-05T14:41:13Z</time>
      </trkpt>
      <trkpt lat="46.18449" lon="2.41107">
        <ele>313</ele>
        <time>2016-04-05T14:41:16Z</time>
      </trkpt>
      <trkpt lat="46.18452" lon="2.41112">
        <ele>313</ele>
        <time>2016-04-05T14:41:19Z</time>
      </trkpt>
      <trkpt lat="46.18457" lon="2.41118">
        <ele>313</ele>
        <time>2016-04-05T14:41:22Z</time>
      </trkpt>
      <trkpt lat="46.18462" lon="2.41122">
        <ele>313</ele>
        <time>2016-04-05T14:41:25Z</time>
      </trkpt>
      <trkpt lat="46.18466" lon="2.41127">
        <ele>314</ele>
        <time>2016-04-05T14:41:28Z</time>
      </trkpt>
      <trkpt lat="46.18468" lon="2.41132">
        <ele>314</ele>
        <time>2016-04-05T14:41:31Z</time>
      </trkpt>
      <trkpt lat="46.18472" lon="2.41137">
        <ele>314</ele>
        <time>2016-04-05T14:41:34Z</time>
      </trkpt>
      <trkpt lat="46.18475" lon="2.41141">
        <ele>314</ele>
        <time>2016-04-05T14:41:37Z</time>
      </trkpt>
      <trkpt lat="46.18478" lon="2.41146">
        <ele>315</ele>
        <time>2016-04-05T14:41:40Z</time>
      </trkpt>
      <trkpt lat="46.18489" lon="2.41152">
        <ele>317</ele>
        <time>2016-04-05T14:41:43Z</time>
      </trkpt>
      <trkpt lat="46.18495" lon="2.41157">
        <ele>320</ele>
        <time>2016-04-05T14:41:46Z</time>
      </trkpt>
      <trkpt lat="46.18499" lon="2.41162">
        <ele>323</ele>
        <time>2016-04-05T14:41:49Z</time>
      </trkpt>
      <trkpt lat="46.18502" lon="2.41167">
        <ele>326</ele>
        <time>2016-04-05T14:41:52Z</time>
      </trkpt>
      <trkpt lat="46.18504" lon="2.41171">
        <ele>327</ele>
        <time>2016-04-05T14:41:55Z</time>
      </trkpt>
      <trkpt lat="46.18507" lon="2.41176">
        <ele>327</ele>
        <time>2016-04-05T14:41:58Z</time>
      </trkpt>
      <trkpt lat="46.18512" lon="2.41181">
        <ele>327</ele>
        <time>2016-04-05T14:42:01Z</time>
      </trkpt>
      <trkpt lat="46.18516" lon="2.41186">
        <ele>328</ele>
        <time>2016-04-05T14:42:04Z</time>
      </trkpt>
      <trkpt lat="46.18519" lon="2.41191">
        <ele>329</ele>
        <time>2016-04-05T14:42:07Z</time>
      </trkpt>
      <trkpt lat="46.18522" lon="2.41196">
        <ele>329</ele>
        <time>2016-04-05T14:42:10Z</time>
      </trkpt>
      <trkpt lat="46.18525" lon="2.41201">
        <ele>329</ele>
        <time>2016-04-05T14:42:13Z</time>
      </trkpt>
      <trkpt lat="46.18527" lon="2.41207">
        <ele>329</ele>
        <time>2016-04-05T14:42:16Z</time>
      </trkpt>
      <trkpt lat="46.1853" lon="2.41212">
        <ele>329</ele>
        <time>2016-04-05T14:42:19Z</time>
      </trkpt>
      <trkpt lat="46.18533" lon="2.41217">
        <ele>329</ele>
        <time>2016-04-05T14:42:22Z</time>
      </trkpt>
      <trkpt lat="46.18536" lon="2.41224">
        <ele>329</ele>
        <time>2016-04-05T14:42:25Z</time>
      </trkpt>
      <trkpt lat="46.18538" lon="2.41229">
        <ele>329</ele>
        <time>2016-04-05T14:42:28Z</time>
      </trkpt>
      <trkpt lat="46.18541" lon="2.41234">
        <ele>329</ele>
        <time>2016-04-05T14:42:31Z</time>
      </trkpt>
      <trkpt lat="46.18545" lon="2.41239">
        <ele>329</ele>
        <time>2016-04-05T14:42:34Z</time>
      </trkpt>
      <trkpt lat="46.18548" lon="2.41243">
        <ele>329</ele>
        <time>2016-04-05T14:42:37Z</time>
      </trkpt>
      <trkpt lat="46.18551" lon="2.41249">
        <ele>329</ele>
        <time>2016-04-05T14:42:40Z</time>
      </trkpt>
      <trkpt lat="46.18553" lon="2.41255">
        <ele>329</ele>
        <time>2016-04-05T14:42:43Z</time>
      </trkpt>
      <trkpt lat="46.18555" lon="2.4126">
        <ele>330</ele>
        <time>2016-04-05T14:42:46Z</time>
      </trkpt>
      <trkpt lat="46.18558" lon="2.41266">
        <ele>330</ele>
        <time>2016-04-05T14:42:49Z</time>
      </trkpt>
      <trkpt lat="46.1856" lon="2.41271">
        <ele>330</ele>
        <time>2016-04-05T14:42:52Z</time>
      </trkpt>
      <trkpt lat="46.18563" lon="2.41276">
        <ele>330</ele>
        <time>2016-04-05T14:42:56Z</time>
      </trkpt>
      <trkpt lat="46.18566" lon="2.41281">
        <ele>330</ele>
        <time>2016-04-05T14:42:59Z</time>
      </trkpt>
      <trkpt lat="46.18569" lon="2.41285">
        <ele>330</ele>
        <time>2016-04-05T14:43:02Z</time>
      </trkpt>
      <trkpt lat="46.1857" lon="2.41293">
        <ele>331</ele>
        <time>2016-04-05T14:43:05Z</time>
      </trkpt>
      <trkpt lat="46.18572" lon="2.41298">
        <ele>331</ele>
        <time>2016-04-05T14:43:08Z</time>
      </trkpt>
      <trkpt lat="46.18575" lon="2.41304">
        <ele>331</ele>
        <time>2016-04-05T14:43:12Z</time>
      </trkpt>
      <trkpt lat="46.18576" lon="2.4131">
        <ele>331</ele>
        <time>2016-04-05T14:43:15Z</time>
      </trkpt>
      <trkpt lat="46.18578" lon="2.41316">
        <ele>331</ele>
        <time>2016-04-05T14:43:18Z</time>
      </trkpt>
      <trkpt lat="46.18581" lon="2.41321">
        <ele>331</ele>
        <time>2016-04-05T14:43:21Z</time>
      </trkpt>
      <trkpt lat="46.18583" lon="2.41326">
        <ele>331</ele>
        <time>2016-04-05T14:43:24Z</time>
      </trkpt>
      <trkpt lat="46.18586" lon="2.41332">
        <ele>331</ele>
        <time>2016-04-05T14:43:27Z</time>
      </trkpt>
      <trkpt lat="46.18589" lon="2.41337">
        <ele>331</ele>
        <time>2016-04-05T14:43:30Z</time>
      </trkpt>
      <trkpt lat="46.18592" lon="2.41343">
        <ele>331</ele>
        <time>2016-04-05T14:43:33Z</time>
      </trkpt>
      <trkpt lat="46.18595" lon="2.41348">
        <ele>331</ele>
        <time>2016-04-05T14:43:36Z</time>
      </trkpt>
      <trkpt lat="46.18597" lon="2.41353">
        <ele>331</ele>
        <time>2016-04-05T14:43:39Z</time>
      </trkpt>
      <trkpt lat="46.18598" lon="2.41359">
        <ele>331</ele>
        <time>2016-04-05T14:43:42Z</time>
      </trkpt>
      <trkpt lat="46.18599" lon="2.41365">
        <ele>331</ele>
        <time>2016-04-05T14:43:45Z</time>
      </trkpt>
      <trkpt lat="46.186" lon="2.41371">
        <ele>331</ele>
        <time>2016-04-05T14:43:48Z</time>
      </trkpt>
      <trkpt lat="46.18602" lon="2.41377">
        <ele>331</ele>
        <time>2016-04-05T14:43:51Z</time>
      </trkpt>
      <trkpt lat="46.18603" lon="2.41383">
        <ele>331</ele>
        <time>2016-04-05T14:43:54Z</time>
      </trkpt>
      <trkpt lat="46.18605" lon="2.4139">
        <ele>331</ele>
        <time>2016-04-05T14:43:57Z</time>
      </trkpt>
      <trkpt lat="46.18607" lon="2.41395">
        <ele>331</ele>
        <time>2016-04-05T14:44:00Z</time>
      </trkpt>
      <trkpt lat="46.18607" lon="2.41401">
        <ele>331</ele>
        <time>2016-04-05T14:44:03Z</time>
      </trkpt>
      <trkpt lat="46.18608" lon="2.41407">
        <ele>331</ele>
        <time>2016-04-05T14:44:06Z</time>
      </trkpt>
      <trkpt lat="46.1861" lon="2.41413">
        <ele>331</ele>
        <time>2016-04-05T14:44:09Z</time>
      </trkpt>
      <trkpt lat="46.18609" lon="2.4142">
        <ele>331</ele>
        <time>2016-04-05T14:44:12Z</time>
      </trkpt>
      <trkpt lat="46.18609" lon="2.41427">
        <ele>331</ele>
        <time>2016-04-05T14:44:15Z</time>
      </trkpt>
      <trkpt lat="46.18609" lon="2.41434">
        <ele>331</ele>
        <time>2016-04-05T14:44:18Z</time>
      </trkpt>
      <trkpt lat="46.1861" lon="2.4144">
        <ele>331</ele>
        <time>2016-04-05T14:44:21Z</time>
      </trkpt>
      <trkpt lat="46.1861" lon="2.41446">
        <ele>331</ele>
        <time>2016-04-05T14:44:24Z</time>
      </trkpt>
      <trkpt lat="46.1861" lon="2.41452">
        <ele>331</ele>
        <time>2016-04-05T14:44:27Z</time>
      </trkpt>
      <trkpt lat="46.18609" lon="2.4146">
        <ele>331</ele>
        <time>2016-04-05T14:44:30Z</time>
      </trkpt>
      <trkpt lat="46.18608" lon="2.41466">
        <ele>331</ele>
        <time>2016-04-05T14:44:33Z</time>
      </trkpt>
      <trkpt lat="46.18607" lon="2.41472">
        <ele>331</ele>
        <time>2016-04-05T14:44:36Z</time>
      </trkpt>
      <trkpt lat="46.18607" lon="2.41477">
        <ele>331</ele>
        <time>2016-04-05T14:44:39Z</time>
      </trkpt>
      <trkpt lat="46.18605" lon="2.41483">
        <ele>331</ele>
        <time>2016-04-05T14:44:42Z</time>
      </trkpt>
      <trkpt lat="46.18603" lon="2.41489">
        <ele>331</ele>
        <time>2016-04-05T14:44:45Z</time>
      </trkpt>
      <trkpt lat="46.18602" lon="2.41494">
        <ele>331</ele>
        <time>2016-04-05T14:44:48Z</time>
      </trkpt>
      <trkpt lat="46.186" lon="2.415">
        <ele>331</ele>
        <time>2016-04-05T14:44:51Z</time>
      </trkpt>
      <trkpt lat="46.186" lon="2.41506">
        <ele>331</ele>
        <time>2016-04-05T14:44:54Z</time>
      </trkpt>
      <trkpt lat="46.18599" lon="2.41511">
        <ele>330</ele>
        <time>2016-04-05T14:44:57Z</time>
      </trkpt>
      <trkpt lat="46.18599" lon="2.41517">
        <ele>329</ele>
        <time>2016-04-05T14:45:00Z</time>
      </trkpt>
      <trkpt lat="46.18599" lon="2.41524">
        <ele>329</ele>
        <time>2016-04-05T14:45:03Z</time>
      </trkpt>
      <trkpt lat="46.18597" lon="2.41531">
        <ele>329</ele>
        <time>2016-04-05T14:45:07Z</time>
      </trkpt>
      <trkpt lat="46.18596" lon="2.41538">
        <ele>329</ele>
        <time>2016-04-05T14:45:10Z</time>
      </trkpt>
      <trkpt lat="46.18596" lon="2.41543">
        <ele>329</ele>
        <time>2016-04-05T14:45:13Z</time>
      </trkpt>
      <trkpt lat="46.18595" lon="2.4155">
        <ele>328</ele>
        <time>2016-04-05T14:45:16Z</time>
      </trkpt>
      <trkpt lat="46.18594" lon="2.41557">
        <ele>328</ele>
        <time>2016-04-05T14:45:19Z</time>
      </trkpt>
      <trkpt lat="46.18595" lon="2.41565">
        <ele>328</ele>
        <time>2016-04-05T14:45:22Z</time>
      </trkpt>
      <trkpt lat="46.18594" lon="2.41572">
        <ele>328</ele>
        <time>2016-04-05T14:45:25Z</time>
      </trkpt>
      <trkpt lat="46.18594" lon="2.41578">
        <ele>327</ele>
        <time>2016-04-05T14:45:28Z</time>
      </trkpt>
      <trkpt lat="46.18594" lon="2.41584">
        <ele>327</ele>
        <time>2016-04-05T14:45:31Z</time>
      </trkpt>
      <trkpt lat="46.18596" lon="2.41591">
        <ele>327</ele>
        <time>2016-04-05T14:45:34Z</time>
      </trkpt>
      <trkpt lat="46.18599" lon="2.41598">
        <ele>327</ele>
        <time>2016-04-05T14:45:37Z</time>
      </trkpt>
      <trkpt lat="46.18599" lon="2.41604">
        <ele>327</ele>
        <time>2016-04-05T14:45:40Z</time>
      </trkpt>
      <trkpt lat="46.18601" lon="2.41609">
        <ele>327</ele>
        <time>2016-04-05T14:45:43Z</time>
      </trkpt>
      <trkpt lat="46.186" lon="2.41618">
        <ele>327</ele>
        <time>2016-04-05T14:45:46Z</time>
      </trkpt>
      <trkpt lat="46.186" lon="2.41626">
        <ele>327</ele>
        <time>2016-04-05T14:45:49Z</time>
      </trkpt>
      <trkpt lat="46.186" lon="2.41633">
        <ele>328</ele>
        <time>2016-04-05T14:45:52Z</time>
      </trkpt>
      <trkpt lat="46.18603" lon="2.4164">
        <ele>330</ele>
        <time>2016-04-05T14:45:55Z</time>
      </trkpt>
      <trkpt lat="46.18604" lon="2.41644">
        <ele>332</ele>
        <time>2016-04-05T14:45:58Z</time>
      </trkpt>
      <trkpt lat="46.18604" lon="2.41649">
        <ele>332</ele>
        <time>2016-04-05T14:46:01Z</time>
      </trkpt>
      <trkpt lat="46.18604" lon="2.41655">
        <ele>332</ele>
        <time>2016-04-05T14:46:04Z</time>
      </trkpt>
      <trkpt lat="46.18603" lon="2.41662">
        <ele>332</ele>
        <time>2016-04-05T14:46:07Z</time>
      </trkpt>
      <trkpt lat="46.18603" lon="2.41669">
        <ele>332</ele>
        <time>2016-04-05T14:46:10Z</time>
      </trkpt>
      <trkpt lat="46.18603" lon="2.41675">
        <ele>332</ele>
        <time>2016-04-05T14:46:13Z</time>
      </trkpt>
      <trkpt lat="46.18603" lon="2.4168">
        <ele>332</ele>
        <time>2016-04-05T14:46:16Z</time>
      </trkpt>
      <trkpt lat="46.18603" lon="2.41687">
        <ele>332</ele>
        <time>2016-04-05T14:46:19Z</time>
      </trkpt>
      <trkpt lat="46.18605" lon="2.41693">
        <ele>332</ele>
        <time>2016-04-05T14:46:22Z</time>
      </trkpt>
      <trkpt lat="46.18605" lon="2.417">
        <ele>332</ele>
        <time>2016-04-05T14:46:25Z</time>
      </trkpt>
      <trkpt lat="46.18606" lon="2.41705">
        <ele>332</ele>
        <time>2016-04-05T14:46:28Z</time>
      </trkpt>
      <trkpt lat="46.18607" lon="2.41711">
        <ele>332</ele>
        <time>2016-04-05T14:46:31Z</time>
      </trkpt>
      <trkpt lat="46.18608" lon="2.41719">
        <ele>332</ele>
        <time>2016-04-05T14:46:35Z</time>
      </trkpt>
      <trkpt lat="46.18608" lon="2.41724">
        <ele>332</ele>
        <time>2016-04-05T14:46:38Z</time>
      </trkpt>
      <trkpt lat="46.18609" lon="2.41732">
        <ele>332</ele>
        <time>2016-04-05T14:46:41Z</time>
      </trkpt>
      <trkpt lat="46.18608" lon="2.41738">
        <ele>332</ele>
        <time>2016-04-05T14:46:44Z</time>
      </trkpt>
      <trkpt lat="46.18609" lon="2.41745">
        <ele>332</ele>
        <time>2016-04-05T14:46:47Z</time>
      </trkpt>
      <trkpt lat="46.1861" lon="2.41752">
        <ele>332</ele>
        <time>2016-04-05T14:46:50Z</time>
      </trkpt>
      <trkpt lat="46.1861" lon="2.41759">
        <ele>332</ele>
        <time>2016-04-05T14:46:53Z</time>
      </trkpt>
      <trkpt lat="46.18609" lon="2.41764">
        <ele>332</ele>
        <time>2016-04-05T14:47:04Z</time>
      </trkpt>
      <trkpt lat="46.18609" lon="2.41769">
        <ele>332</ele>
        <time>2016-04-05T14:47:08Z</time>
      </trkpt>
      <trkpt lat="46.18609" lon="2.41774">
        <ele>332</ele>
        <time>2016-04-05T14:47:12Z</time>
      </trkpt>
      <trkpt lat="46.18609" lon="2.41778">
        <ele>332</ele>
        <time>2016-04-05T14:47:15Z</time>
      </trkpt>
      <trkpt lat="46.18608" lon="2.4178">
        <ele>332</ele>
        <time>2016-04-05T14:47:26Z</time>
      </trkpt>
      <trkpt lat="46.18608" lon="2.41785">
        <ele>332</ele>
        <time>2016-04-05T14:47:29Z</time>
      </trkpt>
      <trkpt lat="46.18608" lon="2.4179">
        <ele>332</ele>
        <time>2016-04-05T14:47:32Z</time>
      </trkpt>
      <trkpt lat="46.18608" lon="2.41796">
        <ele>332</ele>
        <time>2016-04-05T14:47:35Z</time>
      </trkpt>
      <trkpt lat="46.18609" lon="2.41802">
        <ele>332</ele>
        <time>2016-04-05T14:47:38Z</time>
      </trkpt>
      <trkpt lat="46.1861" lon="2.41808">
        <ele>332</ele>
        <time>2016-04-05T14:47:41Z</time>
      </trkpt>
      <trkpt lat="46.1861" lon="2.41814">
        <ele>332</ele>
        <time>2016-04-05T14:47:44Z</time>
      </trkpt>
      <trkpt lat="46.1861" lon="2.41821">
        <ele>332</ele>
        <time>2016-04-05T14:47:47Z</time>
      </trkpt>
      <trkpt lat="46.18609" lon="2.41827">
        <ele>332</ele>
        <time>2016-04-05T14:47:50Z</time>
      </trkpt>
      <trkpt lat="46.1861" lon="2.41834">
        <ele>332</ele>
        <time>2016-04-05T14:47:53Z</time>
      </trkpt>
      <trkpt lat="46.18609" lon="2.4184">
        <ele>332</ele>
        <time>2016-04-05T14:47:56Z</time>
      </trkpt>
      <trkpt lat="46.18609" lon="2.41847">
        <ele>332</ele>
        <time>2016-04-05T14:47:59Z</time>
      </trkpt>
      <trkpt lat="46.1861" lon="2.41852">
        <ele>332</ele>
        <time>2016-04-05T14:48:02Z</time>
      </trkpt>
      <trkpt lat="46.1861" lon="2.41858">
        <ele>332</ele>
        <time>2016-04-05T14:48:05Z</time>
      </trkpt>
      <trkpt lat="46.18609" lon="2.41864">
        <ele>332</ele>
        <time>2016-04-05T14:48:08Z</time>
      </trkpt>
      <trkpt lat="46.18608" lon="2.41871">
        <ele>332</ele>
        <time>2016-04-05T14:48:11Z</time>
      </trkpt>
      <trkpt lat="46.18607" lon="2.41877">
        <ele>332</ele>
        <time>2016-04-05T14:48:14Z</time>
      </trkpt>
      <trkpt lat="46.18606" lon="2.41881">
        <ele>332</ele>
        <time>2016-04-05T14:48:17Z</time>
      </trkpt>
      <trkpt lat="46.18606" lon="2.41886">
        <ele>332</ele>
        <time>2016-04-05T14:48:20Z</time>
      </trkpt>
      <trkpt lat="46.18605" lon="2.41892">
        <ele>332</ele>
        <time>2016-04-05T14:48:23Z</time>
      </trkpt>
      <trkpt lat="46.18604" lon="2.41898">
        <ele>332</ele>
        <time>2016-04-05T14:48:26Z</time>
      </trkpt>
      <trkpt lat="46.18603" lon="2.41904">
        <ele>332</ele>
        <time>2016-04-05T14:48:29Z</time>
      </trkpt>
      <trkpt lat="46.18601" lon="2.41909">
        <ele>332</ele>
        <time>2016-04-05T14:48:32Z</time>
      </trkpt>
      <trkpt lat="46.18599" lon="2.41914">
        <ele>332</ele>
        <time>2016-04-05T14:48:35Z</time>
      </trkpt>
      <trkpt lat="46.18596" lon="2.4192">
        <ele>332</ele>
        <time>2016-04-05T14:48:38Z</time>
      </trkpt>
      <trkpt lat="46.18593" lon="2.41926">
        <ele>332</ele>
        <time>2016-04-05T14:48:42Z</time>
      </trkpt>
      <trkpt lat="46.18593" lon="2.4193">
        <ele>332</ele>
        <time>2016-04-05T14:48:45Z</time>
      </trkpt>
      <trkpt lat="46.18589" lon="2.41938">
        <ele>332</ele>
        <time>2016-04-05T14:48:48Z</time>
      </trkpt>
      <trkpt lat="46.18586" lon="2.41944">
        <ele>332</ele>
        <time>2016-04-05T14:48:51Z</time>
      </trkpt>
      <trkpt lat="46.18583" lon="2.41951">
        <ele>332</ele>
        <time>2016-04-05T14:48:54Z</time>
      </trkpt>
      <trkpt lat="46.18583" lon="2.41958">
        <ele>332</ele>
        <time>2016-04-05T14:48:57Z</time>
      </trkpt>
      <trkpt lat="46.18581" lon="2.41964">
        <ele>332</ele>
        <time>2016-04-05T14:49:00Z</time>
      </trkpt>
      <trkpt lat="46.18582" lon="2.4197">
        <ele>332</ele>
        <time>2016-04-05T14:49:03Z</time>
      </trkpt>
      <trkpt lat="46.18582" lon="2.41976">
        <ele>333</ele>
        <time>2016-04-05T14:49:06Z</time>
      </trkpt>
      <trkpt lat="46.18582" lon="2.41983">
        <ele>334</ele>
        <time>2016-04-05T14:49:09Z</time>
      </trkpt>
      <trkpt lat="46.18583" lon="2.41989">
        <ele>335</ele>
        <time>2016-04-05T14:49:12Z</time>
      </trkpt>
      <trkpt lat="46.18581" lon="2.41996">
        <ele>336</ele>
        <time>2016-04-05T14:49:15Z</time>
      </trkpt>
      <trkpt lat="46.18581" lon="2.42002">
        <ele>337</ele>
        <time>2016-04-05T14:49:18Z</time>
      </trkpt>
      <trkpt lat="46.1858" lon="2.42009">
        <ele>337</ele>
        <time>2016-04-05T14:49:21Z</time>
      </trkpt>
      <trkpt lat="46.18579" lon="2.42016">
        <ele>337</ele>
        <time>2016-04-05T14:49:24Z</time>
      </trkpt>
      <trkpt lat="46.18578" lon="2.42023">
        <ele>338</ele>
        <time>2016-04-05T14:49:27Z</time>
      </trkpt>
      <trkpt lat="46.18577" lon="2.42029">
        <ele>338</ele>
        <time>2016-04-05T14:49:30Z</time>
      </trkpt>
      <trkpt lat="46.18576" lon="2.42036">
        <ele>338</ele>
        <time>2016-04-05T14:49:33Z</time>
      </trkpt>
      <trkpt lat="46.18575" lon="2.42042">
        <ele>338</ele>
        <time>2016-04-05T14:49:36Z</time>
      </trkpt>
      <trkpt lat="46.18572" lon="2.42049">
        <ele>338</ele>
        <time>2016-04-05T14:49:39Z</time>
      </trkpt>
      <trkpt lat="46.18571" lon="2.42055">
        <ele>338</ele>
        <time>2016-04-05T14:49:42Z</time>
      </trkpt>
      <trkpt lat="46.18569" lon="2.4206">
        <ele>338</ele>
        <time>2016-04-05T14:49:45Z</time>
      </trkpt>
      <trkpt lat="46.18569" lon="2.42066">
        <ele>338</ele>
        <time>2016-04-05T14:49:48Z</time>
      </trkpt>
      <trkpt lat="46.18569" lon="2.42072">
        <ele>338</ele>
        <time>2016-04-05T14:49:51Z</time>
      </trkpt>
      <trkpt lat="46.18568" lon="2.42079">
        <ele>338</ele>
        <time>2016-04-05T14:49:54Z</time>
      </trkpt>
      <trkpt lat="46.18568" lon="2.42086">
        <ele>338</ele>
        <time>2016-04-05T14:49:57Z</time>
      </trkpt>
      <trkpt lat="46.18568" lon="2.42092">
        <ele>338</ele>
        <time>2016-04-05T14:50:00Z</time>
      </trkpt>
      <trkpt lat="46.18568" lon="2.42099">
        <ele>338</ele>
        <time>2016-04-05T14:50:03Z</time>
      </trkpt>
      <trkpt lat="46.18568" lon="2.42106">
        <ele>338</ele>
        <time>2016-04-05T14:50:06Z</time>
      </trkpt>
      <trkpt lat="46.18566" lon="2.42112">
        <ele>338</ele>
        <time>2016-04-05T14:50:09Z</time>
      </trkpt>
      <trkpt lat="46.18565" lon="2.42118">
        <ele>338</ele>
        <time>2016-04-05T14:50:12Z</time>
      </trkpt>
      <trkpt lat="46.18565" lon="2.42124">
        <ele>338</ele>
        <time>2016-04-05T14:50:15Z</time>
      </trkpt>
      <trkpt lat="46.18564" lon="2.4213">
        <ele>338</ele>
        <time>2016-04-05T14:50:18Z</time>
      </trkpt>
      <trkpt lat="46.18563" lon="2.42137">
        <ele>338</ele>
        <time>2016-04-05T14:50:21Z</time>
      </trkpt>
      <trkpt lat="46.18562" lon="2.42143">
        <ele>338</ele>
        <time>2016-04-05T14:50:24Z</time>
      </trkpt>
      <trkpt lat="46.18561" lon="2.42149">
        <ele>338</ele>
        <time>2016-04-05T14:50:27Z</time>
      </trkpt>
      <trkpt lat="46.18561" lon="2.42156">
        <ele>338</ele>
        <time>2016-04-05T14:50:30Z</time>
      </trkpt>
      <trkpt lat="46.18562" lon="2.42162">
        <ele>339</ele>
        <time>2016-04-05T14:50:33Z</time>
      </trkpt>
      <trkpt lat="46.18561" lon="2.42169">
        <ele>339</ele>
        <time>2016-04-05T14:50:36Z</time>
      </trkpt>
      <trkpt lat="46.18559" lon="2.42176">
        <ele>339</ele>
        <time>2016-04-05T14:50:39Z</time>
      </trkpt>
      <trkpt lat="46.18557" lon="2.42181">
        <ele>339</ele>
        <time>2016-04-05T14:50:42Z</time>
      </trkpt>
      <trkpt lat="46.18556" lon="2.42187">
        <ele>339</ele>
        <time>2016-04-05T14:50:45Z</time>
      </trkpt>
      <trkpt lat="46.18555" lon="2.42194">
        <ele>339</ele>
        <time>2016-04-05T14:50:48Z</time>
      </trkpt>
      <trkpt lat="46.18555" lon="2.422">
        <ele>339</ele>
        <time>2016-04-05T14:50:51Z</time>
      </trkpt>
      <trkpt lat="46.18554" lon="2.42207">
        <ele>339</ele>
        <time>2016-04-05T14:50:54Z</time>
      </trkpt>
      <trkpt lat="46.18554" lon="2.42213">
        <ele>339</ele>
        <time>2016-04-05T14:50:57Z</time>
      </trkpt>
      <trkpt lat="46.18553" lon="2.42219">
        <ele>339</ele>
        <time>2016-04-05T14:51:00Z</time>
      </trkpt>
      <trkpt lat="46.18552" lon="2.42227">
        <ele>339</ele>
        <time>2016-04-05T14:51:03Z</time>
      </trkpt>
      <trkpt lat="46.18552" lon="2.42233">
        <ele>339</ele>
        <time>2016-04-05T14:51:06Z</time>
      </trkpt>
      <trkpt lat="46.18551" lon="2.42239">
        <ele>339</ele>
        <time>2016-04-05T14:51:09Z</time>
      </trkpt>
      <trkpt lat="46.18551" lon="2.42245">
        <ele>339</ele>
        <time>2016-04-05T14:51:12Z</time>
      </trkpt>
      <trkpt lat="46.18551" lon="2.42251">
        <ele>339</ele>
        <time>2016-04-05T14:51:15Z</time>
      </trkpt>
      <trkpt lat="46.18551" lon="2.42258">
        <ele>339</ele>
        <time>2016-04-05T14:51:18Z</time>
      </trkpt>
      <trkpt lat="46.18552" lon="2.42264">
        <ele>339</ele>
        <time>2016-04-05T14:51:21Z</time>
      </trkpt>
      <trkpt lat="46.18552" lon="2.42271">
        <ele>339</ele>
        <time>2016-04-05T14:51:24Z</time>
      </trkpt>
      <trkpt lat="46.18552" lon="2.42277">
        <ele>340</ele>
        <time>2016-04-05T14:51:27Z</time>
      </trkpt>
      <trkpt lat="46.18552" lon="2.42283">
        <ele>340</ele>
        <time>2016-04-05T14:51:30Z</time>
      </trkpt>
      <trkpt lat="46.18553" lon="2.42289">
        <ele>340</ele>
        <time>2016-04-05T14:51:33Z</time>
      </trkpt>
      <trkpt lat="46.18553" lon="2.42297">
        <ele>340</ele>
        <time>2016-04-05T14:51:36Z</time>
      </trkpt>
      <trkpt lat="46.18554" lon="2.42303">
        <ele>340</ele>
        <time>2016-04-05T14:51:39Z</time>
      </trkpt>
      <trkpt lat="46.18555" lon="2.42308">
        <ele>340</ele>
        <time>2016-04-05T14:51:42Z</time>
      </trkpt>
      <trkpt lat="46.18556" lon="2.42314">
        <ele>340</ele>
        <time>2016-04-05T14:51:45Z</time>
      </trkpt>
      <trkpt lat="46.18555" lon="2.42319">
        <ele>340</ele>
        <time>2016-04-05T14:51:48Z</time>
      </trkpt>
      <trkpt lat="46.18556" lon="2.42326">
        <ele>340</ele>
        <time>2016-04-05T14:51:51Z</time>
      </trkpt>
      <trkpt lat="46.18556" lon="2.42332">
        <ele>340</ele>
        <time>2016-04-05T14:51:54Z</time>
      </trkpt>
      <trkpt lat="46.18555" lon="2.42338">
        <ele>340</ele>
        <time>2016-04-05T14:51:57Z</time>
      </trkpt>
      <trkpt lat="46.18553" lon="2.42344">
        <ele>340</ele>
        <time>2016-04-05T14:52:00Z</time>
      </trkpt>
      <trkpt lat="46.18552" lon="2.42349">
        <ele>340</ele>
        <time>2016-04-05T14:52:03Z</time>
      </trkpt>
      <trkpt lat="46.18552" lon="2.42355">
        <ele>339</ele>
        <time>2016-04-05T14:52:06Z</time>
      </trkpt>
      <trkpt lat="46.18552" lon="2.42361">
        <ele>339</ele>
        <time>2016-04-05T14:52:09Z</time>
      </trkpt>
      <trkpt lat="46.18552" lon="2.42367">
        <ele>338</ele>
        <time>2016-04-05T14:52:12Z</time>
      </trkpt>
      <trkpt lat="46.18552" lon="2.42372">
        <ele>338</ele>
        <time>2016-04-05T14:52:15Z</time>
      </trkpt>
      <trkpt lat="46.18552" lon="2.42378">
        <ele>337</ele>
        <time>2016-04-05T14:52:18Z</time>
      </trkpt>
      <trkpt lat="46.1855" lon="2.42385">
        <ele>337</ele>
        <time>2016-04-05T14:52:21Z</time>
      </trkpt>
      <trkpt lat="46.1855" lon="2.4239">
        <ele>336</ele>
        <time>2016-04-05T14:52:24Z</time>
      </trkpt>
      <trkpt lat="46.18549" lon="2.42396">
        <ele>336</ele>
        <time>2016-04-05T14:52:27Z</time>
      </trkpt>
      <trkpt lat="46.18548" lon="2.42403">
        <ele>335</ele>
        <time>2016-04-05T14:52:30Z</time>
      </trkpt>
      <trkpt lat="46.18548" lon="2.42409">
        <ele>335</ele>
        <time>2016-04-05T14:52:33Z</time>
      </trkpt>
      <trkpt lat="46.18547" lon="2.42416">
        <ele>335</ele>
        <time>2016-04-05T14:52:36Z</time>
      </trkpt>
      <trkpt lat="46.18549" lon="2.42423">
        <ele>335</ele>
        <time>2016-04-05T14:52:39Z</time>
      </trkpt>
      <trkpt lat="46.18549" lon="2.42429">
        <ele>335</ele>
        <time>2016-04-05T14:52:42Z</time>
      </trkpt>
      <trkpt lat="46.18547" lon="2.42435">
        <ele>335</ele>
        <time>2016-04-05T14:52:45Z</time>
      </trkpt>
      <trkpt lat="46.18547" lon="2.42441">
        <ele>334</ele>
        <time>2016-04-05T14:52:48Z</time>
      </trkpt>
      <trkpt lat="46.18547" lon="2.42447">
        <ele>334</ele>
        <time>2016-04-05T14:52:51Z</time>
      </trkpt>
      <trkpt lat="46.18548" lon="2.42454">
        <ele>334</ele>
        <time>2016-04-05T14:52:54Z</time>
      </trkpt>
      <trkpt lat="46.18549" lon="2.42461">
        <ele>334</ele>
        <time>2016-04-05T14:52:57Z</time>
      </trkpt>
      <trkpt lat="46.18549" lon="2.42467">
        <ele>334</ele>
        <time>2016-04-05T14:53:00Z</time>
      </trkpt>
      <trkpt lat="46.1855" lon="2.42474">
        <ele>334</ele>
        <time>2016-04-05T14:53:03Z</time>
      </trkpt>
      <trkpt lat="46.1855" lon="2.4248">
        <ele>334</ele>
        <time>2016-04-05T14:53:06Z</time>
      </trkpt>
      <trkpt lat="46.1855" lon="2.42487">
        <ele>334</ele>
        <time>2016-04-05T14:53:09Z</time>
      </trkpt>
      <trkpt lat="46.1855" lon="2.42493">
        <ele>334</ele>
        <time>2016-04-05T14:53:12Z</time>
      </trkpt>
      <trkpt lat="46.1855" lon="2.42499">
        <ele>334</ele>
        <time>2016-04-05T14:53:15Z</time>
      </trkpt>
      <trkpt lat="46.18549" lon="2.42505">
        <ele>334</ele>
        <time>2016-04-05T14:53:18Z</time>
      </trkpt>
      <trkpt lat="46.18547" lon="2.42511">
        <ele>334</ele>
        <time>2016-04-05T14:53:21Z</time>
      </trkpt>
      <trkpt lat="46.18547" lon="2.42518">
        <ele>334</ele>
        <time>2016-04-05T14:53:24Z</time>
      </trkpt>
      <trkpt lat="46.18548" lon="2.42525">
        <ele>334</ele>
        <time>2016-04-05T14:53:27Z</time>
      </trkpt>
      <trkpt lat="46.18548" lon="2.42531">
        <ele>334</ele>
        <time>2016-04-05T14:53:30Z</time>
      </trkpt>
      <trkpt lat="46.18549" lon="2.42538">
        <ele>334</ele>
        <time>2016-04-05T14:53:33Z</time>
      </trkpt>
      <trkpt lat="46.18549" lon="2.42545">
        <ele>334</ele>
        <time>2016-04-05T14:53:36Z</time>
      </trkpt>
      <trkpt lat="46.18549" lon="2.42551">
        <ele>334</ele>
        <time>2016-04-05T14:53:39Z</time>
      </trkpt>
      <trkpt lat="46.1855" lon="2.42558">
        <ele>334</ele>
        <time>2016-04-05T14:53:42Z</time>
      </trkpt>
      <trkpt lat="46.1855" lon="2.42564">
        <ele>334</ele>
        <time>2016-04-05T14:53:45Z</time>
      </trkpt>
      <trkpt lat="46.18551" lon="2.4257">
        <ele>334</ele>
        <time>2016-04-05T14:53:48Z</time>
      </trkpt>
      <trkpt lat="46.18551" lon="2.42577">
        <ele>334</ele>
        <time>2016-04-05T14:53:51Z</time>
      </trkpt>
      <trkpt lat="46.18552" lon="2.42584">
        <ele>334</ele>
        <time>2016-04-05T14:53:54Z</time>
      </trkpt>
      <trkpt lat="46.18552" lon="2.4259">
        <ele>334</ele>
        <time>2016-04-05T14:53:57Z</time>
      </trkpt>
      <trkpt lat="46.18554" lon="2.42597">
        <ele>334</ele>
        <time>2016-04-05T14:54:00Z</time>
      </trkpt>
      <trkpt lat="46.18554" lon="2.42603">
        <ele>334</ele>
        <time>2016-04-05T14:54:03Z</time>
      </trkpt>
      <trkpt lat="46.18555" lon="2.42608">
        <ele>334</ele>
        <time>2016-04-05T14:54:06Z</time>
      </trkpt>
      <trkpt lat="46.18557" lon="2.42615">
        <ele>334</ele>
        <time>2016-04-05T14:54:09Z</time>
      </trkpt>
      <trkpt lat="46.18558" lon="2.4262">
        <ele>334</ele>
        <time>2016-04-05T14:54:12Z</time>
      </trkpt>
      <trkpt lat="46.1856" lon="2.42627">
        <ele>334</ele>
        <time>2016-04-05T14:54:15Z</time>
      </trkpt>
      <trkpt lat="46.18562" lon="2.42633">
        <ele>334</ele>
        <time>2016-04-05T14:54:18Z</time>
      </trkpt>
      <trkpt lat="46.18565" lon="2.42637">
        <ele>334</ele>
        <time>2016-04-05T14:54:21Z</time>
      </trkpt>
      <trkpt lat="46.18567" lon="2.42643">
        <ele>334</ele>
        <time>2016-04-05T14:54:24Z</time>
      </trkpt>
      <trkpt lat="46.18569" lon="2.42647">
        <ele>334</ele>
        <time>2016-04-05T14:54:27Z</time>
      </trkpt>
      <trkpt lat="46.18572" lon="2.42649">
        <ele>334</ele>
        <time>2016-04-05T14:54:44Z</time>
      </trkpt>
      <trkpt lat="46.18576" lon="2.42654">
        <ele>334</ele>
        <time>2016-04-05T14:54:48Z</time>
      </trkpt>
      <trkpt lat="46.1858" lon="2.42658">
        <ele>333</ele>
        <time>2016-04-05T14:54:51Z</time>
      </trkpt>
      <trkpt lat="46.18584" lon="2.42661">
        <ele>333</ele>
        <time>2016-04-05T14:54:54Z</time>
      </trkpt>
      <trkpt lat="46.18587" lon="2.42664">
        <ele>333</ele>
        <time>2016-04-05T14:54:57Z</time>
      </trkpt>
      <trkpt lat="46.18591" lon="2.42668">
        <ele>332</ele>
        <time>2016-04-05T14:55:00Z</time>
      </trkpt>
      <trkpt lat="46.18596" lon="2.42671">
        <ele>332</ele>
        <time>2016-04-05T14:55:03Z</time>
      </trkpt>
      <trkpt lat="46.18599" lon="2.42673">
        <ele>331</ele>
        <time>2016-04-05T14:55:06Z</time>
      </trkpt>
      <trkpt lat="46.18603" lon="2.42677">
        <ele>331</ele>
        <time>2016-04-05T14:55:09Z</time>
      </trkpt>
      <trkpt lat="46.18607" lon="2.4268">
        <ele>331</ele>
        <time>2016-04-05T14:55:12Z</time>
      </trkpt>
      <trkpt lat="46.1861" lon="2.42683">
        <ele>330</ele>
        <time>2016-04-05T14:55:15Z</time>
      </trkpt>
      <trkpt lat="46.18615" lon="2.42686">
        <ele>330</ele>
        <time>2016-04-05T14:55:18Z</time>
      </trkpt>
      <trkpt lat="46.18619" lon="2.42689">
        <ele>330</ele>
        <time>2016-04-05T14:55:21Z</time>
      </trkpt>
      <trkpt lat="46.18623" lon="2.42694">
        <ele>329</ele>
        <time>2016-04-05T14:55:25Z</time>
      </trkpt>
      <trkpt lat="46.18626" lon="2.42697">
        <ele>328</ele>
        <time>2016-04-05T14:55:28Z</time>
      </trkpt>
      <trkpt lat="46.1863" lon="2.42702">
        <ele>327</ele>
        <time>2016-04-05T14:55:32Z</time>
      </trkpt>
      <trkpt lat="46.18633" lon="2.42707">
        <ele>326</ele>
        <time>2016-04-05T14:55:35Z</time>
      </trkpt>
      <trkpt lat="46.18635" lon="2.42711">
        <ele>326</ele>
        <time>2016-04-05T14:55:38Z</time>
      </trkpt>
      <trkpt lat="46.18637" lon="2.42716">
        <ele>325</ele>
        <time>2016-04-05T14:55:41Z</time>
      </trkpt>
      <trkpt lat="46.18639" lon="2.42721">
        <ele>324</ele>
        <time>2016-04-05T14:55:44Z</time>
      </trkpt>
      <trkpt lat="46.18641" lon="2.42726">
        <ele>324</ele>
        <time>2016-04-05T14:55:47Z</time>
      </trkpt>
      <trkpt lat="46.18644" lon="2.42731">
        <ele>323</ele>
        <time>2016-04-05T14:55:50Z</time>
      </trkpt>
      <trkpt lat="46.18647" lon="2.42737">
        <ele>323</ele>
        <time>2016-04-05T14:55:53Z</time>
      </trkpt>
      <trkpt lat="46.18649" lon="2.42742">
        <ele>323</ele>
        <time>2016-04-05T14:55:56Z</time>
      </trkpt>
      <trkpt lat="46.18652" lon="2.42747">
        <ele>323</ele>
        <time>2016-04-05T14:55:59Z</time>
      </trkpt>
      <trkpt lat="46.18654" lon="2.42753">
        <ele>323</ele>
        <time>2016-04-05T14:56:02Z</time>
      </trkpt>
      <trkpt lat="46.18657" lon="2.42758">
        <ele>323</ele>
        <time>2016-04-05T14:56:05Z</time>
      </trkpt>
      <trkpt lat="46.1866" lon="2.42763">
        <ele>323</ele>
        <time>2016-04-05T14:56:08Z</time>
      </trkpt>
      <trkpt lat="46.18663" lon="2.42768">
        <ele>323</ele>
        <time>2016-04-05T14:56:11Z</time>
      </trkpt>
      <trkpt lat="46.18665" lon="2.42774">
        <ele>323</ele>
        <time>2016-04-05T14:56:14Z</time>
      </trkpt>
      <trkpt lat="46.18668" lon="2.42778">
        <ele>323</ele>
        <time>2016-04-05T14:56:17Z</time>
      </trkpt>
      <trkpt lat="46.18671" lon="2.42784">
        <ele>323</ele>
        <time>2016-04-05T14:56:20Z</time>
      </trkpt>
      <trkpt lat="46.18673" lon="2.42789">
        <ele>323</ele>
        <time>2016-04-05T14:56:23Z</time>
      </trkpt>
      <trkpt lat="46.18675" lon="2.42793">
        <ele>323</ele>
        <time>2016-04-05T14:56:26Z</time>
      </trkpt>
      <trkpt lat="46.18679" lon="2.42799">
        <ele>323</ele>
        <time>2016-04-05T14:56:29Z</time>
      </trkpt>
      <trkpt lat="46.18682" lon="2.42805">
        <ele>323</ele>
        <time>2016-04-05T14:56:33Z</time>
      </trkpt>
      <trkpt lat="46.18685" lon="2.42809">
        <ele>323</ele>
        <time>2016-04-05T14:56:36Z</time>
      </trkpt>
      <trkpt lat="46.18685" lon="2.42814">
        <ele>323</ele>
        <time>2016-04-05T14:56:39Z</time>
      </trkpt>
      <trkpt lat="46.18687" lon="2.42819">
        <ele>323</ele>
        <time>2016-04-05T14:56:42Z</time>
      </trkpt>
      <trkpt lat="46.18689" lon="2.42823">
        <ele>323</ele>
        <time>2016-04-05T14:56:45Z</time>
      </trkpt>
      <trkpt lat="46.18692" lon="2.42828">
        <ele>323</ele>
        <time>2016-04-05T14:56:48Z</time>
      </trkpt>
      <trkpt lat="46.18694" lon="2.42835">
        <ele>323</ele>
        <time>2016-04-05T14:56:51Z</time>
      </trkpt>
      <trkpt lat="46.18696" lon="2.4284">
        <ele>323</ele>
        <time>2016-04-05T14:56:54Z</time>
      </trkpt>
      <trkpt lat="46.18698" lon="2.42845">
        <ele>323</ele>
        <time>2016-04-05T14:56:57Z</time>
      </trkpt>
      <trkpt lat="46.187" lon="2.4285">
        <ele>323</ele>
        <time>2016-04-05T14:57:00Z</time>
      </trkpt>
      <trkpt lat="46.187" lon="2.42855">
        <ele>323</ele>
        <time>2016-04-05T14:57:03Z</time>
      </trkpt>
      <trkpt lat="46.18704" lon="2.4286">
        <ele>323</ele>
        <time>2016-04-05T14:57:06Z</time>
      </trkpt>
      <trkpt lat="46.18706" lon="2.42865">
        <ele>323</ele>
        <time>2016-04-05T14:57:09Z</time>
      </trkpt>
      <trkpt lat="46.1871" lon="2.4287">
        <ele>323</ele>
        <time>2016-04-05T14:57:12Z</time>
      </trkpt>
      <trkpt lat="46.18714" lon="2.42876">
        <ele>323</ele>
        <time>2016-04-05T14:57:16Z</time>
      </trkpt>
      <trkpt lat="46.18718" lon="2.42878">
        <ele>323</ele>
        <time>2016-04-05T14:57:19Z</time>
      </trkpt>
      <trkpt lat="46.18722" lon="2.42877">
        <ele>323</ele>
        <time>2016-04-05T14:57:22Z</time>
      </trkpt>
      <trkpt lat="46.18727" lon="2.42873">
        <ele>323</ele>
        <time>2016-04-05T14:57:26Z</time>
      </trkpt>
      <trkpt lat="46.18732" lon="2.4287">
        <ele>323</ele>
        <time>2016-04-05T14:57:29Z</time>
      </trkpt>
      <trkpt lat="46.18736" lon="2.42867">
        <ele>323</ele>
        <time>2016-04-05T14:57:32Z</time>
      </trkpt>
      <trkpt lat="46.1874" lon="2.42864">
        <ele>323</ele>
        <time>2016-04-05T14:57:35Z</time>
      </trkpt>
      <trkpt lat="46.18744" lon="2.42861">
        <ele>323</ele>
        <time>2016-04-05T14:57:38Z</time>
      </trkpt>
      <trkpt lat="46.18748" lon="2.42858">
        <ele>323</ele>
        <time>2016-04-05T14:57:41Z</time>
      </trkpt>
      <trkpt lat="46.18753" lon="2.42855">
        <ele>323</ele>
        <time>2016-04-05T14:57:44Z</time>
      </trkpt>
      <trkpt lat="46.18756" lon="2.42852">
        <ele>323</ele>
        <time>2016-04-05T14:57:47Z</time>
      </trkpt>
      <trkpt lat="46.1876" lon="2.42849">
        <ele>323</ele>
        <time>2016-04-05T14:57:50Z</time>
      </trkpt>
      <trkpt lat="46.18763" lon="2.42845">
        <ele>323</ele>
        <time>2016-04-05T14:57:53Z</time>
      </trkpt>
      <trkpt lat="46.18768" lon="2.42841">
        <ele>323</ele>
        <time>2016-04-05T14:57:57Z</time>
      </trkpt>
      <trkpt lat="46.18771" lon="2.42839">
        <ele>323</ele>
        <time>2016-04-05T14:58:00Z</time>
      </trkpt>
      <trkpt lat="46.18776" lon="2.42835">
        <ele>323</ele>
        <time>2016-04-05T14:58:03Z</time>
      </trkpt>
      <trkpt lat="46.1878" lon="2.42831">
        <ele>323</ele>
        <time>2016-04-05T14:58:06Z</time>
      </trkpt>
      <trkpt lat="46.18786" lon="2.42827">
        <ele>323</ele>
        <time>2016-04-05T14:58:10Z</time>
      </trkpt>
      <trkpt lat="46.1879" lon="2.42824">
        <ele>323</ele>
        <time>2016-04-05T14:58:13Z</time>
      </trkpt>
      <trkpt lat="46.18794" lon="2.42819">
        <ele>323</ele>
        <time>2016-04-05T14:58:16Z</time>
      </trkpt>
      <trkpt lat="46.18797" lon="2.42814">
        <ele>323</ele>
        <time>2016-04-05T14:58:19Z</time>
      </trkpt>
      <trkpt lat="46.188" lon="2.42809">
        <ele>323</ele>
        <time>2016-04-05T14:58:22Z</time>
      </trkpt>
      <trkpt lat="46.18803" lon="2.42804">
        <ele>323</ele>
        <time>2016-04-05T14:58:25Z</time>
      </trkpt>
      <trkpt lat="46.18806" lon="2.42799">
        <ele>323</ele>
        <time>2016-04-05T14:58:28Z</time>
      </trkpt>
      <trkpt lat="46.18809" lon="2.42793">
        <ele>323</ele>
        <time>2016-04-05T14:58:31Z</time>
      </trkpt>
      <trkpt lat="46.1881" lon="2.42787">
        <ele>323</ele>
        <time>2016-04-05T14:58:34Z</time>
      </trkpt>
      <trkpt lat="46.18812" lon="2.42782">
        <ele>323</ele>
        <time>2016-04-05T14:58:37Z</time>
      </trkpt>
      <trkpt lat="46.18815" lon="2.42776">
        <ele>323</ele>
        <time>2016-04-05T14:58:40Z</time>
      </trkpt>
      <trkpt lat="46.18815" lon="2.42771">
        <ele>323</ele>
        <time>2016-04-05T14:58:43Z</time>
      </trkpt>
      <trkpt lat="46.18818" lon="2.42767">
        <ele>323</ele>
        <time>2016-04-05T14:58:46Z</time>
      </trkpt>
      <trkpt lat="46.18822" lon="2.42765">
        <ele>323</ele>
        <time>2016-04-05T14:58:49Z</time>
      </trkpt>
      <trkpt lat="46.18825" lon="2.4276">
        <ele>323</ele>
        <time>2016-04-05T14:58:52Z</time>
      </trkpt>
      <trkpt lat="46.18826" lon="2.42755">
        <ele>323</ele>
        <time>2016-04-05T14:58:55Z</time>
      </trkpt>
      <trkpt lat="46.18827" lon="2.4275">
        <ele>323</ele>
        <time>2016-04-05T14:58:58Z</time>
      </trkpt>
      <trkpt lat="46.18827" lon="2.42742">
        <ele>323</ele>
        <time>2016-04-05T14:59:01Z</time>
      </trkpt>
      <trkpt lat="46.18827" lon="2.42735">
        <ele>323</ele>
        <time>2016-04-05T14:59:04Z</time>
      </trkpt>
      <trkpt lat="46.18828" lon="2.42729">
        <ele>323</ele>
        <time>2016-04-05T14:59:07Z</time>
      </trkpt>
      <trkpt lat="46.1883" lon="2.42723">
        <ele>323</ele>
        <time>2016-04-05T14:59:10Z</time>
      </trkpt>
      <trkpt lat="46.18832" lon="2.42717">
        <ele>323</ele>
        <time>2016-04-05T14:59:13Z</time>
      </trkpt>
      <trkpt lat="46.18832" lon="2.4271">
        <ele>323</ele>
        <time>2016-04-05T14:59:16Z</time>
      </trkpt>
      <trkpt lat="46.18833" lon="2.42703">
        <ele>323</ele>
        <time>2016-04-05T14:59:19Z</time>
      </trkpt>
      <trkpt lat="46.18833" lon="2.42697">
        <ele>323</ele>
        <time>2016-04-05T14:59:22Z</time>
      </trkpt>
      <trkpt lat="46.18834" lon="2.42692">
        <ele>323</ele>
        <time>2016-04-05T14:59:25Z</time>
      </trkpt>
      <trkpt lat="46.18834" lon="2.42686">
        <ele>323</ele>
        <time>2016-04-05T14:59:28Z</time>
      </trkpt>
      <trkpt lat="46.18834" lon="2.42678">
        <ele>323</ele>
        <time>2016-04-05T14:59:31Z</time>
      </trkpt>
      <trkpt lat="46.18835" lon="2.42671">
        <ele>323</ele>
        <time>2016-04-05T14:59:34Z</time>
      </trkpt>
      <trkpt lat="46.18839" lon="2.42666">
        <ele>323</ele>
        <time>2016-04-05T14:59:37Z</time>
      </trkpt>
      <trkpt lat="46.1884" lon="2.42659">
        <ele>323</ele>
        <time>2016-04-05T14:59:40Z</time>
      </trkpt>
      <trkpt lat="46.18839" lon="2.42653">
        <ele>323</ele>
        <time>2016-04-05T14:59:43Z</time>
      </trkpt>
      <trkpt lat="46.18838" lon="2.42647">
        <ele>323</ele>
        <time>2016-04-05T14:59:46Z</time>
      </trkpt>
      <trkpt lat="46.18836" lon="2.42642">
        <ele>323</ele>
        <time>2016-04-05T14:59:49Z</time>
      </trkpt>
      <trkpt lat="46.18834" lon="2.42636">
        <ele>324</ele>
        <time>2016-04-05T14:59:52Z</time>
      </trkpt>
      <trkpt lat="46.18834" lon="2.42631">
        <ele>325</ele>
        <time>2016-04-05T14:59:55Z</time>
      </trkpt>
      <trkpt lat="46.18835" lon="2.42623">
        <ele>325</ele>
        <time>2016-04-05T14:59:58Z</time>
      </trkpt>
      <trkpt lat="46.18836" lon="2.42617">
        <ele>325</ele>
        <time>2016-04-05T15:00:01Z</time>
      </trkpt>
      <trkpt lat="46.18838" lon="2.4261">
        <ele>325</ele>
        <time>2016-04-05T15:00:04Z</time>
      </trkpt>
      <trkpt lat="46.18841" lon="2.42604">
        <ele>325</ele>
        <time>2016-04-05T15:00:07Z</time>
      </trkpt>
      <trkpt lat="46.18842" lon="2.42596">
        <ele>325</ele>
        <time>2016-04-05T15:00:10Z</time>
      </trkpt>
      <trkpt lat="46.18844" lon="2.42588">
        <ele>325</ele>
        <time>2016-04-05T15:00:13Z</time>
      </trkpt>
      <trkpt lat="46.18846" lon="2.42581">
        <ele>325</ele>
        <time>2016-04-05T15:00:16Z</time>
      </trkpt>
      <trkpt lat="46.18846" lon="2.42574">
        <ele>325</ele>
        <time>2016-04-05T15:00:19Z</time>
      </trkpt>
      <trkpt lat="46.18847" lon="2.42568">
        <ele>325</ele>
        <time>2016-04-05T15:00:22Z</time>
      </trkpt>
      <trkpt lat="46.18848" lon="2.42561">
        <ele>325</ele>
        <time>2016-04-05T15:00:25Z</time>
      </trkpt>
      <trkpt lat="46.18849" lon="2.42555">
        <ele>325</ele>
        <time>2016-04-05T15:00:28Z</time>
      </trkpt>
      <trkpt lat="46.1885" lon="2.42548">
        <ele>325</ele>
        <time>2016-04-05T15:00:31Z</time>
      </trkpt>
      <trkpt lat="46.18852" lon="2.42542">
        <ele>325</ele>
        <time>2016-04-05T15:00:34Z</time>
      </trkpt>
      <trkpt lat="46.18854" lon="2.42535">
        <ele>325</ele>
        <time>2016-04-05T15:00:37Z</time>
      </trkpt>
      <trkpt lat="46.18857" lon="2.4253">
        <ele>325</ele>
        <time>2016-04-05T15:00:40Z</time>
      </trkpt>
      <trkpt lat="46.1886" lon="2.42527">
        <ele>325</ele>
        <time>2016-04-05T15:00:43Z</time>
      </trkpt>
      <trkpt lat="46.18864" lon="2.42525">
        <ele>325</ele>
        <time>2016-04-05T15:00:46Z</time>
      </trkpt>
      <trkpt lat="46.18867" lon="2.42523">
        <ele>326</ele>
        <time>2016-04-05T15:00:49Z</time>
      </trkpt>
      <trkpt lat="46.18872" lon="2.42519">
        <ele>327</ele>
        <time>2016-04-05T15:00:52Z</time>
      </trkpt>
      <trkpt lat="46.18877" lon="2.42517">
        <ele>327</ele>
        <time>2016-04-05T15:00:55Z</time>
      </trkpt>
      <trkpt lat="46.18881" lon="2.42516">
        <ele>327</ele>
        <time>2016-04-05T15:00:58Z</time>
      </trkpt>
      <trkpt lat="46.18886" lon="2.42514">
        <ele>327</ele>
        <time>2016-04-05T15:01:02Z</time>
      </trkpt>
      <trkpt lat="46.18888" lon="2.42512">
        <ele>327</ele>
        <time>2016-04-05T15:01:06Z</time>
      </trkpt>
      <trkpt lat="46.18888" lon="2.42512">
        <ele>327</ele>
        <time>2016-04-05T15:01:06Z</time>
      </trkpt>
    </trkseg>
  </trk>
</gpx>